GFSWCAN_925_thetae_000.txt.gz
Theta_e
305 306 311 312 312 312 311 311 311 311 311 311 312 313 313 313 317 318 315 314 316 318 315 314 313 316 315 319 324 318 320 318 317 318 316 319 318 319 316 315 316 317 319 317 315 317 318 311 312 316 316 312 310 310
306 306 306 309 312 312 312 311 311 311 312 311 312 313 314 314 314 318 318 313 312 318 317 314 315 312 315 315 318 316 319 318 321 319 313 313 317 310 321 319 313 317 316 316 316 318 314 313 312 312 310 311 311 309
303 305 307 308 309 311 311 311 311 312 312 312 312 313 313 314 313 315 316 314 312 317 317 318 319 315 313 313 314 321 316 315 316 314 317 313 315 316 315 317 320 315 313 316 315 315 315 315 313 312 310 308 306 305
302 303 305 307 308 310 311 311 311 311 312 312 313 313 313 314 314 314 315 313 312 310 311 318 310 313 314 316 316 316 314 311 311 314 308 310 314 315 316 319 317 316 314 314 315 315 314 312 312 310 308 306 305 304
302 302 303 305 307 309 310 311 311 311 311 312 313 313 313 314 315 314 314 313 313 319 319 318 311 310 311 314 316 315 315 316 315 313 306 315 315 315 313 312 317 315 315 316 316 314 313 312 308 308 308 307 303 300
301 300 301 300 305 307 310 311 312 312 311 312 312 313 313 314 315 315 319 315 314 314 317 321 312 310 310 313 315 316 316 317 317 314 312 315 315 317 312 313 313 314 313 313 313 311 310 308 306 306 305 301 299 298
300 300 300 301 304 306 308 310 311 312 313 312 312 313 313 313 315 316 317 312 314 314 314 318 316 308 306 309 309 312 312 315 315 316 314 316 317 315 309 313 313 312 309 308 307 306 307 306 306 302 300 298 298 298
300 300 301 301 302 303 305 308 311 312 313 313 312 312 313 313 313 313 313 312 313 311 309 313 310 311 306 310 310 303 308 311 313 315 308 313 312 314 313 313 308 305 305 306 306 306 306 302 301 300 299 299 299 298
300 300 301 301 301 302 303 305 307 311 313 313 313 313 311 311 310 311 312 312 312 312 315 309 312 313 306 305 304 304 306 311 307 308 308 310 310 313 313 309 305 303 306 306 303 302 301 300 300 299 298 296 296 296
300 300 301 300 301 301 302 303 305 307 310 312 311 309 301 306 310 310 310 309 304 305 305 310 310 315 310 305 305 308 306 310 312 306 303 305 308 303 301 302 303 303 304 303 302 301 300 299 296 295 295 295 294 294
300 300 300 300 300 302 302 302 304 304 304 307 300 299 301 304 306 302 304 306 303 305 302 301 302 306 302 310 308 301 305 304 311 307 309 310 310 306 302 303 302 301 301 300 298 296 295 295 295 295 295 294 293 293
299 299 300 300 301 302 302 301 303 304 303 303 302 302 302 302 300 306 305 300 303 307 301 303 302 302 299 302 305 300 305 303 309 301 304 307 306 302 301 301 300 299 297 295 294 294 294 294 294 294 293 293 292 291
299 298 300 300 301 302 302 300 301 301 302 303 300 297 300 299 306 308 309 307 306 303 301 301 302 301 299 300 300 304 306 306 299 302 305 305 302 301 301 300 299 296 295 293 293 294 294 294 293 292 291 291 290 290
297 298 300 300 301 301 303 303 303 302 301 300 301 304 305 305 305 305 306 307 301 301 302 300 299 302 297 299 300 305 298 299 303 303 305 302 300 297 296 296 295 294 292 292 293 293 293 292 291 291 290 290 289 289
297 298 300 299 300 302 302 299 299 298 297 299 302 304 303 298 300 299 299 301 298 299 300 300 298 300 298 299 298 298 299 302 302 303 301 300 296 296 295 294 294 294 293 292 293 293 292 291 290 290 290 290 290 289
296 298 299 299 300 300 300 298 299 296 294 296 297 299 297 300 299 299 299 299 297 296 296 299 300 302 300 300 299 301 301 301 301 300 299 296 296 295 295 295 293 292 292 292 292 292 291 291 290 291 290 289 289 289
296 298 299 299 300 301 300 299 298 293 294 297 296 294 296 299 302 300 300 298 296 298 301 299 301 301 295 299 299 297 298 298 298 297 295 294 295 295 294 294 292 291 291 291 292 292 292 291 290 289 290 291 290 289
296 297 299 299 299 299 296 294 294 295 295 293 297 296 295 294 296 297 297 296 297 297 296 299 294 296 298 299 299 297 296 295 294 294 294 294 293 294 294 293 292 292 291 291 291 291 290 290 290 292 291 290 289 289
296 297 299 298 298 297 295 294 292 295 293 292 291 292 293 293 291 290 293 293 295 294 294 296 297 297 296 294 297 297 296 295 295 295 294 292 292 292 292 291 290 290 291 291 292 292 292 292 291 291 290 290 288 288
297 296 297 297 296 295 295 294 291 294 295 293 291 293 292 292 291 292 294 296 296 298 299 298 298 297 297 295 294 296 294 293 293 293 293 293 292 291 291 291 292 292 292 291 292 291 290 291 292 291 290 290 288 288
295 293 296 296 293 292 292 293 293 293 293 294 290 293 292 291 292 292 294 293 296 297 297 297 297 297 293 292 291 292 292 292 293 293 293 293 292 292 291 291 291 291 291 292 292 292 290 291 291 290 288 288 287 287
292 292 292 292 291 290 291 288 293 290 293 292 293 292 294 293 291 291 291 293 294 295 296 296 295 295 294 293 292 291 291 291 291 291 290 290 292 292 292 292 291 292 292 292 292 292 291 291 289 288 287 287 287 287
292 292 291 289 291 292 290 288 292 290 294 293 291 293 293 292 289 287 291 291 292 292 293 293 293 292 292 292 291 291 290 290 291 292 292 291 291 291 291 291 291 291 291 292 291 290 290 289 288 287 287 287 287 286
292 289 290 290 291 291 290 290 290 291 291 291 292 291 290 290 286 288 290 290 292 291 291 291 291 292 291 290 291 291 291 290 291 291 291 291 291 292 292 291 291 290 290 289 290 289 289 287 287 287 287 287 286 286
293 290 290 289 288 289 290 291 290 291 292 290 289 290 289 285 290 290 290 292 292 292 293 290 289 290 292 293 292 291 290 290 291 292 291 291 290 290 291 291 292 290 288 287 288 288 288 287 286 286 286 286 286 286
290 289 290 289 288 290 290 290 289 290 289 288 289 286 284 290 291 292 291 293 293 292 295 295 293 292 291 290 291 291 291 289 289 290 290 290 290 289 290 290 291 290 288 287 287 287 287 286 285 285 285 285 285 285
290 290 289 286 287 286 286 285 285 287 287 289 290 287 289 291 292 292 290 287 289 286 285 286 286 287 288 288 287 288 287 287 287 288 287 286 286 287 286 287 288 287 286 285 285 285 285 285 285 285 285 284 284 284
289 289 289 288 288 287 288 288 288 289 290 288 289 289 291 291 292 288 285 281 280 281 283 284 283 282 283 284 283 284 283 284 284 285 285 285 286 284 283 283 282 282 283 283 283 283 283 284 284 283 283 284 284 283
291 288 289 287 286 287 289 290 291 290 289 289 291 292 291 286 279 278 277 276 277 278 279 278 278 278 279 279 280 280 279 279 280 283 284 286 287 280 278 278 278 279 280 280 281 281 281 281 281 281 281 281 280 280
289 288 289 286 287 290 292 290 291 288 286 288 287 287 285 278 274 274 274 274 274 274 274 274 274 275 275 276 277 278 276 275 275 276 278 278 276 275 274 274 275 276 277 277 278 279 280 279 279 279 278 278 276 275
287 288 289 289 290 291 287 280 280 280 283 287 286 289 289 276 273 271 271 272 272 272 272 273 273 274 275 275 274 275 275 273 271 272 272 272 272 272 272 273 274 274 275 275 275 277 276 276 276 275 274 272 271 271
287 289 289 289 290 284 281 283 284 286 287 286 288 281 279 280 276 272 269 270 271 270 269 270 271 272 272 271 271 271 270 270 269 269 270 270 271 271 272 272 272 273 273 273 273 272 272 272 272 272 271 269 268 267
284 284 284 285 286 288 283 282 284 284 283 283 281 279 276 277 273 270 269 268 269 268 268 268 268 269 271 270 269 269 269 268 269 269 269 269 269 270 270 270 271 271 271 270 270 269 269 269 268 267 266 265 265 264

GFSWCAN_925_thetae_003.txt.gz
Theta_e
307 311 313 312 311 311 310 311 311 311 311 310 311 312 313 313 318 320 318 314 322 323 319 318 318 321 321 321 326 323 322 322 324 319 322 324 323 320 319 316 317 319 321 318 319 320 319 314 314 318 317 315 314 312
305 306 310 312 311 311 311 311 311 311 311 311 311 312 313 314 315 319 322 313 318 322 321 318 318 317 319 319 321 322 321 322 322 325 321 321 324 316 321 321 316 318 318 319 318 318 315 315 315 316 314 314 312 311
305 306 306 308 310 311 312 311 311 311 311 312 312 313 313 314 314 316 321 316 320 325 321 320 320 318 316 318 319 323 322 320 321 321 321 319 314 319 318 321 321 316 316 319 318 315 314 314 315 314 313 312 310 309
302 303 305 306 307 309 311 311 311 311 312 312 312 312 313 315 314 315 320 316 319 318 318 324 314 318 316 318 319 320 318 318 318 319 314 312 316 319 320 319 319 318 317 317 318 316 315 314 313 313 312 310 309 308
301 301 301 303 306 308 309 311 311 311 311 312 313 313 313 314 314 317 318 316 317 323 324 323 316 314 315 319 319 318 318 319 320 316 311 315 320 320 319 317 319 316 316 320 320 315 315 314 312 312 311 310 308 305
300 300 299 301 305 306 308 310 311 311 311 311 312 313 313 315 315 319 321 319 315 320 323 325 317 315 315 317 319 319 318 320 320 320 314 319 318 319 315 318 314 314 314 314 316 313 312 310 309 308 308 306 303 301
300 300 301 302 303 305 307 309 310 311 311 311 312 313 313 314 316 318 319 317 315 319 321 321 322 313 312 316 317 318 318 319 320 318 318 318 319 317 315 317 313 313 313 312 311 310 310 309 310 306 304 302 301 301
300 300 301 301 302 303 304 307 309 311 312 312 311 313 313 313 314 316 315 313 315 318 318 320 316 315 311 316 316 311 315 315 317 318 315 316 317 317 318 314 313 313 310 309 308 308 310 307 305 303 301 301 299 298
300 300 301 301 301 301 302 304 307 310 312 312 312 312 313 313 313 316 314 313 313 317 319 311 314 315 311 310 309 308 310 315 312 314 314 314 314 316 315 314 313 310 310 310 308 306 305 303 302 300 299 298 297 297
300 299 300 300 300 301 302 302 304 307 311 313 310 310 304 308 312 312 313 316 313 313 313 312 314 314 313 308 308 309 308 312 313 310 305 306 310 312 311 310 309 308 307 307 306 305 303 301 299 297 297 296 296 295
299 299 300 300 300 301 302 302 304 305 304 306 301 300 302 306 307 307 307 311 309 308 307 311 312 312 308 311 309 306 308 307 313 310 310 312 311 311 308 306 305 305 305 304 303 300 297 297 296 296 296 295 294 294
298 298 300 300 300 301 301 304 303 303 303 303 302 302 304 302 302 312 307 302 306 311 304 304 306 309 303 305 304 300 305 305 313 307 309 310 310 308 306 306 304 303 302 299 297 296 295 295 295 295 295 294 294 293
297 298 299 300 300 302 301 303 302 302 302 300 297 297 299 298 305 308 309 308 307 302 300 301 302 300 300 301 301 304 307 310 304 306 308 310 307 305 306 304 302 300 297 295 295 295 294 294 294 294 294 293 292 292
296 298 299 299 300 301 301 301 301 300 299 298 299 304 304 306 305 306 307 305 302 302 301 300 300 302 299 303 303 308 303 303 307 307 308 306 305 304 303 302 301 298 294 293 293 294 294 294 294 293 292 292 291 291
295 297 298 299 300 300 301 301 300 299 299 300 301 305 304 300 299 298 299 300 299 301 302 304 303 305 304 303 304 302 302 306 306 307 306 303 302 300 299 297 296 295 295 294 293 293 293 293 293 293 293 292 293 292
296 298 299 299 299 300 299 299 299 298 297 299 299 301 299 302 301 299 299 299 299 299 301 303 304 305 304 304 303 305 306 305 305 304 303 300 298 297 297 297 296 295 293 293 292 292 293 293 293 293 293 292 291 291
296 299 299 299 299 300 299 298 297 296 298 300 299 299 300 302 302 299 301 300 299 301 303 303 304 305 299 303 304 302 303 303 302 301 299 297 297 297 297 297 295 294 294 293 293 293 293 293 293 292 292 293 293 292
297 298 298 299 299 299 298 296 297 299 299 298 301 298 297 298 299 299 299 298 299 299 299 301 298 300 302 303 303 302 299 299 299 297 296 295 295 295 295 295 295 294 293 293 293 293 293 293 293 294 293 293 293 292
298 298 299 298 298 297 296 296 297 299 298 297 295 296 296 295 294 294 295 295 296 296 298 299 301 300 300 298 300 301 300 298 297 297 296 295 294 293 293 293 293 293 293 293 293 294 293 293 294 294 293 293 293 293
296 297 298 297 296 297 297 297 295 298 299 297 295 297 295 295 293 295 296 297 298 299 300 301 300 299 299 298 298 298 297 297 296 296 296 294 294 294 293 293 293 293 293 293 293 293 294 294 294 293 293 293 292 291
296 296 296 295 295 295 296 297 297 297 296 296 294 297 294 293 294 295 296 296 299 299 299 299 300 299 297 296 295 295 295 295 295 295 295 295 294 293 293 293 293 293 294 294 295 295 294 294 294 293 292 291 289 288
293 294 293 292 293 292 294 293 296 295 296 295 295 296 295 295 294 293 293 295 296 297 298 298 298 297 297 296 295 294 294 293 293 293 293 293 294 294 294 294 294 294 294 295 294 295 295 294 293 292 291 289 288 288
293 292 291 291 294 296 293 292 295 294 296 295 295 295 295 294 292 290 293 294 295 296 296 296 295 295 295 294 293 293 293 293 293 293 293 293 293 293 294 294 294 294 294 294 293 293 293 293 292 290 289 288 288 288
292 290 293 293 294 293 292 293 293 294 294 295 296 295 294 294 289 292 294 295 295 294 293 293 293 294 293 293 293 292 292 292 293 293 293 293 293 293 293 293 293 293 293 293 292 292 291 290 289 288 288 288 288 287
294 291 293 292 292 293 293 293 293 294 295 293 294 294 292 290 293 293 293 294 296 296 295 293 293 292 293 293 292 292 292 292 292 292 292 292 293 293 293 293 292 292 292 291 290 289 289 289 288 287 287 287 287 286
293 291 293 293 292 294 294 294 293 294 293 293 293 291 290 293 293 294 293 295 295 293 290 291 292 293 293 292 292 291 291 290 290 290 290 291 291 292 292 291 291 291 291 290 290 288 288 287 287 286 286 286 286 286
293 292 291 289 291 291 291 291 292 293 292 293 293 291 292 293 293 293 292 288 290 286 286 287 287 288 288 287 287 285 284 284 284 285 284 285 286 286 286 288 288 287 285 285 286 286 286 286 286 286 286 285 285 285
292 292 292 291 292 292 292 292 292 293 293 293 293 292 293 293 294 289 286 282 281 283 284 284 283 281 282 282 281 281 281 280 280 282 283 285 285 281 280 280 280 280 281 282 282 282 283 284 284 284 284 284 284 283
293 292 291 290 290 292 292 293 293 293 293 293 294 294 294 287 281 281 279 279 279 280 280 279 279 278 279 279 280 279 277 277 277 279 280 281 281 279 277 277 277 277 277 278 279 280 280 281 280 280 281 282 281 280
291 291 292 290 290 293 294 294 295 292 291 292 292 290 286 280 276 276 276 277 277 277 276 277 277 277 277 277 277 278 276 275 274 274 275 276 276 275 275 275 274 275 275 276 277 278 279 279 279 280 279 278 277 277
290 290 291 292 293 293 291 287 287 287 288 291 293 291 287 279 275 273 273 274 274 274 274 275 275 275 274 274 274 274 275 274 272 271 270 270 271 272 272 271 272 272 273 274 275 276 276 277 278 277 276 274 273 273
290 292 292 292 292 289 287 288 290 290 291 290 291 286 283 283 280 274 271 272 273 273 272 272 273 273 272 272 272 272 271 271 271 269 269 268 268 268 268 268 269 269 270 271 273 273 273 274 274 273 273 271 270 269
287 287 287 288 289 289 288 288 289 289 288 288 285 283 280 281 277 273 271 270 270 270 270 270 270 270 271 272 271 270 270 270 269 268 268 266 265 265 266 266 267 268 268 270 271 271 270 270 270 269 268 267 266 265

GFSWCAN_925_thetae_006.txt.gz
Theta_e
314 313 312 311 310 310 310 310 310 310 310 310 310 311 313 313 318 323 321 314 326 327 321 321 322 323 322 324 329 324 324 326 329 319 323 327 324 324 322 318 318 317 320 317 319 319 319 315 314 317 319 317 315 314
308 312 311 311 311 310 310 311 310 310 311 310 311 312 313 313 315 320 324 316 322 326 323 321 320 320 320 321 324 325 322 324 326 325 325 324 323 318 321 325 316 321 322 323 320 320 318 316 316 316 315 316 313 312
306 308 310 311 311 311 311 311 311 311 311 311 311 312 313 314 314 318 323 319 323 330 323 321 320 319 319 320 321 327 328 321 323 323 320 317 313 321 318 323 320 316 315 324 321 317 315 316 315 315 314 313 311 310
304 305 306 308 310 311 311 311 311 311 311 312 312 312 313 314 314 317 322 319 322 319 313 326 318 319 318 319 320 322 322 321 323 320 312 312 313 320 322 321 322 320 317 318 319 317 316 315 314 314 312 311 310 309
300 301 303 305 307 308 311 312 311 311 311 312 312 312 313 314 314 319 321 320 320 325 320 326 318 318 318 320 320 320 321 323 324 317 309 314 322 324 324 320 322 317 316 319 320 317 317 316 312 310 310 310 309 307
300 301 302 304 305 306 308 310 311 311 311 311 312 313 313 314 315 321 321 320 319 322 320 320 320 318 318 319 320 319 320 322 323 320 315 320 320 323 318 319 316 314 314 314 316 315 314 313 311 309 309 306 304 303
300 301 301 302 303 305 306 308 310 311 311 310 311 313 313 314 317 319 319 316 316 321 319 317 323 316 315 318 320 321 320 322 321 323 322 319 322 319 312 317 314 313 313 313 313 313 312 311 310 309 305 303 302 301
300 300 301 301 302 303 304 307 309 310 311 311 311 312 313 313 314 317 316 314 317 321 319 321 317 316 314 320 320 313 317 317 319 320 318 318 320 318 319 316 315 313 313 312 310 310 310 309 308 305 303 301 299 298
300 300 300 300 301 301 302 304 307 309 311 311 311 312 313 313 316 317 315 314 315 319 321 309 314 316 314 310 309 311 313 315 314 313 315 316 316 316 316 314 313 313 312 311 310 309 307 305 303 302 300 298 297 297
299 299 299 300 301 301 301 302 304 308 310 311 311 310 304 309 312 313 314 318 316 319 316 312 316 317 314 310 310 309 308 313 313 311 307 308 313 313 313 313 313 311 310 310 309 307 305 303 301 298 297 297 297 296
299 299 300 300 301 301 302 303 304 306 305 306 303 301 303 307 310 310 310 313 311 313 311 311 314 312 310 311 309 308 308 309 312 312 312 311 311 311 311 311 309 308 308 307 306 304 300 298 297 297 298 297 295 295
298 299 300 300 301 301 303 304 304 304 304 303 303 303 304 302 301 311 308 305 308 315 307 306 309 311 307 310 309 303 308 305 312 307 307 312 311 311 310 308 307 306 305 302 300 298 297 296 296 296 296 296 295 294
297 298 299 300 301 302 302 302 303 302 302 302 299 298 301 298 305 308 310 308 308 302 301 302 303 302 301 303 301 303 307 309 304 309 309 310 309 307 308 307 305 300 297 297 297 296 295 295 294 293 294 293 293 293
296 298 299 299 301 301 301 301 301 302 301 298 299 304 304 306 305 304 304 302 300 300 300 300 300 302 298 302 301 307 305 305 308 309 309 309 306 306 306 305 302 297 292 294 294 294 294 294 294 293 293 292 292 292
296 297 299 299 300 301 301 301 301 301 301 301 301 305 304 300 299 298 296 298 297 299 299 300 300 302 301 302 302 304 304 307 308 310 306 304 302 301 300 300 296 295 293 294 295 294 293 292 293 293 293 293 293 293
296 298 299 299 300 300 299 300 300 299 299 300 301 302 300 302 301 298 297 298 299 298 300 302 302 305 305 304 305 307 307 308 308 306 304 299 299 299 298 297 297 296 294 294 294 293 293 293 293 293 294 294 293 292
296 299 298 299 300 300 299 299 298 298 298 299 300 300 300 301 301 300 300 300 299 300 302 303 306 303 301 304 305 304 306 305 304 303 299 298 297 298 297 297 296 295 295 295 294 294 293 293 294 294 293 293 294 294
297 298 298 299 299 299 298 298 299 300 301 300 302 300 299 299 298 299 299 299 301 300 302 302 300 302 304 304 305 304 303 302 300 299 298 297 296 296 295 295 295 295 295 294 293 293 293 293 293 294 294 294 294 294
297 298 298 298 299 298 297 296 297 301 299 298 297 297 297 296 296 296 296 296 297 297 299 300 301 302 303 301 303 304 303 302 299 298 297 296 295 295 294 293 293 293 293 293 294 294 294 294 294 294 294 294 294 294
296 296 297 297 297 297 297 298 297 299 300 299 297 298 296 296 294 295 296 296 297 300 300 300 302 303 302 301 301 301 301 299 299 298 297 296 295 295 294 294 295 294 294 294 294 294 294 294 295 294 294 294 293 293
296 296 296 296 295 297 298 297 298 298 297 298 296 298 294 294 295 297 298 296 298 300 300 301 303 301 298 297 296 296 296 296 297 297 296 296 295 294 294 294 294 294 295 295 295 295 295 294 294 294 294 293 292 291
294 295 294 292 292 293 296 295 297 297 297 296 296 298 295 295 295 295 294 296 297 298 299 300 300 300 299 298 297 296 295 294 294 294 294 293 295 295 295 295 295 295 294 294 294 294 294 294 293 293 293 292 290 289
293 294 292 291 294 295 294 293 297 296 296 295 296 296 295 294 294 292 294 295 296 297 297 297 297 296 296 295 294 293 293 293 294 294 294 294 294 294 294 294 294 294 294 294 293 293 293 293 292 291 291 290 289 289
293 291 294 295 296 295 293 294 295 296 296 296 296 296 295 294 292 293 295 296 296 295 295 294 294 295 295 293 294 293 293 292 293 293 293 293 294 294 293 293 293 293 292 292 292 292 292 290 289 289 289 289 288 288
294 292 294 293 294 295 294 294 295 295 295 295 295 295 294 292 295 295 295 297 295 293 293 294 294 293 294 295 293 293 291 290 291 291 291 291 291 291 291 291 291 291 290 290 291 291 291 290 289 289 288 288 287 287
295 293 294 295 294 296 295 295 295 295 295 294 294 293 292 294 294 295 295 294 292 290 289 290 291 292 292 290 290 288 286 284 284 285 286 285 284 285 286 287 287 287 283 283 284 286 287 287 288 288 287 286 286 286
294 294 292 290 293 293 294 294 294 294 294 294 294 292 293 293 294 294 290 285 287 285 285 285 285 286 286 285 284 283 282 281 280 281 281 282 284 281 280 280 281 280 280 281 281 282 283 284 285 286 285 286 285 284
293 293 292 293 293 294 293 293 293 294 294 294 294 293 293 293 294 287 284 282 282 283 284 283 282 281 282 281 281 281 279 278 278 279 280 282 282 278 276 276 276 276 277 277 278 279 280 281 282 283 282 283 283 282
292 293 292 291 292 293 293 294 294 294 294 295 295 294 294 285 281 282 280 279 280 280 280 280 279 279 279 279 280 278 277 276 275 276 276 278 277 275 274 274 274 274 274 274 275 277 277 279 280 280 280 281 279 278
291 292 292 292 292 294 294 295 294 292 293 293 294 289 285 279 277 277 277 277 277 277 278 278 277 277 277 276 277 276 276 274 273 273 273 273 272 271 272 272 271 271 272 272 273 274 276 276 278 279 277 276 275 275
290 291 292 293 293 293 291 288 288 288 290 291 291 291 284 278 275 274 275 276 276 275 275 275 276 276 274 274 274 274 274 273 272 271 270 270 269 269 269 269 268 269 270 271 271 273 274 274 276 276 274 273 272 271
291 291 293 293 294 290 289 289 290 290 291 290 291 285 284 284 280 275 272 274 274 274 272 273 272 272 272 272 273 273 272 271 271 270 269 269 268 267 267 266 267 267 267 268 270 272 272 272 272 271 271 269 268 267
289 289 289 289 290 290 290 289 290 289 289 289 288 285 281 281 279 275 273 272 272 271 271 271 270 271 271 271 270 271 270 269 269 269 268 268 267 266 265 265 266 265 265 267 270 270 269 268 268 267 266 265 264 263

GFSWCAN_925_thetae_009.txt.gz
Theta_e
312 311 312 311 310 309 309 310 310 310 309 310 310 311 312 314 319 324 316 320 325 317 318 320 321 322 321 320 315 318 315 313 308 312 309 310 311 311 314 315 312 309 308 311 311 308 310 313 313 311 311 314 313 311
312 313 311 310 310 309 310 310 310 310 310 310 310 311 312 313 317 324 322 321 322 321 320 320 318 318 319 320 319 317 314 321 316 313 308 312 310 313 309 312 314 314 312 311 311 310 310 313 312 312 312 313 310 311
312 311 311 310 310 310 310 310 310 310 311 311 310 311 312 313 314 322 321 320 324 316 317 318 319 319 320 320 321 318 316 319 320 316 311 314 310 311 310 312 315 314 314 310 313 315 315 312 314 313 312 310 309 308
307 310 311 311 311 311 311 311 311 311 311 311 311 311 312 313 314 321 321 320 320 312 307 318 318 319 317 319 321 321 320 321 317 309 308 310 307 314 308 310 309 311 314 314 311 315 314 313 312 311 310 310 309 309
304 305 307 310 310 311 311 311 311 311 311 311 312 312 312 314 315 319 319 319 320 320 310 311 318 318 318 320 320 320 320 318 314 308 307 308 304 309 303 306 308 315 313 311 310 313 313 312 310 310 310 310 310 308
302 304 304 305 307 309 311 311 311 311 311 312 312 313 313 314 315 321 319 320 318 322 311 310 316 317 317 319 320 320 320 318 316 308 304 311 317 310 309 309 313 314 314 312 312 313 312 310 309 309 308 305 302 301
301 301 303 304 305 306 308 310 311 311 311 311 312 313 313 314 318 316 316 317 317 320 307 309 310 311 313 318 315 315 318 316 315 309 305 306 310 314 304 313 313 313 311 312 312 310 310 309 309 308 304 302 302 300
300 300 301 302 303 304 306 308 310 311 310 310 311 312 313 313 315 317 316 314 319 318 309 311 313 307 313 307 308 309 307 310 313 312 310 308 308 304 308 313 313 313 312 310 310 309 309 309 308 304 302 299 296 295
299 300 300 300 301 302 303 306 309 310 311 310 311 312 312 313 315 316 315 314 316 316 308 304 311 311 309 306 304 304 308 309 309 307 309 310 308 314 313 313 313 311 311 309 309 309 308 307 302 299 296 296 295 294
300 300 301 301 301 301 301 303 307 309 310 311 311 312 305 310 311 313 314 309 304 304 305 307 306 311 310 303 304 305 301 306 311 307 306 306 311 310 311 311 310 309 309 309 309 307 304 301 297 296 296 295 295 294
299 300 301 301 302 303 303 304 306 308 308 309 303 300 306 309 311 306 308 306 307 308 307 307 307 309 305 307 306 302 305 304 310 305 309 307 309 307 307 308 307 308 307 305 302 301 299 297 296 295 295 295 294 294
299 300 300 301 302 303 304 304 305 305 304 304 304 304 305 301 301 308 308 304 307 310 303 305 306 306 302 306 304 302 307 304 309 304 307 307 304 307 307 306 305 302 300 299 297 296 296 296 295 294 294 293 294 294
298 299 300 301 301 302 302 302 302 303 303 303 299 298 302 298 305 308 309 307 307 301 300 300 302 300 300 301 301 303 307 307 302 307 308 303 307 306 305 297 296 296 295 295 295 294 294 293 292 292 292 292 292 292
297 299 300 301 301 301 301 301 301 302 302 298 301 303 303 304 303 301 302 301 298 298 298 298 299 301 298 302 301 306 303 302 306 306 301 304 304 303 301 296 295 293 292 292 293 294 293 293 293 293 293 292 292 292
297 299 299 300 301 301 301 301 301 301 301 299 300 304 302 298 297 297 296 297 296 297 298 299 299 300 301 301 301 301 303 305 306 306 302 299 299 298 296 295 292 291 291 293 294 293 292 292 292 292 292 293 293 293
298 299 298 299 300 300 300 301 301 299 298 297 298 299 298 300 300 298 297 297 297 295 296 298 301 304 302 302 303 305 305 306 304 300 297 296 296 295 295 294 294 294 294 293 293 293 293 293 293 293 293 294 293 293
297 297 298 299 300 299 300 300 299 296 297 298 298 297 298 298 299 298 297 297 299 298 301 300 303 301 298 302 303 302 303 302 300 297 295 295 295 295 295 295 296 295 294 294 294 294 293 293 293 293 292 293 293 293
298 298 298 298 299 299 299 298 297 297 297 296 299 297 296 296 297 297 296 295 297 296 297 299 297 300 302 302 302 299 297 296 294 293 293 294 294 294 294 294 294 293 293 293 293 293 293 293 292 292 293 294 294 294
296 297 298 299 299 298 295 295 297 297 297 296 295 294 294 294 294 295 294 295 295 296 295 296 298 298 298 296 298 296 294 294 294 294 294 295 295 294 294 293 293 292 293 293 293 293 293 293 293 293 293 294 294 294
296 296 296 297 297 297 295 296 297 296 298 296 294 295 294 294 292 293 294 294 295 296 298 295 296 296 295 294 293 294 293 293 292 292 292 292 294 294 294 293 293 294 294 294 294 294 294 294 294 293 293 293 292 291
295 295 295 295 295 296 295 295 296 296 293 295 294 294 292 292 294 295 296 293 297 298 298 292 292 292 296 296 296 296 295 295 292 290 290 290 294 293 293 293 293 294 294 294 294 294 293 293 293 293 293 292 291 291
295 295 295 294 292 292 293 295 295 292 294 294 294 294 292 294 294 294 292 295 296 292 294 292 293 292 292 294 295 295 295 293 293 293 293 293 289 292 293 294 294 294 293 293 293 293 293 292 292 292 291 289 289 290
294 294 293 291 293 293 293 293 296 295 293 294 295 295 294 293 292 290 293 293 291 294 294 294 295 295 294 294 293 293 293 293 293 293 292 292 292 292 293 292 292 292 291 291 291 291 291 290 291 290 290 288 288 288
293 292 292 294 294 294 293 294 294 295 294 294 295 295 295 293 288 291 292 289 290 292 291 292 293 290 293 292 289 288 288 289 289 288 288 288 288 288 287 287 287 287 287 286 286 287 287 288 289 289 288 287 287 287
293 289 290 293 293 292 289 293 294 292 294 293 294 294 289 286 288 287 288 290 290 289 289 288 290 290 290 288 288 286 284 283 283 283 284 284 282 282 283 284 284 282 280 281 282 283 283 284 285 286 286 287 287 287
294 290 289 294 294 293 291 294 294 293 291 294 293 290 287 287 287 286 292 290 288 287 286 286 285 285 286 285 284 283 282 281 280 280 280 280 281 281 279 279 279 278 276 277 278 279 279 280 281 282 284 284 285 285
293 293 292 290 293 293 294 293 292 292 293 292 292 290 285 285 285 290 287 284 285 284 284 284 283 283 283 282 281 281 279 278 277 278 278 279 277 275 275 275 275 274 274 275 274 275 276 277 278 279 281 282 282 282
293 293 292 292 293 292 292 292 291 291 291 291 289 287 286 285 288 285 283 281 281 282 282 280 279 280 280 280 280 278 276 275 275 276 280 278 275 274 272 272 272 271 271 272 272 273 274 275 276 277 279 280 280 278
292 292 290 288 289 291 289 289 289 290 291 289 286 287 286 282 279 280 279 279 279 279 279 278 277 277 277 277 277 275 274 273 272 268 267 267 270 270 270 269 269 269 269 270 270 271 272 274 275 276 277 277 275 274
291 290 289 287 286 290 291 290 292 290 289 289 286 283 281 278 276 277 277 276 276 277 277 277 275 275 275 274 274 274 273 272 271 271 267 267 269 269 268 267 267 267 267 268 268 269 271 273 274 275 274 274 272 270
289 290 291 291 293 291 289 287 287 287 289 290 288 282 278 275 274 274 274 275 274 274 274 273 273 272 272 272 272 273 272 271 271 270 269 269 269 268 267 266 266 266 266 266 267 268 269 271 272 272 270 269 268 267
290 290 291 291 291 289 288 288 289 289 290 289 287 283 279 277 273 273 272 273 273 272 271 271 271 270 271 271 271 271 271 270 269 268 268 268 267 266 266 265 265 265 265 266 266 268 269 269 268 268 267 266 265 264
287 285 285 284 283 284 286 282 282 283 282 281 282 279 274 274 272 273 272 272 271 271 270 269 269 269 269 270 269 269 268 268 267 267 267 267 266 265 265 265 265 265 265 265 266 267 267 266 265 264 264 263 262 262

GFSWCAN_925_thetae_012.txt.gz
Theta_e
311 311 310 309 308 309 309 309 309 309 309 310 311 312 315 319 321 318 320 324 321 313 316 319 319 318 318 315 314 315 313 310 306 306 304 310 310 309 311 312 310 309 307 306 303 301 309 309 312 311 308 311 311 309
312 311 310 309 308 309 309 309 309 309 309 310 310 312 313 317 323 320 319 322 321 315 316 318 318 319 319 316 315 314 312 314 310 309 308 311 309 311 307 312 311 312 308 309 310 310 308 309 310 309 310 311 309 307
311 312 310 309 309 309 310 310 310 310 310 310 310 311 312 315 323 318 319 322 320 308 312 315 318 318 319 320 318 315 311 317 316 308 307 305 305 306 310 311 313 311 312 309 311 312 311 311 312 311 310 309 308 307
312 311 310 309 309 310 310 310 310 310 311 310 310 311 312 317 320 319 319 321 317 306 305 314 317 318 318 320 321 319 317 316 310 305 306 308 304 308 304 307 307 308 312 313 309 311 313 313 312 309 308 307 307 307
310 310 310 310 310 310 310 310 310 311 311 311 311 311 313 316 319 318 318 318 322 313 309 309 315 317 318 320 320 320 318 314 309 305 303 306 300 306 301 302 306 311 311 310 312 310 310 311 309 308 308 309 310 307
307 310 310 310 311 310 310 310 310 311 311 312 312 312 312 314 319 320 315 317 321 320 308 308 311 312 316 319 318 317 317 314 310 307 304 306 311 306 310 314 311 313 312 310 311 311 312 310 308 308 308 306 303 300
304 304 306 308 310 310 311 311 310 310 311 312 312 313 313 315 319 315 311 315 318 317 305 309 307 308 312 315 310 311 313 312 312 306 304 304 307 310 306 310 311 311 312 311 311 310 310 308 308 307 302 301 297 295
301 302 304 304 306 307 309 311 310 310 310 311 312 313 313 315 316 317 313 317 319 314 304 307 305 305 311 304 307 305 305 309 309 309 306 308 305 303 311 311 312 312 312 310 310 309 308 307 306 302 300 296 295 294
300 301 301 302 303 305 307 309 310 310 310 311 311 311 311 313 312 315 314 315 316 313 308 302 309 310 306 305 302 301 304 306 305 308 307 308 307 314 312 311 312 311 311 310 308 307 307 306 302 297 296 296 294 293
300 301 301 301 302 302 304 308 308 309 310 311 311 310 305 308 311 312 313 304 304 305 302 304 304 310 308 301 303 303 301 305 311 308 306 306 310 308 307 310 309 308 308 307 307 305 300 299 297 297 296 295 294 293
301 301 303 303 303 303 304 307 307 309 310 311 304 301 307 310 311 303 306 304 305 307 306 305 305 308 301 307 306 300 305 304 311 305 310 306 308 305 305 306 306 304 303 302 302 300 298 297 297 296 294 293 293 293
300 301 302 302 302 303 305 306 306 307 305 306 305 305 306 302 302 308 307 304 306 309 302 305 304 305 301 302 304 302 307 304 309 303 308 309 305 304 303 301 299 299 299 298 297 297 296 296 295 293 292 291 292 293
300 301 301 301 301 302 303 304 305 305 304 303 301 298 304 298 307 311 313 308 307 300 300 300 304 299 300 301 301 303 307 308 301 307 308 305 306 299 298 298 297 296 296 296 296 296 294 292 291 291 291 291 292 291
299 301 301 301 301 301 301 301 302 302 302 298 301 303 304 303 302 301 301 302 298 297 298 298 299 301 298 302 301 306 303 302 306 306 302 303 302 299 298 297 296 294 292 292 292 292 292 292 292 292 292 292 292 292
299 299 300 301 300 301 301 301 301 301 299 299 298 303 299 297 297 297 296 297 295 296 297 298 298 300 300 301 301 301 302 304 304 304 301 298 299 297 295 293 292 291 291 292 292 292 292 292 292 292 292 292 292 293
298 298 299 299 299 299 300 300 300 299 297 297 297 299 298 299 299 298 297 297 295 295 295 297 301 303 301 301 301 303 304 303 303 300 297 296 297 295 295 293 293 293 293 293 293 293 292 292 292 292 292 292 292 292
296 297 298 299 299 299 299 300 298 295 295 296 297 296 296 297 298 298 296 297 297 297 300 300 300 300 298 301 302 301 301 300 298 297 294 294 295 294 293 294 294 294 293 293 293 293 292 292 292 292 291 292 293 293
297 297 297 298 298 299 297 297 295 293 297 296 297 297 295 295 296 296 295 293 295 294 296 298 295 299 301 301 301 299 298 296 294 294 293 293 293 293 294 293 293 292 292 291 292 292 292 292 292 292 292 293 293 293
295 296 297 298 297 297 295 295 295 293 293 294 293 293 293 294 292 293 293 294 295 294 292 290 291 294 295 293 293 294 291 291 293 293 292 293 293 293 293 293 292 292 292 292 293 293 293 293 293 293 293 293 292 292
295 294 295 297 297 296 293 292 296 293 296 293 293 294 293 293 292 292 293 293 294 295 297 291 291 290 291 291 290 289 289 289 289 289 291 291 293 293 292 292 292 292 293 293 293 293 293 294 293 292 292 292 292 290
294 294 294 294 296 295 293 292 295 294 294 295 293 293 292 291 293 294 295 292 296 296 292 290 288 290 293 294 294 294 293 293 290 287 288 288 292 292 293 293 293 293 292 291 289 289 290 289 289 290 291 291 291 290
293 294 294 294 291 292 292 294 293 292 294 293 294 292 292 293 293 293 291 292 291 290 291 289 291 289 291 293 293 293 293 292 291 291 291 291 288 288 288 288 287 286 287 288 286 286 286 286 287 287 288 288 289 287
293 293 293 292 290 291 287 293 295 294 294 293 294 294 293 292 292 290 293 293 292 290 291 291 293 293 291 289 288 287 289 289 287 286 286 286 286 284 283 284 284 284 283 283 282 282 282 283 283 284 284 286 287 287
292 292 291 290 292 288 289 292 292 293 292 293 294 294 293 292 288 291 286 288 291 289 287 287 289 289 288 286 285 283 282 283 283 283 282 281 281 281 282 282 280 278 277 278 278 278 278 279 278 279 280 281 283 285
292 287 288 283 284 285 286 288 292 292 290 289 290 291 286 285 285 281 283 289 288 287 283 284 286 287 288 285 283 282 280 279 280 280 280 279 280 280 278 277 277 275 274 273 275 274 274 275 275 276 277 279 279 281
291 286 289 284 286 288 289 292 289 289 288 293 291 288 285 286 288 284 289 288 286 285 284 284 280 282 283 282 282 281 278 277 278 278 278 277 275 274 273 273 273 273 272 271 272 272 271 272 273 274 274 276 278 280
290 285 289 289 291 291 293 292 292 292 292 292 287 290 288 287 283 288 285 282 284 283 281 281 282 282 281 280 278 276 276 276 275 275 275 274 272 271 270 270 270 269 269 269 269 269 270 271 271 272 273 275 275 277
288 288 289 290 292 291 292 291 291 292 292 291 289 287 288 282 285 282 281 281 281 279 279 279 279 279 278 276 275 275 274 274 275 276 274 273 271 270 269 268 268 268 268 268 268 268 268 268 269 271 273 274 274 274
291 291 289 290 289 288 288 289 288 290 290 287 285 284 284 279 277 279 278 278 279 278 277 276 276 276 275 274 274 273 272 272 271 264 262 261 267 268 268 267 267 266 266 267 267 267 268 269 271 272 273 272 271 270
288 286 284 282 286 290 290 288 290 288 286 285 282 280 278 275 274 276 276 276 276 275 274 273 273 273 272 272 272 272 271 271 270 269 263 263 268 268 267 267 266 266 265 265 265 266 268 269 270 271 270 269 268 267
288 289 290 288 290 289 287 287 287 287 288 288 280 278 274 273 273 273 274 274 274 273 273 271 271 270 271 270 270 270 270 269 269 268 268 268 267 267 266 265 265 265 265 265 265 266 267 268 268 267 266 266 265 264
288 288 287 286 284 282 287 287 287 288 289 288 283 276 274 269 267 271 272 272 272 271 270 270 269 269 269 269 269 269 268 268 267 267 266 266 266 265 265 265 264 264 264 264 265 265 265 266 265 264 263 263 262 262
276 272 275 271 277 280 278 275 273 275 278 282 279 275 270 270 270 271 272 271 271 270 269 269 268 269 268 268 268 267 267 266 266 265 266 266 265 265 264 264 264 264 263 263 264 264 264 263 263 262 261 261 260 260

GFSWCAN_925_thetae_015.txt.gz
Theta_e
309 309 309 308 308 308 308 308 309 309 310 312 313 316 320 316 315 318 322 323 318 310 316 318 318 316 315 314 313 314 312 309 303 306 303 304 305 308 310 311 311 310 309 305 303 302 308 307 310 312 309 308 311 309
310 309 309 308 308 308 308 308 309 309 310 311 312 314 319 320 318 320 321 320 318 313 315 317 318 318 318 314 313 311 313 311 309 306 301 306 307 309 306 311 309 310 307 308 308 309 307 307 310 308 308 310 309 308
310 309 308 308 309 309 309 309 309 309 310 310 311 312 318 322 321 318 322 321 316 307 312 314 317 317 319 318 317 313 308 313 311 306 307 302 304 303 309 309 311 310 308 307 309 310 308 307 308 309 308 309 307 306
310 309 308 309 309 309 309 310 310 310 310 310 311 312 318 320 318 318 320 317 313 303 306 313 316 316 318 320 320 315 314 312 306 303 303 303 302 306 304 307 307 308 309 310 308 309 310 311 309 310 309 307 307 306
310 309 309 309 309 310 310 310 310 310 310 310 310 313 318 318 318 318 320 320 319 311 308 307 313 316 316 319 319 317 314 311 307 304 303 306 299 304 302 301 306 309 310 308 310 308 311 309 310 307 307 307 307 306
309 309 309 309 310 310 310 310 310 311 311 311 311 312 316 317 316 314 309 316 320 315 307 309 309 310 314 317 316 315 314 310 308 306 303 303 306 305 309 313 310 310 311 307 309 307 307 309 308 306 307 307 306 298
309 309 309 310 310 310 310 310 310 311 311 311 312 312 313 317 318 311 307 314 319 314 304 308 305 306 310 311 307 309 310 310 310 306 303 305 307 308 306 310 310 310 310 310 309 309 311 308 309 307 304 300 297 294
307 309 310 310 310 310 310 310 310 311 311 312 312 314 315 315 315 314 315 318 317 311 302 305 304 304 308 304 307 304 305 307 308 308 305 307 304 303 309 310 310 311 310 309 309 309 309 307 304 300 296 295 294 294
303 303 305 307 308 310 310 310 310 310 311 312 312 312 312 312 311 313 313 315 315 311 305 302 306 308 304 304 301 301 303 306 305 307 306 306 307 311 312 312 311 310 311 310 309 308 306 305 302 296 296 296 296 294
301 302 302 302 304 307 309 309 310 310 311 311 310 308 305 307 310 312 312 303 302 305 301 302 303 308 308 301 303 303 300 305 309 307 306 306 310 307 305 305 305 307 307 307 306 305 299 298 298 298 297 296 295 293
302 302 302 302 303 306 305 307 308 310 310 310 306 302 308 309 309 303 305 304 305 308 305 303 303 308 303 307 307 300 305 303 312 304 310 309 307 304 301 298 298 298 301 300 300 298 298 297 296 295 293 293 292 292
301 301 302 303 304 305 306 307 309 310 308 307 306 306 306 300 301 306 306 304 306 308 302 304 303 305 301 300 305 302 306 304 311 302 308 308 301 297 297 297 297 297 297 297 297 297 297 297 297 296 293 291 291 292
301 301 301 301 301 303 305 307 308 306 306 305 302 300 305 300 309 311 312 307 306 300 300 300 304 299 300 301 301 303 307 308 301 307 308 305 300 300 298 297 297 297 296 296 297 297 296 292 291 290 290 290 291 291
300 300 301 301 301 301 301 302 304 304 304 299 301 305 304 303 301 301 302 302 297 297 298 298 299 301 298 302 301 307 303 302 307 306 302 301 300 298 297 296 295 295 292 293 292 291 291 291 291 291 291 291 291 291
299 299 299 299 299 300 301 300 300 300 299 298 298 301 297 297 297 296 296 297 295 295 297 299 298 300 300 302 300 301 301 303 302 299 301 298 296 295 294 293 292 291 290 291 291 291 291 292 292 291 291 291 291 292
297 298 298 298 299 299 300 300 299 299 296 297 297 299 297 299 299 298 297 298 295 295 295 297 301 301 301 300 301 302 300 298 298 297 298 297 296 294 295 293 292 293 293 292 292 292 292 291 291 291 292 292 292 292
297 297 297 298 298 298 299 299 298 293 291 297 297 296 297 297 298 297 296 297 296 297 300 299 297 298 297 300 301 301 300 299 298 297 295 295 295 294 294 294 293 293 293 292 291 291 291 291 292 291 291 292 292 292
297 297 297 297 297 297 297 297 293 292 297 295 297 296 294 294 296 296 295 293 291 295 295 298 295 297 298 299 300 299 298 296 295 295 294 293 293 292 292 292 292 291 291 291 292 292 292 292 291 292 292 293 292 292
294 295 295 297 297 296 292 294 293 292 295 294 293 292 293 293 292 293 293 294 293 292 290 288 289 292 293 294 293 295 291 290 292 291 291 292 292 292 292 292 291 291 291 291 291 290 290 290 290 290 289 289 288 290
294 294 295 295 296 295 292 290 295 292 294 294 293 293 292 292 291 292 293 293 293 293 291 289 291 290 290 290 288 288 287 287 288 288 288 289 291 290 290 290 289 290 290 289 288 287 287 286 286 286 286 286 286 287
293 293 293 294 295 294 293 293 294 294 294 295 292 292 292 291 292 293 295 292 291 294 293 289 286 287 290 291 292 292 291 291 289 286 286 287 288 288 286 285 285 285 285 285 285 284 283 283 283 283 283 284 285 285
293 293 293 292 290 291 291 292 293 292 293 293 293 292 292 292 292 292 291 292 290 289 290 288 290 288 291 291 289 289 289 289 288 287 287 287 284 284 283 283 282 280 282 282 281 280 279 279 279 278 279 280 281 282
292 292 291 290 290 290 286 292 294 293 293 293 293 293 292 292 291 290 292 292 292 289 288 289 290 289 287 285 284 284 285 284 283 282 283 283 282 282 281 279 277 277 277 276 276 276 275 275 275 275 275 276 277 278
291 291 289 290 291 287 285 285 290 290 289 292 293 293 293 291 289 290 289 289 290 288 287 286 288 287 286 284 283 280 280 281 281 279 279 280 280 279 278 277 274 273 271 271 272 272 272 271 272 272 273 273 274 275
289 284 290 284 289 290 281 278 286 287 285 283 292 290 287 286 286 289 284 289 288 286 284 284 286 286 285 284 282 280 278 278 279 279 277 277 275 275 274 273 273 271 270 269 268 269 269 269 270 270 270 271 271 272
290 285 289 286 282 290 281 283 281 284 284 290 291 287 285 288 289 289 288 287 285 284 283 283 284 283 282 282 280 277 275 276 277 276 274 272 271 270 269 269 269 269 268 267 267 267 267 267 267 268 269 270 270 271
287 283 285 288 289 290 292 290 289 288 290 292 287 286 289 291 290 286 284 281 283 281 281 281 281 281 280 276 274 274 274 275 275 274 271 271 270 269 268 267 266 267 266 266 266 266 265 265 266 267 268 269 270 271
284 286 288 288 290 291 291 291 291 292 292 290 290 290 290 287 285 281 280 279 279 278 278 278 278 277 275 274 273 273 273 274 273 273 271 270 269 268 268 267 266 266 266 266 266 266 266 266 266 268 268 269 269 269
286 287 287 288 286 287 289 289 289 290 289 289 285 285 281 277 274 276 276 278 278 277 275 274 273 274 273 272 272 271 271 271 271 262 261 258 266 268 266 266 266 265 265 265 266 266 266 267 268 269 269 268 267 267
285 282 282 278 286 289 288 287 287 286 286 282 280 279 276 274 273 275 276 276 274 272 271 272 272 272 271 272 270 269 269 269 268 268 262 261 267 266 266 265 265 265 265 265 265 265 266 266 267 267 266 266 265 264
287 288 289 287 287 286 286 285 287 287 287 283 279 276 274 272 273 272 273 273 273 272 272 271 270 270 270 269 269 269 269 268 267 267 267 266 266 265 265 265 264 264 264 264 264 265 265 265 264 264 263 263 262 262
286 286 284 283 282 280 276 282 286 287 285 285 279 272 269 265 265 270 271 271 271 270 269 269 269 268 268 268 268 267 267 266 266 266 266 265 265 265 264 264 264 263 263 263 263 264 264 263 263 262 261 261 261 260
273 271 274 270 275 277 275 271 270 274 275 279 271 269 267 268 268 270 271 271 270 270 269 269 268 268 268 267 267 266 266 265 265 265 265 265 265 264 264 263 263 263 262 262 262 262 262 262 261 261 260 260 260 259

GFSWCAN_925_thetae_018.txt.gz
Theta_e
309 308 308 308 307 307 308 309 310 311 312 314 317 320 316 315 316 319 320 322 315 310 315 317 316 313 313 312 312 312 312 309 302 306 303 303 302 307 309 309 311 310 310 303 300 298 308 305 311 311 309 306 309 307
309 308 308 307 307 308 309 309 310 311 312 313 315 320 319 318 318 317 320 316 316 312 314 316 316 317 317 312 311 309 313 311 309 305 298 300 307 304 305 309 308 310 307 307 306 308 305 305 309 307 306 307 309 308
308 308 308 308 308 309 309 309 310 310 311 312 315 320 319 318 319 320 320 316 316 307 311 313 316 317 318 317 315 312 306 310 308 304 301 299 303 302 306 307 310 308 306 305 308 308 306 305 305 306 307 307 308 307
308 308 308 308 309 309 309 309 309 310 311 312 316 320 320 319 319 320 318 313 311 303 306 312 315 315 316 318 318 314 311 308 304 302 300 302 302 303 302 305 306 307 307 308 306 307 307 307 307 306 306 307 307 306
308 308 309 309 309 309 309 310 310 310 310 312 317 318 318 318 318 318 319 317 313 308 307 306 312 313 315 317 315 314 310 309 306 303 303 305 298 302 301 302 304 307 308 307 308 307 307 307 308 308 308 308 307 306
308 309 309 309 310 310 310 310 310 310 310 311 315 317 317 317 315 312 308 318 315 313 308 310 307 308 312 314 313 312 311 307 307 306 302 302 304 303 308 309 308 308 307 306 308 307 305 306 307 308 308 306 304 299
309 309 309 309 310 310 310 310 311 311 311 311 311 314 316 315 311 308 306 314 316 311 304 308 305 305 307 309 306 307 309 307 307 305 301 302 305 304 302 305 310 308 308 308 307 308 310 308 309 306 305 298 295 294
309 309 309 309 310 310 310 310 311 312 312 313 314 314 314 315 315 314 314 316 314 309 300 304 303 304 306 304 307 304 304 307 307 307 304 304 304 303 310 308 308 309 309 309 308 307 308 306 302 297 296 295 294 296
309 309 309 310 310 310 310 310 311 312 312 313 314 314 312 312 310 312 314 315 313 309 303 301 306 307 304 303 301 302 303 307 304 307 305 308 305 311 308 304 305 305 306 307 307 307 305 300 295 295 296 297 298 296
303 306 308 309 310 310 310 310 311 311 311 310 310 308 304 307 309 311 310 303 302 301 303 303 302 307 309 301 304 303 301 307 312 305 306 307 308 304 298 297 297 298 300 304 307 301 296 297 298 298 297 297 296 295
303 303 304 306 307 308 309 309 310 310 309 309 302 302 308 308 307 299 302 303 306 307 304 303 303 306 303 308 307 299 307 303 311 307 309 308 307 298 297 297 296 296 297 297 297 297 297 297 297 296 295 294 293 292
302 303 304 305 305 306 308 309 310 309 308 308 306 306 306 300 301 305 304 303 306 308 301 304 303 305 300 299 305 302 306 304 310 303 307 308 299 298 297 297 297 297 297 296 296 296 296 296 296 295 294 292 291 291
300 300 301 302 304 306 308 309 309 308 307 306 302 298 304 300 309 304 310 308 307 300 299 300 303 299 300 300 302 304 308 308 301 306 308 304 302 300 298 297 296 295 294 294 294 294 294 293 292 290 289 289 290 290
299 299 299 300 301 303 304 305 306 305 306 300 303 307 304 305 302 301 302 302 297 297 298 298 299 301 298 303 301 308 303 302 307 306 303 300 299 296 295 295 296 293 291 292 291 291 290 290 290 291 291 291 291 291
299 298 299 298 299 300 301 302 301 301 299 299 298 302 299 297 296 296 296 297 295 295 297 299 299 300 301 302 300 301 298 298 297 296 300 297 295 295 294 294 291 291 289 290 291 291 290 290 290 291 291 291 291 291
298 298 297 297 298 299 300 300 299 298 296 296 297 299 297 299 298 298 297 298 295 296 295 297 301 301 300 301 300 300 298 295 294 297 297 295 294 294 294 293 292 293 293 292 292 292 291 291 290 290 291 291 291 291
297 296 296 296 297 298 299 299 298 292 292 297 298 296 297 298 298 297 296 296 296 297 300 299 296 298 297 298 299 299 298 297 298 297 295 295 294 294 293 293 293 292 292 291 290 290 290 290 290 290 289 290 290 291
294 295 296 296 297 297 297 296 291 293 297 295 297 295 294 294 296 296 294 293 291 296 296 297 294 293 293 295 294 296 296 295 293 293 294 294 294 293 292 291 291 290 290 290 290 289 289 289 287 287 286 286 286 286
293 294 295 296 297 296 291 294 292 293 295 294 293 292 293 292 291 292 292 292 291 289 288 286 288 291 292 291 291 294 294 290 296 294 291 290 291 290 290 290 290 289 288 287 286 285 285 285 284 284 283 283 283 284
292 293 294 295 296 295 292 290 293 293 295 294 292 293 292 292 291 292 293 293 289 288 290 290 290 289 289 288 288 288 288 287 288 287 287 287 288 287 286 286 285 285 284 284 283 282 281 281 280 280 279 279 281 281
292 292 293 294 294 294 290 291 293 293 294 294 292 292 292 291 292 293 294 291 294 293 292 288 285 286 289 288 289 290 289 290 287 286 286 286 285 284 283 282 281 281 280 280 280 279 278 277 277 276 275 275 275 276
291 292 292 292 290 289 289 291 292 291 293 293 292 292 292 292 292 292 290 293 293 290 291 287 289 290 290 288 286 286 286 286 285 285 285 284 282 281 280 279 278 277 277 275 275 275 274 273 273 272 272 273 273 274
291 291 291 290 284 284 289 291 287 290 290 292 292 293 292 291 291 289 290 292 291 289 288 289 288 287 285 284 283 282 282 282 281 281 281 280 279 279 277 275 273 272 272 272 271 272 271 270 270 270 270 270 270 271
291 289 289 290 290 290 286 283 291 289 285 286 288 291 290 289 286 289 291 290 290 287 287 288 287 286 285 283 281 280 280 280 279 278 279 279 278 276 275 273 271 270 269 268 268 268 269 268 268 268 268 268 269 269
283 283 286 289 289 290 286 283 289 292 284 280 287 284 287 283 287 289 289 289 286 285 284 286 286 285 284 282 280 277 277 278 278 276 274 274 273 273 272 271 270 269 267 267 266 266 267 267 267 267 267 267 267 267
286 284 287 285 282 289 280 283 285 287 283 286 286 286 282 284 286 290 287 284 284 283 282 283 283 282 281 280 278 276 275 276 277 274 271 271 270 269 267 266 266 267 266 265 265 265 265 266 265 266 267 268 268 268
283 281 283 286 288 288 287 285 288 290 291 291 288 287 289 291 289 285 283 280 281 279 279 280 281 280 277 275 273 273 274 275 275 273 270 270 269 268 267 266 265 265 265 265 266 265 265 265 265 266 266 267 267 267
284 285 285 283 285 287 288 284 286 289 290 289 289 289 288 286 283 280 279 278 277 277 276 276 276 275 273 272 272 272 273 272 271 270 269 268 268 267 267 266 265 265 265 265 265 265 265 265 265 266 266 267 266 265
284 283 283 283 281 282 284 285 286 287 287 287 284 283 280 276 273 274 275 275 276 276 273 272 272 272 272 272 271 270 270 271 271 261 261 258 266 267 266 265 265 265 264 264 265 265 265 265 265 265 265 265 264 264
282 280 278 275 281 284 283 284 282 284 282 281 279 277 275 273 272 273 274 274 273 271 271 271 272 272 271 271 269 269 268 268 268 267 260 259 266 265 265 265 264 264 264 264 264 264 265 265 265 264 264 264 263 262
286 286 287 285 287 283 284 284 286 286 284 278 276 274 273 270 271 271 272 271 271 271 271 270 269 269 269 269 268 268 268 267 266 266 266 266 266 265 265 264 264 263 263 263 263 263 263 263 263 262 262 261 261 260
283 279 277 281 280 275 274 275 273 283 281 282 273 269 265 266 265 269 270 270 270 269 269 268 268 268 268 267 267 266 266 266 265 265 265 265 265 264 264 264 263 263 262 262 262 262 262 262 261 261 260 260 260 259
273 273 275 275 278 280 273 268 267 270 276 276 268 266 265 267 268 269 270 270 269 269 268 268 268 267 267 267 266 266 265 265 265 265 265 265 264 264 264 263 263 262 262 262 262 261 261 261 260 260 260 259 259 258

GFSWCAN_925_thetae_024.txt.gz
Theta_e
300 300 300 302 305 306 307 309 308 307 308 309 310 310 312 313 313 320 318 316 323 324 319 320 318 320 320 323 327 319 320 319 319 328 330 324 328 318 317 315 319 321 323 325 317 326 326 310 314 318 316 316 315 315
301 302 307 307 308 308 307 307 308 308 309 310 310 312 313 313 313 320 319 316 318 323 322 318 317 317 319 320 322 319 324 321 322 325 322 320 321 314 321 323 313 319 319 320 318 319 313 312 315 315 314 315 315 315
307 308 307 307 307 309 309 310 310 310 312 313 313 314 314 312 313 318 318 317 319 322 320 322 321 317 316 317 316 323 319 319 318 317 320 321 323 319 323 322 318 315 313 317 315 314 314 313 312 312 312 313 313 313
307 307 308 309 310 311 311 312 312 313 314 315 315 314 314 313 314 317 318 315 317 320 318 322 315 316 314 317 317 316 317 313 313 316 321 316 326 314 320 317 318 316 313 315 315 314 314 313 313 312 313 313 314 314
308 309 309 310 310 311 311 313 316 318 318 318 316 315 314 313 314 316 315 313 315 317 321 322 315 313 314 314 314 314 315 317 318 320 319 325 314 316 311 313 317 313 315 318 318 314 314 314 313 313 313 314 314 314
309 309 309 310 310 311 313 315 316 318 317 316 314 314 314 314 315 315 321 314 313 313 324 325 313 314 314 315 316 316 316 317 318 321 317 313 309 316 318 320 314 312 312 312 314 314 314 314 313 311 312 307 306 305
309 310 310 310 311 311 312 315 316 316 317 315 315 316 317 315 314 316 317 314 311 310 321 320 321 312 310 314 312 316 316 317 319 315 311 314 315 315 313 322 310 307 307 308 309 312 315 310 309 304 303 302 301 300
310 310 310 311 311 312 312 313 315 315 314 315 315 314 313 314 315 316 309 310 309 311 317 318 316 319 311 315 313 309 314 316 313 311 309 312 310 313 319 307 305 304 305 310 305 306 307 303 303 303 302 300 298 296
310 310 310 311 311 311 313 313 313 312 310 311 311 311 311 312 317 315 310 311 309 314 318 310 322 320 309 308 308 310 311 313 310 315 314 315 312 313 304 302 302 301 302 304 303 303 303 303 300 299 297 296 295 295
309 309 310 310 311 311 311 312 312 311 310 309 309 313 315 310 308 308 311 316 314 311 310 307 308 313 311 311 310 312 310 312 315 314 309 315 305 300 299 299 299 300 302 304 304 300 299 298 297 296 296 296 296 296
308 309 310 310 310 311 310 311 311 311 309 309 312 312 309 307 310 310 311 313 313 311 308 307 310 311 307 313 311 307 312 310 316 314 315 313 306 300 299 298 298 299 299 298 298 297 296 297 297 297 297 297 296 295
306 307 308 309 310 311 311 310 310 310 308 309 310 307 306 308 311 310 309 308 311 311 306 310 308 308 306 306 310 307 312 309 317 309 313 313 301 299 298 298 298 297 298 298 297 297 296 296 296 296 295 294 292 291
305 306 306 307 308 308 310 310 309 308 307 307 307 305 311 307 313 318 313 312 311 304 302 304 306 305 306 306 307 310 314 314 307 312 312 305 300 298 297 298 297 296 296 295 294 294 293 293 292 292 292 291 290 292
304 305 305 305 305 306 306 306 308 309 308 305 309 308 310 311 305 306 308 307 299 300 302 305 304 309 304 306 307 314 304 305 312 313 309 301 299 298 296 297 296 295 292 293 294 293 292 291 291 290 289 289 289 290
299 301 305 304 304 306 308 306 306 305 300 302 304 304 303 299 299 298 297 298 297 297 300 303 304 307 306 307 305 306 308 310 309 309 302 299 297 297 297 296 295 294 291 294 294 291 290 290 291 291 290 288 287 286
297 298 298 298 299 300 304 306 302 299 296 299 300 302 299 301 300 299 298 298 297 297 298 300 304 308 306 307 309 310 309 309 305 302 298 297 296 296 296 294 295 295 294 293 292 292 290 289 289 289 287 285 284 284
295 294 296 297 298 298 299 298 296 297 299 300 300 296 297 299 299 298 297 297 295 299 303 305 308 305 303 306 306 305 306 304 301 299 297 296 296 296 296 296 292 292 292 292 290 289 288 286 285 285 284 283 282 283
293 294 296 297 297 297 296 295 297 298 298 297 299 297 297 296 298 297 296 295 299 300 301 302 301 304 306 306 305 303 299 298 297 296 296 295 294 295 295 293 292 291 290 288 287 286 284 284 285 284 281 280 281 281
292 295 296 296 297 297 297 295 296 298 297 296 296 295 295 296 295 294 294 294 294 296 299 299 303 303 303 302 302 297 297 297 297 294 291 291 292 292 291 290 288 287 286 285 285 284 283 281 281 280 279 278 278 278
291 293 294 296 296 296 296 296 295 296 297 296 295 294 294 295 294 295 296 296 297 299 300 300 300 298 299 297 296 298 297 298 295 293 290 289 290 289 289 288 287 285 284 283 281 280 280 280 278 277 276 275 275 275
291 291 293 294 294 293 292 294 295 295 296 295 294 295 295 295 295 296 296 294 300 296 296 294 294 292 290 291 291 294 294 293 293 293 292 289 287 286 284 283 282 281 281 281 280 278 277 277 275 274 273 274 273 273
290 290 291 292 292 292 293 292 294 294 296 296 296 295 296 297 296 296 294 297 295 293 293 293 293 292 290 288 287 288 288 288 288 287 286 285 285 283 282 281 281 279 278 277 276 275 275 273 271 271 272 271 272 272
290 289 289 289 292 293 291 292 294 293 295 294 294 295 296 295 294 292 295 294 292 289 289 289 287 287 286 285 284 284 285 286 285 284 283 281 280 279 277 276 276 276 276 273 272 272 271 269 270 269 270 270 271 271
288 287 289 291 291 290 289 291 291 292 293 292 294 294 293 293 292 294 293 290 286 286 287 288 286 286 284 282 282 281 281 281 281 280 280 280 279 277 276 274 272 271 270 270 270 270 269 269 268 269 269 269 269 270
290 288 289 290 289 290 289 289 291 292 293 291 293 293 292 291 293 292 290 286 286 285 284 285 285 284 283 282 280 278 277 279 278 277 275 276 276 275 274 272 271 269 268 269 269 268 268 268 268 268 268 268 268 268
289 289 290 290 290 291 290 292 291 292 291 292 292 290 291 293 291 288 285 284 284 282 281 281 283 282 279 278 278 277 275 275 276 275 273 272 272 273 272 272 272 271 267 267 267 266 267 266 266 266 267 268 267 267
290 289 289 288 289 289 291 290 290 292 292 293 292 292 292 292 289 285 282 279 280 277 276 276 278 277 276 275 273 272 272 273 273 272 270 269 269 268 268 269 268 267 266 265 264 265 265 265 265 266 266 267 267 266
289 289 289 288 290 289 290 290 291 291 291 290 291 290 290 288 286 280 279 277 276 275 274 273 272 272 272 272 272 272 271 270 270 269 269 268 267 266 266 265 265 265 264 263 263 263 264 264 265 266 266 265 265 264
289 288 288 285 287 289 289 290 290 289 287 288 290 286 282 277 275 275 275 274 275 275 275 274 272 271 270 269 269 269 269 270 271 271 272 272 270 269 266 265 264 264 263 263 263 263 263 264 264 263 263 263 262 262
289 287 288 285 287 289 289 287 288 286 283 282 280 278 276 274 271 271 272 273 273 272 270 269 269 271 270 271 270 269 267 266 266 267 269 269 268 266 265 264 264 263 262 262 262 262 262 262 262 263 262 262 262 261
287 288 288 287 288 287 284 281 283 283 281 279 277 279 276 274 271 269 269 268 269 269 270 270 269 268 269 269 269 269 269 266 265 265 265 264 264 264 264 263 263 262 262 261 261 261 261 261 262 262 262 261 260 259
285 283 285 286 287 282 280 283 283 285 283 281 277 275 274 275 274 271 268 269 270 270 268 268 269 268 267 267 266 266 266 265 264 264 264 264 263 264 263 263 263 263 262 261 261 261 260 260 261 261 260 260 259 258
283 282 283 284 284 285 281 280 279 281 280 278 275 274 273 274 273 270 268 268 268 268 267 267 267 267 267 266 266 266 265 265 264 264 264 264 264 264 264 262 262 262 262 261 261 260 260 260 260 260 259 258 258 257

GFSWCAN_925_thetae_027.txt.gz
Theta_e
298 298 299 298 298 300 300 300 301 303 305 306 307 310 309 309 310 310 324 322 322 323 321 321 319 319 320 324 329 324 324 323 324 329 335 330 332 324 322 319 322 323 327 326 326 325 325 314 315 317 319 315 315 316
297 296 297 300 299 299 300 301 302 303 306 309 310 308 309 310 310 312 323 322 325 324 324 322 321 321 321 322 324 323 324 325 325 327 331 331 326 320 326 323 318 323 322 323 321 321 317 314 314 314 315 315 315 315
299 299 299 299 300 303 304 306 307 309 308 307 308 309 310 310 312 315 323 324 323 326 324 323 323 320 320 322 322 325 326 324 325 326 327 329 327 326 326 326 323 319 317 319 318 315 314 314 314 314 314 315 315 315
299 302 305 305 305 307 307 308 307 307 308 308 309 310 310 312 313 315 321 323 323 325 326 325 319 320 318 320 320 323 324 322 323 324 329 320 327 322 327 323 321 319 317 317 318 316 315 315 315 315 315 316 316 316
307 307 307 307 307 308 309 309 309 309 309 310 310 311 313 313 313 316 319 317 320 322 325 325 319 317 318 319 319 319 321 322 323 326 322 330 322 323 320 320 322 317 318 320 320 317 317 317 317 315 316 315 313 313
309 310 310 310 311 312 312 312 312 313 313 313 313 313 313 313 313 318 323 316 314 321 326 327 319 319 319 319 319 320 322 322 323 327 324 320 316 323 325 323 318 315 314 313 317 315 316 316 312 310 309 308 307 306
310 311 311 312 314 314 314 316 318 318 317 315 314 314 314 313 314 319 318 317 314 319 324 325 324 318 317 319 319 321 321 322 324 323 321 322 319 320 320 325 315 311 310 312 311 313 317 310 310 308 306 303 300 298
311 311 310 312 313 314 313 313 314 316 317 316 314 314 313 314 313 317 308 310 313 316 321 323 322 323 317 322 320 317 321 323 319 316 315 319 317 320 324 313 310 308 311 309 308 309 308 308 306 304 301 299 298 297
311 311 311 311 310 310 312 313 313 312 312 312 313 314 314 317 320 315 309 313 311 317 322 313 322 321 315 314 314 315 318 320 315 318 318 319 315 320 309 308 307 306 308 308 307 307 304 303 300 299 299 298 298 298
311 310 311 311 310 310 310 309 309 312 313 313 315 316 320 314 309 311 313 319 318 315 314 313 315 320 316 315 314 314 314 317 317 315 314 319 309 302 301 302 303 304 306 305 302 301 300 299 299 299 300 298 298 298
310 310 310 310 310 310 310 311 310 310 311 316 318 314 310 308 314 315 315 318 318 317 311 310 315 315 311 317 312 311 315 314 317 317 317 316 311 302 300 301 301 301 301 302 301 299 300 300 299 299 298 297 296 294
309 310 310 310 310 310 309 310 309 310 310 312 313 310 310 313 315 314 313 312 315 314 308 311 310 310 309 310 312 312 312 312 320 313 319 315 303 300 299 300 300 300 300 300 299 299 298 298 297 296 294 294 293 293
308 308 308 309 309 310 310 309 309 308 310 311 312 308 314 311 317 312 316 312 310 307 305 309 309 310 308 310 311 312 316 317 312 315 314 307 301 299 299 300 299 298 298 298 297 295 294 294 293 293 293 292 293 293
306 307 306 306 306 308 310 311 310 309 309 309 312 311 312 311 307 306 308 307 300 302 307 309 307 311 308 309 311 312 306 310 313 316 314 302 300 298 299 299 298 296 295 296 295 294 293 293 293 291 290 290 289 290
304 305 307 307 306 305 306 307 310 308 301 304 305 306 304 300 299 298 298 300 299 300 305 309 308 311 309 311 311 309 309 314 313 312 305 299 298 299 298 298 297 295 293 296 295 292 292 293 293 292 289 288 286 286
299 301 299 299 301 303 302 304 302 300 299 300 301 302 300 302 301 299 299 299 297 299 300 307 309 312 309 310 309 315 314 314 308 304 300 298 297 298 298 297 296 297 296 295 294 293 291 290 291 290 287 285 284 284
298 297 297 298 298 300 299 298 298 299 300 302 301 297 300 299 299 298 297 297 295 300 304 306 312 309 306 309 309 308 310 306 302 300 298 297 297 298 297 296 294 294 294 294 293 292 290 288 286 286 286 284 284 283
296 296 297 297 297 298 296 298 300 299 300 300 301 299 298 297 299 298 298 298 302 303 303 305 304 308 311 309 308 304 301 299 297 297 297 297 297 296 296 296 294 294 293 291 289 288 287 287 287 286 284 282 282 282
294 295 296 297 297 299 298 297 298 299 299 298 298 297 298 298 297 296 297 298 299 300 302 303 308 306 306 303 301 299 299 298 296 294 294 293 294 295 294 293 291 291 290 289 288 287 285 283 283 282 281 280 280 280
293 294 295 297 299 298 297 297 297 298 298 297 297 297 297 297 297 297 297 299 300 301 299 299 298 296 296 295 297 298 298 296 295 294 294 294 293 293 291 291 291 289 287 284 283 283 284 283 281 279 278 277 278 278
292 292 294 297 296 295 294 296 297 297 297 297 296 297 297 297 298 298 298 299 300 297 297 296 295 294 292 292 293 295 295 297 298 298 296 293 291 290 288 287 286 286 286 285 284 282 281 280 278 277 276 277 275 276
291 290 294 294 296 295 295 294 296 296 297 297 297 297 298 299 299 297 297 298 294 292 293 293 291 293 290 289 289 289 290 290 290 290 290 290 289 288 286 285 284 283 281 280 279 279 278 276 274 274 275 274 275 275
291 292 293 294 295 295 293 293 295 295 296 295 296 296 296 296 295 295 296 294 290 288 289 288 287 287 287 286 285 284 285 287 287 286 285 284 282 281 280 280 280 280 279 276 275 275 275 272 273 272 274 273 274 274
289 290 292 293 294 293 292 293 293 294 295 294 295 295 293 294 294 295 293 289 288 287 287 288 288 289 287 285 283 282 282 282 281 282 283 282 280 279 278 276 275 274 274 274 274 274 273 273 272 272 272 272 273 272
294 291 294 293 294 294 294 294 294 295 294 294 294 294 293 293 295 293 291 288 286 285 285 286 285 285 286 284 282 279 279 280 280 279 278 279 278 277 276 275 273 272 272 273 273 272 272 271 271 271 270 271 271 270
292 291 292 292 293 294 293 294 293 293 293 294 293 293 293 294 293 291 288 285 284 283 282 282 284 284 282 280 280 279 277 278 278 276 274 274 275 276 276 276 276 274 270 270 270 270 270 270 269 269 269 270 270 270
292 292 291 289 290 291 293 292 292 293 293 293 293 293 294 294 292 286 283 281 281 279 278 278 279 280 279 278 276 275 275 274 275 274 272 272 271 271 271 272 271 270 268 268 268 268 268 268 268 268 269 269 269 269
290 290 292 290 291 292 292 292 292 292 292 291 292 292 292 291 288 282 280 279 278 278 277 276 275 275 275 275 275 275 275 273 272 272 272 272 271 270 269 269 268 266 266 266 265 265 266 266 267 268 268 268 267 267
291 290 290 289 291 291 291 291 290 290 289 290 291 290 285 280 277 278 277 277 277 278 278 277 275 274 274 273 272 272 272 272 274 274 274 275 273 272 269 268 268 267 267 266 266 266 266 265 266 266 265 265 266 266
289 289 291 289 290 291 289 288 289 287 285 285 283 281 279 277 274 274 275 275 275 274 274 273 274 274 274 275 273 272 270 269 268 269 271 271 270 268 268 267 267 267 266 266 265 265 265 265 265 266 266 266 266 265
289 290 289 289 289 288 287 285 286 285 284 283 282 283 280 276 273 272 272 272 273 273 274 273 272 272 272 271 271 272 272 269 266 266 265 265 266 267 267 267 266 266 265 265 265 265 265 264 265 265 265 265 264 263
288 287 288 288 289 286 285 286 286 288 285 284 281 279 278 279 277 273 270 272 273 273 270 271 272 271 269 269 268 268 267 266 267 266 265 265 265 266 266 265 265 265 265 264 264 264 264 264 264 264 264 264 263 261
286 286 286 286 287 287 286 285 285 284 283 282 279 279 278 278 276 272 269 269 270 270 270 269 269 269 267 267 267 266 267 266 265 264 263 263 263 262 262 263 264 264 264 264 264 264 264 264 263 263 262 262 261 260

GFSWCAN_925_thetae_030.txt.gz
Theta_e
296 297 296 297 298 299 298 297 297 298 299 301 302 302 301 301 302 302 309 312 320 325 324 324 322 322 324 328 330 327 326 326 332 332 337 336 334 330 325 321 324 325 330 325 330 325 326 315 315 317 321 318 317 316
296 296 295 295 296 297 298 298 298 300 301 302 302 303 302 304 303 306 311 313 315 324 327 324 322 322 323 325 329 326 328 326 328 331 335 337 325 321 330 329 319 325 325 330 326 326 320 316 315 315 316 316 316 317
298 298 298 298 298 298 298 300 300 300 300 300 303 303 304 306 307 309 311 313 318 327 325 324 325 322 322 324 325 329 329 326 328 329 333 333 322 332 326 332 327 320 319 324 322 316 316 316 315 315 316 317 316 317
297 296 296 296 297 298 299 299 299 300 303 303 304 304 305 308 310 310 311 313 323 326 323 326 321 321 320 322 324 326 328 328 330 331 335 321 326 327 333 328 328 322 320 319 319 318 317 317 318 318 317 317 315 315
298 298 298 298 297 298 298 299 300 302 304 305 307 308 310 309 309 310 311 315 320 323 325 325 320 320 320 322 322 324 327 329 330 329 317 333 328 329 326 326 329 320 319 326 326 319 319 319 314 314 312 311 310 310
297 299 299 299 299 300 302 304 304 304 307 308 308 308 308 310 310 311 322 320 320 323 327 328 320 321 320 321 321 324 325 327 327 330 328 325 320 328 325 329 319 316 316 315 318 315 316 314 311 309 306 305 304 304
306 307 307 307 307 307 307 307 307 308 308 308 308 309 310 311 311 318 318 316 320 322 327 323 322 319 321 321 322 322 323 325 326 327 328 325 321 324 320 330 317 313 312 314 312 313 313 312 310 306 303 301 300 299
305 306 306 306 309 310 309 309 308 308 309 309 309 311 312 312 314 317 311 313 315 319 325 322 317 323 319 325 323 320 326 325 322 320 320 326 319 326 327 316 312 311 312 310 310 310 309 306 304 303 301 300 299 298
308 309 308 308 307 308 309 312 312 311 311 311 312 312 313 315 320 315 312 316 315 318 324 314 322 321 318 317 316 318 321 320 317 319 323 321 318 322 315 312 310 310 311 309 307 306 304 303 302 301 300 300 299 299
310 308 310 309 310 309 308 309 311 313 312 312 313 316 315 316 311 312 315 319 321 319 316 316 318 321 317 316 315 316 316 317 318 317 316 318 311 305 305 306 306 306 308 305 304 303 302 301 300 300 299 299 297 297
310 310 309 309 310 310 311 311 311 312 313 317 320 314 312 311 315 316 314 317 317 318 311 313 317 318 313 317 313 313 314 316 319 318 318 316 313 304 303 303 303 303 305 304 302 301 301 300 299 299 298 296 294 294
309 309 309 310 309 309 310 311 312 313 314 315 314 312 312 314 315 312 314 312 315 315 308 312 312 311 311 313 313 313 312 314 319 313 317 317 307 302 302 302 302 302 301 301 300 299 299 298 297 296 295 294 294 292
308 309 309 309 310 310 310 309 310 311 312 311 311 308 313 309 313 318 315 314 311 306 305 309 309 310 309 310 311 312 312 318 314 315 314 309 302 301 301 301 301 300 300 299 298 297 295 294 294 294 292 292 293 292
306 306 309 309 307 309 310 310 309 309 309 310 309 308 308 310 305 305 306 305 300 301 305 307 308 310 308 308 311 311 307 310 314 314 314 303 301 300 301 300 299 298 296 296 295 294 294 293 291 290 290 289 287 287
305 306 305 303 306 309 310 310 310 307 303 304 305 306 303 299 299 298 298 300 298 301 305 308 310 310 308 309 310 307 310 313 313 313 305 300 299 300 300 299 296 296 294 296 294 293 293 292 292 290 287 286 285 284
301 303 299 299 300 304 307 309 306 300 299 299 299 302 300 302 300 299 298 299 297 299 303 309 310 310 309 309 310 315 315 314 308 304 299 298 299 299 299 297 296 296 296 295 293 292 291 291 291 288 285 284 284 283
299 297 297 297 299 300 303 300 299 300 300 301 300 296 299 298 299 298 297 297 297 300 305 306 310 308 306 310 309 308 308 305 301 298 298 298 298 299 298 296 296 296 295 295 293 292 290 288 287 286 286 284 284 283
297 297 297 297 300 298 299 299 299 300 299 298 299 298 297 296 298 298 297 299 301 301 302 304 304 307 309 309 308 304 299 297 297 297 297 297 298 297 297 296 295 295 293 292 290 288 288 288 288 286 284 282 283 282
295 297 297 298 299 299 299 299 300 299 299 298 297 298 298 298 298 297 298 301 301 302 303 304 303 303 301 298 299 299 298 297 296 295 294 295 296 296 295 294 292 292 291 290 289 288 285 284 283 282 281 280 281 281
294 295 297 297 299 298 298 298 298 299 299 298 298 297 298 298 298 297 299 301 300 300 298 297 296 294 294 293 293 295 296 295 294 294 294 293 294 293 292 292 291 289 286 285 284 285 285 284 281 280 279 279 279 278
292 294 296 298 296 296 296 298 298 298 298 298 298 298 298 299 299 299 299 299 297 296 296 293 294 292 291 290 288 291 291 293 296 296 296 294 293 292 291 289 289 288 287 286 285 282 281 280 278 277 277 278 276 276
293 294 295 294 296 295 296 295 297 298 298 298 298 298 298 299 298 298 298 294 291 291 292 290 289 290 289 287 287 287 290 289 289 289 290 290 290 288 287 286 285 283 281 281 280 280 279 276 275 275 275 275 275 276
294 294 295 296 294 295 293 294 295 295 295 295 296 296 296 296 296 297 294 291 290 288 289 289 287 287 286 286 285 284 285 286 286 285 284 283 282 281 280 279 281 281 279 277 277 276 276 275 275 274 275 274 274 275
291 292 294 295 296 293 296 294 295 295 294 294 295 295 294 294 295 295 291 289 287 286 287 287 287 289 286 283 282 281 283 283 282 282 282 281 280 279 278 277 276 275 276 276 275 275 275 274 273 274 273 272 273 273
294 292 295 295 296 296 295 294 295 295 294 295 296 295 294 294 295 293 291 289 286 284 284 285 284 284 285 284 282 280 280 280 280 278 278 280 279 278 277 275 274 273 273 274 274 273 273 272 272 271 271 271 271 271
292 291 292 293 293 294 294 294 293 294 293 295 293 293 294 296 294 292 288 286 283 282 281 282 283 283 281 279 279 278 277 278 279 277 275 275 276 277 277 277 277 273 271 271 271 271 271 271 270 270 270 270 270 271
292 292 291 291 292 293 293 293 294 294 294 294 294 294 295 295 292 287 283 281 281 279 279 278 279 279 279 278 277 276 275 274 275 274 274 273 272 272 272 272 271 269 268 269 268 268 268 268 268 269 269 270 270 269
291 291 291 292 292 293 292 292 293 293 292 291 293 293 292 289 286 282 281 280 279 278 277 276 276 276 276 275 276 276 276 275 274 274 274 273 273 272 271 270 269 268 268 268 267 267 267 267 267 267 268 268 267 267
290 290 291 289 292 291 291 291 292 290 288 289 291 290 285 280 278 279 278 278 279 279 278 278 277 276 275 274 273 273 272 272 274 274 275 275 275 272 270 269 269 269 268 268 267 267 267 267 266 266 266 266 266 266
289 290 291 290 291 291 289 288 290 287 285 285 284 282 279 277 275 275 276 276 276 275 275 275 275 275 275 275 274 273 270 269 268 269 270 270 269 268 268 269 268 268 267 267 267 267 266 266 266 266 267 267 267 266
289 290 290 290 290 288 287 286 286 285 285 284 283 283 280 276 274 273 273 274 274 274 275 275 273 272 272 271 271 272 272 270 268 268 266 266 267 267 268 267 267 267 267 266 266 266 266 266 266 266 266 266 265 265
288 287 289 289 290 287 286 287 287 289 287 285 282 281 279 281 278 274 271 273 274 273 272 272 272 271 270 269 270 270 269 268 268 267 266 265 265 265 264 265 265 266 266 266 265 265 265 265 265 265 265 265 264 263
288 288 287 288 288 288 287 286 286 286 285 283 280 280 278 278 275 273 271 270 270 271 270 270 270 270 269 268 268 268 268 268 267 266 266 265 264 263 262 263 263 263 264 264 264 264 264 265 265 265 264 263 263 262

GFSWCAN_925_thetae_033.txt.gz
Theta_e
296 296 296 297 297 297 296 298 298 298 298 300 300 300 301 302 302 301 303 305 310 319 322 321 319 321 322 323 322 323 324 321 321 318 317 316 313 316 319 323 319 316 317 311 315 317 319 315 314 312 316 314 313 313
296 296 297 297 297 297 298 298 297 297 299 299 300 300 301 301 301 302 303 304 306 313 319 320 322 324 324 321 322 320 323 322 323 323 319 315 319 313 317 316 320 319 320 317 317 316 316 313 312 313 312 313 314 314
296 296 297 297 298 298 298 297 297 297 298 299 300 301 302 302 302 302 303 305 309 314 314 320 322 320 324 323 321 321 323 323 324 323 320 318 317 313 313 315 318 319 318 317 316 317 315 313 316 315 315 314 313 308
295 295 295 295 295 296 297 297 298 299 300 300 301 301 302 302 301 301 303 305 311 312 315 323 321 320 321 324 325 325 325 326 324 322 314 311 315 319 313 316 318 317 316 317 316 316 317 315 314 312 310 310 306 304
297 296 297 297 297 297 298 298 299 300 300 301 302 302 302 302 302 303 304 306 311 316 319 321 320 320 321 323 325 326 324 324 321 314 306 314 318 316 314 314 316 316 317 312 313 317 314 312 309 308 307 305 305 303
297 297 297 296 296 296 298 299 300 300 299 300 300 301 303 303 306 307 310 310 310 313 317 316 318 320 321 321 321 322 322 322 323 319 314 317 317 313 311 310 315 313 313 314 315 312 310 307 304 303 303 302 301 300
296 297 297 297 298 298 297 298 299 299 300 303 304 303 304 306 309 311 312 314 312 310 318 314 315 318 319 319 316 318 320 321 321 320 314 315 315 315 308 312 313 312 311 311 311 311 309 307 303 301 300 299 297 297
299 298 298 298 299 299 299 299 300 302 303 304 305 306 307 309 310 311 314 313 314 319 316 314 314 317 318 318 313 314 318 316 314 313 311 311 312 306 310 312 311 311 310 308 306 307 304 302 301 300 299 298 297 297
306 306 304 303 301 300 301 302 303 304 305 306 307 308 309 311 313 315 313 316 315 317 311 307 315 317 315 312 310 313 313 312 314 310 311 311 307 311 312 310 309 309 309 306 304 303 302 301 300 299 298 297 297 296
306 308 309 308 308 307 307 306 307 308 308 309 311 314 311 315 314 313 315 311 310 311 308 310 312 314 314 307 308 308 306 310 315 311 310 310 307 305 304 304 305 306 305 303 301 300 299 299 299 299 298 296 295 294
306 307 307 308 310 309 308 307 308 309 311 314 313 310 311 313 313 308 306 307 308 307 304 308 312 314 310 310 309 306 309 308 312 310 310 311 309 306 305 304 303 303 304 303 301 300 300 299 298 296 295 293 291 290
309 308 308 307 307 308 309 308 311 313 315 314 312 311 311 312 306 306 306 305 308 310 304 308 308 310 306 310 305 307 309 306 314 309 310 312 305 302 302 302 302 302 301 300 300 299 298 297 295 294 293 292 290 288
308 309 310 309 310 309 309 312 313 312 311 310 307 304 310 304 309 310 309 309 308 303 303 304 306 304 305 306 306 308 313 312 305 310 310 305 302 301 301 301 300 300 299 298 296 294 294 293 292 292 291 290 287 285
308 307 308 309 309 309 311 312 310 308 308 304 304 305 306 306 302 302 303 303 299 299 300 303 303 304 302 305 305 309 305 306 311 308 305 302 301 301 300 300 299 297 294 294 293 292 290 290 289 288 287 287 286 285
303 307 308 305 305 309 309 307 307 304 301 300 300 303 301 299 298 298 297 298 297 298 300 303 303 305 305 306 305 306 309 310 309 309 303 300 299 300 298 296 295 293 292 293 293 292 290 289 287 286 285 284 283 282
302 304 299 302 304 308 309 309 302 299 297 298 297 301 299 301 300 298 298 299 297 297 299 300 305 307 307 306 309 310 307 307 305 300 298 298 298 297 296 295 296 295 293 292 292 291 290 288 286 285 284 283 282 281
298 297 298 300 303 305 308 302 298 296 296 298 298 295 297 298 298 297 296 297 296 299 303 302 306 306 303 307 306 303 303 301 298 297 297 297 298 296 295 294 294 294 293 291 291 289 288 287 285 284 283 284 282 281
297 298 298 299 300 300 299 299 297 297 298 297 298 297 296 295 297 296 295 296 298 299 300 302 301 305 302 304 302 300 297 296 295 295 296 297 296 295 296 295 295 293 291 290 289 288 287 286 285 283 281 282 281 280
296 297 298 298 297 297 295 297 298 297 296 296 295 295 296 295 295 296 297 297 298 297 297 298 296 297 296 295 294 296 296 295 295 294 294 295 295 295 295 293 291 290 289 288 286 284 283 282 281 280 280 280 279 278
294 296 296 297 297 296 296 296 298 297 298 296 295 296 296 296 295 295 294 294 295 295 295 295 294 292 292 290 289 291 293 293 294 294 293 293 292 292 292 291 288 285 285 284 284 283 281 279 279 278 278 278 277 276
292 293 293 296 296 296 294 294 296 296 296 297 295 294 295 294 296 295 293 291 291 292 292 290 290 288 288 287 287 289 288 289 290 293 294 293 291 289 289 288 287 286 285 283 282 279 278 277 276 276 276 276 275 276
293 294 292 293 293 293 292 293 295 295 295 296 294 295 296 293 293 294 290 289 289 290 290 288 288 287 286 285 284 285 286 286 285 284 285 286 286 284 285 282 281 279 279 279 279 277 275 275 274 274 275 274 274 275
292 292 293 293 287 287 288 294 290 293 290 294 293 293 293 292 293 292 289 289 288 287 287 287 286 284 283 282 282 283 283 283 283 282 281 281 280 279 278 277 278 278 277 276 276 275 275 275 274 274 273 273 272 273
292 291 291 291 289 292 288 289 292 293 293 293 293 292 293 290 291 288 289 287 285 284 284 285 286 285 282 281 280 280 281 280 280 280 280 279 278 277 276 275 275 275 276 275 274 274 273 273 272 272 271 271 271 271
287 287 289 287 289 288 286 289 288 292 294 292 290 289 292 290 287 290 288 286 281 280 281 282 281 280 282 280 279 278 277 278 278 276 275 278 277 276 275 274 272 272 272 272 271 271 271 271 270 270 270 270 270 270
289 290 289 291 291 292 292 292 293 293 293 291 292 292 289 291 287 285 285 282 278 279 278 279 281 279 278 277 277 276 275 277 276 274 274 274 274 275 275 274 272 269 269 269 269 268 268 268 268 268 268 268 269 269
291 291 291 290 292 292 293 293 291 289 290 289 291 291 287 291 284 284 281 280 279 278 277 277 278 278 277 277 276 275 274 274 274 273 273 272 271 271 271 270 269 268 268 268 267 267 267 267 267 266 266 267 267 267
290 290 291 290 291 291 291 291 291 290 290 290 289 285 285 284 281 280 279 279 279 277 276 275 275 275 274 274 273 273 273 274 274 274 273 271 271 270 269 269 269 268 268 268 267 267 267 267 266 266 266 266 266 266
289 290 286 281 284 289 289 290 288 288 286 288 286 282 280 278 277 278 277 277 276 276 276 276 276 274 273 273 272 271 270 271 271 266 265 265 270 268 268 268 269 268 267 267 267 266 267 267 267 266 266 266 267 266
287 288 285 283 282 287 287 287 287 285 284 284 280 278 277 275 274 274 274 275 275 274 274 274 273 272 271 272 271 269 269 268 268 268 263 262 266 267 267 267 267 267 267 267 266 266 266 265 265 265 265 265 265 265
288 287 284 284 284 284 286 286 286 285 283 281 278 276 274 273 273 272 272 273 273 273 273 271 270 270 270 270 269 269 269 268 267 267 266 266 265 265 265 265 265 265 265 266 266 266 265 265 265 265 265 265 265 264
284 284 281 283 286 282 285 285 284 286 283 281 275 273 272 275 271 271 271 272 271 271 271 270 270 269 269 268 268 268 268 267 267 267 266 266 265 265 264 263 263 263 264 264 264 264 264 264 264 265 265 264 263 263
284 283 282 281 282 284 282 279 283 281 278 277 275 276 273 271 270 272 271 270 269 269 269 269 269 269 269 268 267 267 267 267 266 265 265 265 264 264 263 263 263 263 262 262 262 262 262 262 263 263 263 263 262 261

GFSWCAN_925_thetae_036.txt.gz
Theta_e
296 296 297 297 297 297 297 297 297 297 297 297 298 298 298 298 299 302 304 305 306 312 313 317 316 313 315 319 319 320 322 320 317 317 317 312 310 316 316 318 315 314 313 309 313 311 315 314 312 313 310 312 311 312
296 296 297 297 297 297 297 297 299 300 299 298 298 298 298 299 301 303 304 305 305 307 312 311 312 314 316 317 319 318 321 321 320 321 316 312 314 307 313 318 317 316 313 313 314 313 312 311 313 311 311 313 313 313
296 297 297 296 297 296 297 298 298 299 298 299 300 299 299 302 303 303 304 304 305 307 310 314 318 320 321 320 321 319 318 320 323 318 317 314 314 309 312 311 316 316 317 317 316 316 316 314 312 311 311 308 305 306
296 296 296 297 297 298 298 297 298 298 299 299 301 301 301 301 302 302 304 306 306 312 310 317 320 319 321 321 321 320 320 322 321 316 311 311 313 314 308 313 314 315 314 315 315 316 314 311 309 307 305 303 302 301
295 295 295 297 297 297 297 297 297 297 300 300 300 300 300 302 302 302 302 305 308 311 313 313 315 319 321 323 324 321 322 320 317 314 306 311 313 314 309 310 314 313 314 312 311 314 312 310 306 305 305 303 301 299
296 296 295 295 296 297 297 297 297 299 299 300 300 300 301 301 301 301 304 302 303 306 313 313 315 318 319 322 322 323 321 319 318 316 314 314 315 310 308 307 313 312 312 313 314 310 307 304 302 301 300 299 298 297
297 296 296 296 296 297 297 297 298 300 301 301 301 301 301 302 302 305 308 310 306 306 312 310 313 317 318 317 313 317 319 318 318 317 313 312 314 310 304 311 312 310 310 308 306 305 304 304 301 299 297 297 296 295
297 298 298 298 297 297 297 298 299 299 299 299 299 300 301 303 302 305 310 313 311 310 312 312 316 314 315 313 313 312 314 315 314 313 308 308 311 303 310 311 310 307 306 307 305 305 302 300 298 297 296 296 295 295
296 296 296 296 297 297 297 297 298 298 299 300 302 301 303 306 310 307 308 310 311 312 312 306 315 317 311 309 307 308 307 311 310 307 308 309 308 309 309 309 308 307 307 303 302 301 300 298 297 297 296 295 295 293
300 298 297 297 297 297 298 298 298 300 301 304 304 306 307 309 311 307 309 311 310 308 306 308 309 313 312 304 306 304 303 308 310 309 309 307 307 304 303 303 305 304 302 301 300 299 298 297 297 297 296 294 293 291
305 304 303 301 299 299 300 300 302 303 304 306 310 308 309 309 312 309 307 307 307 306 304 307 308 313 308 308 308 303 307 307 315 311 311 310 308 305 304 304 304 303 303 303 301 298 298 298 296 295 293 291 289 288
308 308 305 304 303 302 302 302 303 306 310 312 311 310 311 308 304 307 305 305 307 308 304 307 308 310 306 308 308 306 309 305 312 307 311 311 306 305 305 304 304 302 301 300 299 298 297 295 294 292 290 288 288 288
306 307 308 307 306 306 307 307 308 312 311 308 305 302 307 301 307 308 308 308 306 302 302 303 306 303 304 305 304 303 304 308 301 309 310 305 303 302 302 301 300 298 297 296 296 295 294 293 291 289 287 286 286 285
306 306 308 308 308 308 309 309 309 306 305 300 302 303 304 303 301 301 303 303 299 299 301 301 303 304 301 307 304 309 306 305 308 308 306 302 302 301 300 299 296 296 294 294 292 291 290 289 288 288 286 285 284 283
305 307 307 307 309 309 309 307 305 303 298 299 300 301 300 299 298 298 297 298 297 297 300 303 303 304 304 306 304 305 308 309 305 302 302 300 299 298 297 295 294 292 292 292 290 289 288 287 286 285 285 284 283 281
306 304 300 302 306 307 307 307 301 299 296 296 297 300 299 300 299 298 298 299 297 297 297 301 303 305 306 305 308 308 306 307 303 300 298 298 296 295 295 294 294 293 292 291 290 288 287 286 285 284 282 282 282 281
301 299 300 300 303 304 305 300 297 295 296 296 297 296 297 298 298 297 296 297 296 299 303 300 304 305 302 305 303 302 300 299 297 297 297 296 295 295 295 293 292 292 292 291 290 288 286 285 284 283 282 281 281 281
297 298 299 300 304 304 298 297 295 295 297 296 297 296 296 295 296 296 295 296 297 298 299 301 299 299 297 298 297 297 296 295 295 295 296 295 294 293 294 294 292 292 291 289 288 287 285 284 283 282 283 281 280 280
296 297 297 298 298 298 295 297 296 297 296 295 295 294 294 295 293 291 292 294 294 294 296 295 294 294 293 291 291 291 294 294 295 294 294 294 294 294 294 291 290 290 289 287 285 283 282 281 280 280 280 279 278 278
294 295 296 297 297 294 295 295 296 296 297 296 295 296 295 295 293 291 290 290 293 292 292 292 290 289 289 287 287 289 289 292 294 294 293 292 291 291 290 288 286 286 284 282 281 280 279 279 278 278 278 276 276 276
292 292 294 295 295 294 291 292 295 294 295 296 294 294 294 292 290 289 288 288 289 290 289 289 287 286 285 285 284 286 285 285 286 290 293 289 287 286 285 284 285 283 282 280 279 277 277 276 276 276 275 275 275 276
292 293 292 292 288 288 289 291 292 291 293 293 292 292 289 289 290 289 287 287 287 287 288 287 285 283 283 283 283 282 283 283 282 281 281 281 282 282 281 280 279 279 278 278 276 276 275 274 274 274 274 273 273 274
292 293 292 288 284 284 285 290 287 290 289 290 289 290 290 290 292 288 287 287 285 283 284 283 282 281 281 280 280 280 280 281 281 280 279 278 277 277 277 277 277 277 276 276 275 275 274 273 273 273 272 272 272 271
293 288 286 287 286 287 281 288 290 292 291 291 288 292 292 291 287 284 285 283 282 281 281 282 283 281 279 278 277 277 278 277 277 276 278 277 276 275 274 273 273 273 273 273 272 272 272 271 271 270 270 270 270 270
285 284 282 282 282 284 281 282 284 287 286 284 283 285 288 284 284 282 283 282 279 277 277 279 278 278 278 276 276 275 276 276 275 274 274 276 275 274 272 271 270 270 270 270 269 269 269 269 268 268 268 268 268 269
289 288 287 290 290 291 290 289 290 291 285 285 287 286 285 281 278 280 282 278 275 277 275 276 277 276 276 275 274 274 274 275 274 273 272 273 273 274 272 271 269 268 268 268 267 267 267 267 266 266 266 266 266 266
290 287 289 289 290 288 286 285 285 282 281 284 283 281 280 279 278 281 280 279 278 276 276 276 276 276 275 274 274 274 274 273 273 271 271 270 270 269 269 269 268 268 268 268 267 267 267 266 266 266 266 266 266 266
289 289 289 287 287 284 283 280 279 283 282 286 284 279 276 276 277 278 278 276 276 276 275 274 274 273 271 270 270 272 274 273 272 271 270 269 269 268 268 268 268 268 268 267 267 267 266 266 266 266 265 265 265 266
288 286 281 281 278 280 285 282 282 284 285 286 279 276 275 275 274 275 275 275 275 275 273 273 272 272 271 270 270 270 270 270 271 262 260 259 265 266 266 267 267 267 267 266 266 266 266 266 265 265 265 265 265 265
282 279 278 273 276 281 282 283 281 280 280 279 276 275 274 273 271 273 273 273 273 271 271 271 270 270 269 270 269 268 268 267 267 267 260 260 265 265 265 265 264 264 265 265 265 265 265 265 265 265 264 264 265 264
281 276 277 277 281 279 283 284 283 281 275 269 271 269 269 270 272 272 271 272 272 271 270 270 269 269 269 268 268 268 267 267 266 266 266 265 265 265 264 264 263 263 263 263 263 263 263 263 263 263 264 264 264 263
272 274 274 280 280 279 276 278 282 281 274 271 269 264 267 266 266 270 270 270 270 269 269 269 269 269 269 268 267 267 267 266 266 265 265 264 264 264 263 263 263 262 262 262 262 261 261 261 261 261 262 262 263 262
275 270 269 271 278 278 273 272 278 276 273 273 271 269 267 267 268 270 269 269 269 268 267 268 268 268 268 267 267 266 265 265 264 264 263 263 263 263 263 262 262 262 262 262 262 261 260 260 260 260 260 260 260 260

GFSWCAN_925_thetae_039.txt.gz
Theta_e
297 297 297 297 297 297 297 297 297 297 297 297 296 296 297 297 297 300 299 301 306 308 308 313 313 315 315 313 314 317 321 319 313 316 316 313 311 315 314 315 314 316 313 308 307 306 315 311 311 310 308 310 310 309
296 296 297 297 297 297 296 296 296 296 296 296 297 297 298 299 299 298 299 300 305 307 308 307 307 309 311 312 313 315 318 319 318 318 314 312 313 305 313 316 315 315 314 314 313 313 311 311 310 310 309 310 311 311
297 297 297 297 297 296 297 297 296 296 296 297 297 298 298 297 298 298 299 305 304 305 306 307 311 313 315 315 316 317 315 319 319 317 316 314 316 308 313 311 315 315 313 313 314 315 315 312 309 308 309 309 307 308
296 296 296 297 297 297 297 297 297 297 297 297 297 297 297 297 298 299 301 304 304 307 308 311 313 314 318 319 319 318 317 319 316 316 313 310 311 312 307 312 313 313 314 314 314 314 312 309 306 304 303 302 301 300
296 296 296 296 297 298 298 298 299 300 299 298 298 298 298 298 298 299 303 304 304 306 311 313 311 313 318 320 320 318 318 318 313 312 305 311 313 315 309 310 312 312 314 314 313 313 311 310 305 303 302 301 300 299
296 296 297 298 298 297 297 298 298 298 298 299 299 298 298 299 302 302 302 303 305 306 309 310 309 314 317 319 318 317 318 317 315 314 310 315 314 315 313 310 312 312 311 310 312 311 307 304 301 300 299 298 297 296
295 296 297 297 297 297 297 298 299 300 298 300 301 302 302 302 301 302 303 304 302 305 308 308 309 311 317 316 314 316 316 314 318 317 312 313 314 309 306 309 312 310 308 306 304 304 303 302 300 298 297 296 295 294
295 295 295 296 297 297 298 300 300 300 300 300 299 301 301 301 301 301 306 305 303 306 309 309 309 311 314 316 314 313 313 315 314 313 308 309 311 304 314 310 308 307 306 305 303 304 302 298 297 296 295 295 294 293
296 295 295 296 297 297 298 299 300 300 301 301 301 301 302 302 301 302 308 307 309 310 309 305 312 314 310 309 309 308 310 312 310 310 310 311 308 314 311 309 307 306 306 301 300 298 298 297 296 295 295 294 292 291
298 298 298 297 297 297 297 298 299 299 300 300 301 304 302 303 303 306 306 307 309 309 308 307 308 313 313 305 306 308 304 309 314 311 307 309 310 304 302 304 303 302 301 299 299 299 297 297 296 295 294 293 291 289
296 297 296 296 297 297 296 297 298 299 301 302 303 304 308 306 306 304 304 305 306 306 304 306 309 313 308 309 308 303 308 305 315 312 313 310 310 305 303 302 301 301 301 303 301 299 299 297 296 295 292 290 289 288
297 296 296 296 297 297 297 297 298 300 304 303 308 308 307 306 304 304 304 303 306 308 304 306 307 309 304 306 307 305 309 305 314 307 311 313 306 302 303 303 302 301 300 300 299 299 297 296 294 292 290 289 288 288
300 298 297 297 297 298 298 298 300 304 304 307 304 301 305 300 306 308 308 307 307 302 302 303 306 302 302 303 302 300 305 308 303 310 311 306 304 303 302 301 300 300 299 297 296 295 293 291 290 289 288 287 286 285
303 302 300 299 299 299 300 300 302 304 304 301 300 301 302 302 301 301 303 303 299 298 300 301 303 304 301 304 303 304 305 304 307 307 306 302 302 301 299 298 297 296 294 294 293 291 290 288 287 286 286 285 283 283
304 304 304 303 302 302 302 302 302 302 297 299 299 301 301 299 298 298 297 298 297 297 299 302 302 304 304 305 303 305 308 308 305 299 302 300 299 298 296 295 293 292 292 291 290 289 288 286 286 285 284 283 281 281
307 307 300 303 306 305 302 300 299 298 293 295 297 299 298 299 299 298 298 299 297 297 296 298 300 300 306 305 306 305 307 305 302 299 298 297 296 295 294 293 293 292 290 289 289 288 287 286 285 284 283 281 280 280
302 299 299 299 301 300 299 298 297 294 296 295 297 296 297 297 298 297 296 296 295 299 303 298 304 303 302 302 301 299 298 298 297 297 296 295 295 294 293 292 291 290 289 289 288 287 286 284 282 282 282 281 280 279
297 297 299 298 300 300 298 297 294 296 297 296 297 296 293 292 293 292 293 294 296 298 298 297 296 295 293 294 293 292 292 295 294 294 294 293 293 292 293 293 292 291 290 289 287 285 284 283 283 282 282 281 279 279
296 297 299 299 300 299 296 296 295 296 296 295 295 294 293 291 289 289 290 291 293 293 294 293 291 291 290 289 288 288 288 291 294 293 293 292 292 293 292 291 290 289 288 287 285 284 282 281 281 281 280 280 279 278
295 296 297 297 298 294 295 294 295 295 297 295 294 291 291 290 289 288 288 289 290 290 289 288 287 286 286 285 285 286 285 287 292 293 291 288 288 287 287 287 285 283 282 281 280 280 279 278 278 277 277 277 277 276
292 292 295 296 295 293 291 292 295 296 295 295 292 292 292 289 287 286 286 286 287 288 287 286 284 284 283 283 282 283 283 283 283 286 288 284 283 282 282 282 281 280 280 279 278 277 276 276 276 275 275 275 275 275
292 292 291 291 287 288 289 289 291 290 292 292 291 291 289 288 284 286 285 284 284 284 284 283 282 282 281 281 280 280 281 281 280 279 279 279 280 279 278 279 278 277 277 276 276 275 274 274 274 274 273 273 274 273
292 293 291 287 285 284 285 288 286 289 287 287 286 288 287 285 287 285 283 284 282 281 282 281 280 279 279 278 278 278 278 278 278 278 277 276 276 275 275 275 275 275 275 274 274 273 272 272 272 271 271 271 271 271
291 284 282 282 284 282 279 284 288 288 285 284 286 290 289 288 283 281 282 280 280 279 279 279 279 278 277 276 276 276 276 276 275 275 276 275 274 272 272 271 271 271 271 271 271 270 270 269 269 269 269 269 269 269
285 283 281 282 280 282 279 279 281 284 281 280 281 287 289 282 279 279 279 279 277 276 276 276 276 276 275 275 275 274 274 274 273 273 272 274 273 272 271 269 268 268 268 268 267 267 267 267 267 266 266 267 267 266
285 286 286 285 284 283 281 284 282 284 280 283 284 285 280 275 275 277 280 276 274 275 273 275 274 275 275 274 273 272 272 272 271 270 269 270 270 270 268 267 267 267 268 267 267 266 266 266 266 266 266 265 266 265
282 281 287 287 285 284 280 278 281 279 284 285 285 274 275 273 274 279 279 277 276 275 275 274 274 273 272 272 272 272 272 272 271 269 269 269 268 268 268 268 268 267 267 267 267 266 266 266 266 266 265 265 265 265
284 282 281 278 279 280 275 274 277 281 279 283 279 273 272 271 275 276 275 276 275 274 272 271 270 270 269 269 270 271 271 271 270 270 269 268 267 266 267 267 266 266 266 266 266 266 266 266 266 265 265 265 265 265
288 282 280 277 276 278 283 278 279 283 283 279 272 274 273 273 271 272 273 273 274 273 271 270 269 270 269 269 269 268 268 269 269 260 258 256 264 265 265 264 264 264 264 264 265 265 265 266 265 265 264 264 264 264
278 275 275 270 276 281 280 276 273 271 276 274 274 273 272 270 270 271 272 272 271 269 269 269 269 269 269 268 267 267 266 266 266 266 260 259 265 264 264 264 263 263 263 263 263 263 263 263 263 263 263 263 263 264
274 273 274 275 279 277 276 275 277 274 269 265 267 266 267 269 270 270 270 270 270 269 269 268 268 268 268 267 267 267 265 265 265 265 264 264 264 264 263 263 263 262 262 262 262 261 261 261 261 261 261 261 262 262
271 269 273 276 278 276 278 277 275 270 269 268 267 261 265 263 264 269 269 269 269 268 267 268 268 267 267 267 266 265 265 265 265 264 264 263 263 263 263 262 262 262 262 262 262 261 261 260 260 260 259 259 260 260
268 266 265 270 274 275 271 271 276 273 270 269 268 266 264 264 264 268 268 268 268 267 267 267 267 267 267 266 266 265 264 263 263 263 263 263 262 262 262 261 261 261 261 261 261 261 260 260 259 258 258 258 258 258

GFSWCAN_925_thetae_042.txt.gz
Theta_e
301 302 301 301 301 301 302 301 300 300 300 300 300 298 299 299 300 298 297 298 299 307 308 310 310 311 311 311 311 310 313 314 312 315 316 314 310 315 315 316 317 318 315 309 306 308 318 308 310 310 309 308 308 307
298 299 299 300 300 299 299 299 300 300 300 299 299 299 299 299 299 298 298 298 299 302 307 306 306 306 308 310 310 310 313 314 314 317 311 308 310 305 313 317 312 318 316 315 315 315 311 309 309 308 306 308 308 308
296 297 297 298 298 299 299 299 299 299 299 299 298 299 298 297 298 297 298 299 298 302 304 306 306 311 311 309 312 312 312 316 315 313 312 312 313 309 314 313 315 313 310 313 313 313 312 312 310 309 310 310 308 308
297 297 297 297 297 297 297 298 298 298 297 297 297 297 297 296 297 298 298 300 299 305 304 305 310 310 314 315 312 313 313 316 313 312 310 309 312 311 309 314 314 312 311 313 312 313 312 310 307 305 303 302 302 300
296 297 296 296 296 297 296 296 296 296 296 297 296 296 296 296 298 298 298 298 301 304 307 308 308 310 311 316 316 315 315 314 312 312 305 311 312 312 308 311 311 311 312 313 314 312 311 310 304 302 302 301 300 299
297 297 297 298 297 297 296 296 295 295 295 295 295 297 298 298 298 299 300 299 298 304 306 307 308 309 313 317 317 315 316 313 311 311 307 313 313 315 315 314 312 311 310 310 313 310 305 303 300 300 299 298 297 297
297 297 297 297 297 298 298 299 298 297 296 296 296 296 296 297 298 301 302 301 303 304 307 305 305 309 315 316 314 315 312 312 313 312 308 312 313 312 305 313 312 310 310 307 304 304 304 303 301 297 296 296 295 294
297 297 296 297 298 298 299 299 299 299 299 298 298 297 297 298 298 300 301 303 304 304 306 305 308 310 312 315 315 311 311 310 312 309 305 309 310 304 313 310 307 306 305 303 302 301 303 298 297 295 294 294 294 293
297 297 296 298 299 299 299 299 299 299 299 298 298 298 300 300 300 300 302 305 304 304 303 302 310 312 308 308 311 310 308 309 309 307 309 310 306 314 310 308 307 305 307 301 299 298 298 297 295 295 294 293 293 293
295 296 296 297 299 299 300 300 300 300 298 298 300 302 300 301 303 304 304 305 305 308 308 306 308 313 309 303 307 308 306 309 314 311 309 308 311 306 303 304 303 301 300 299 299 297 296 296 295 294 294 293 293 292
295 295 296 297 299 300 300 301 300 300 301 301 301 301 303 304 304 303 303 303 305 306 304 306 307 313 308 308 307 303 307 307 315 313 310 310 311 306 303 303 302 300 300 301 300 298 297 296 295 293 292 291 290 290
296 296 296 296 297 298 299 299 301 301 301 302 305 305 305 303 302 304 304 302 304 308 304 306 307 309 304 306 306 305 307 306 314 307 312 313 306 303 302 301 301 300 299 299 298 297 296 295 293 291 290 289 289 287
297 296 296 297 297 297 297 299 301 302 302 303 302 301 303 299 306 307 307 307 306 302 302 302 305 302 303 303 303 304 309 310 303 311 311 305 304 303 302 301 300 299 298 297 296 294 293 291 290 290 289 288 286 285
296 296 296 296 296 297 297 297 300 300 301 298 300 301 297 298 301 301 302 303 299 298 300 300 302 304 300 304 303 310 305 305 308 308 306 302 301 299 298 298 297 296 294 294 292 291 290 289 288 287 287 286 285 284
297 297 297 297 297 298 298 298 298 296 295 298 299 301 300 299 298 298 297 298 297 297 298 301 302 304 303 304 303 305 308 307 305 304 301 299 297 296 295 294 293 293 292 291 289 288 287 287 286 284 283 283 283 282
300 300 301 299 299 300 299 301 298 295 294 296 296 298 297 298 297 297 296 298 297 296 297 299 302 305 305 304 302 301 304 300 299 298 297 296 295 294 294 293 292 291 290 289 288 287 286 285 285 282 281 281 281 281
302 298 301 300 301 301 299 297 296 294 294 295 296 292 293 295 293 293 293 294 294 299 302 301 296 297 297 298 295 294 294 295 293 296 295 294 294 293 292 291 290 290 289 288 287 287 285 284 282 281 281 280 279 279
298 298 301 302 300 297 296 295 293 295 296 296 293 292 290 289 288 288 290 291 295 297 294 294 294 290 289 291 289 289 288 288 293 293 293 293 292 292 292 291 290 289 288 287 286 284 283 283 283 282 281 279 278 278
298 299 299 298 298 297 294 294 294 294 292 293 290 291 289 288 287 287 288 289 290 290 291 289 288 288 287 286 285 285 285 285 290 290 288 288 290 291 290 289 289 287 286 285 284 283 282 282 281 280 280 279 278 277
296 296 297 298 298 295 295 294 295 294 296 291 290 287 287 286 285 285 286 287 288 288 287 285 285 284 284 283 282 283 283 283 287 288 285 283 283 283 283 283 283 282 281 280 280 279 279 277 277 278 278 278 277 275
294 294 295 295 293 292 291 293 295 295 295 294 291 290 288 285 284 283 283 284 284 285 283 283 283 282 281 281 280 281 281 281 280 282 283 281 280 280 280 279 279 278 278 277 277 276 276 275 275 275 275 275 275 274
292 292 291 292 288 288 288 287 290 288 291 290 288 288 286 282 281 283 282 281 282 282 282 281 281 281 280 279 279 279 279 278 278 277 276 276 277 276 276 277 276 276 275 275 274 274 273 273 273 273 273 272 273 272
292 292 289 286 284 284 285 287 285 288 286 284 284 286 284 284 284 283 279 281 280 279 279 280 279 278 277 277 276 276 276 277 276 276 274 273 273 273 272 272 272 273 272 271 271 271 270 270 270 270 270 270 270 270
289 282 280 280 283 280 277 281 286 286 282 282 283 286 287 284 280 278 279 278 278 277 277 277 277 277 276 275 275 274 274 274 274 273 273 273 271 270 269 269 268 268 269 269 268 268 268 267 267 267 267 268 267 267
285 283 280 280 278 280 277 277 280 282 279 278 283 286 285 279 276 276 277 278 276 274 274 275 275 274 274 273 273 272 272 272 271 270 269 271 271 270 269 267 267 267 267 267 266 266 266 266 266 266 265 265 265 265
286 284 285 278 279 282 278 280 284 277 277 281 279 282 275 273 273 276 279 275 273 274 272 273 274 273 273 272 271 271 271 270 270 268 267 268 268 267 267 266 266 266 266 266 266 266 266 266 266 265 265 265 265 265
282 279 284 283 283 281 277 276 278 277 283 284 278 271 271 270 272 278 278 275 275 273 272 271 271 270 270 270 270 270 270 270 269 267 267 267 267 266 266 265 264 265 266 266 265 265 265 265 265 265 265 264 264 264
279 281 279 276 276 277 272 273 278 278 279 282 274 271 268 269 273 274 275 274 272 271 270 269 269 269 269 269 269 269 269 269 268 268 266 266 265 265 265 264 264 264 264 264 264 264 264 264 265 265 264 264 264 264
279 276 277 273 274 277 279 275 279 281 278 274 267 270 271 272 270 270 271 272 272 271 269 269 268 268 268 268 268 268 268 268 268 259 256 256 263 264 264 263 263 263 263 263 263 263 263 263 263 263 263 262 263 263
277 274 274 271 276 281 276 272 270 265 272 271 272 272 270 269 269 270 271 271 270 269 269 268 268 268 268 267 266 266 266 265 265 265 258 257 263 263 263 263 263 262 262 262 262 262 262 261 261 261 261 261 261 262
272 272 273 273 275 274 271 270 273 270 265 263 264 262 265 266 269 269 269 269 269 268 268 268 267 267 267 267 266 266 265 265 264 264 263 263 263 263 263 262 262 262 262 261 261 261 261 261 260 260 260 259 259 259
269 267 272 274 278 273 271 272 266 267 264 262 265 258 260 260 262 267 268 268 268 268 267 267 267 267 266 266 265 264 264 263 263 263 263 263 262 262 262 261 261 261 261 261 261 260 260 260 259 259 258 258 258 258
265 263 264 268 273 275 271 273 272 271 267 267 266 263 260 261 263 266 267 267 267 267 266 266 267 266 265 265 264 264 263 263 263 263 262 262 262 262 261 261 260 260 260 260 260 259 259 259 259 258 258 258 257 257

GFSWCAN_925_thetae_045.txt.gz
Theta_e
301 301 300 301 301 301 302 302 302 300 303 302 301 300 300 301 300 300 299 301 301 305 306 307 309 310 310 309 311 310 314 314 314 314 316 317 317 319 319 318 319 321 320 319 314 320 323 311 309 316 318 310 311 311
300 301 301 301 301 301 301 302 301 302 301 301 300 300 301 300 300 300 298 299 298 300 304 303 305 305 307 309 310 311 312 312 313 316 314 313 316 312 318 322 313 322 319 321 320 322 317 311 315 311 309 312 310 312
298 299 300 301 301 301 301 302 301 300 299 301 301 301 301 300 300 298 298 297 297 297 301 304 306 308 309 308 309 312 311 314 313 314 314 316 316 313 316 316 316 313 312 319 318 317 315 313 311 311 310 310 309 310
297 298 299 299 299 299 299 299 299 299 300 301 300 300 300 300 298 297 298 297 297 300 302 305 306 306 309 310 310 310 312 314 314 313 311 311 316 313 315 317 318 316 314 316 316 313 313 314 312 311 308 307 306 305
296 297 297 298 299 300 300 300 300 300 300 299 299 299 299 299 297 297 299 297 297 300 304 304 306 307 309 309 311 310 312 315 314 314 309 316 312 312 309 312 314 313 315 317 319 316 317 316 314 307 307 307 305 303
296 296 296 296 297 298 298 299 299 299 298 298 298 298 297 297 296 297 299 298 298 298 302 304 306 307 311 313 315 315 314 314 315 315 313 314 313 315 315 317 314 312 313 313 315 311 307 304 303 304 304 303 301 301
297 297 297 296 296 296 297 297 297 297 297 296 296 295 295 297 297 299 299 299 299 300 303 303 305 306 310 314 313 315 315 314 315 314 312 315 315 314 309 317 314 312 312 309 305 307 307 304 306 300 300 299 297 297
297 297 297 298 297 296 295 296 296 296 295 295 295 295 296 297 297 299 302 300 300 300 304 306 305 308 312 314 315 313 315 314 313 314 308 313 311 307 316 314 310 308 307 306 303 303 304 300 298 297 297 297 296 295
297 299 298 299 299 299 298 296 296 296 295 296 297 297 298 298 299 299 302 301 301 302 303 302 307 312 309 308 308 309 310 313 310 311 313 313 310 318 314 310 308 306 307 303 300 300 300 300 297 296 296 296 295 294
297 299 299 299 300 300 299 298 296 296 296 297 297 298 298 298 299 301 304 304 304 304 306 304 307 312 309 304 308 303 305 310 315 313 310 310 313 307 304 304 306 303 301 300 300 299 297 297 296 296 295 295 294 293
297 299 299 300 299 299 300 298 297 297 298 297 296 297 299 299 302 303 302 303 304 305 305 306 308 313 308 310 308 303 307 306 315 313 314 313 314 307 304 303 301 301 301 301 301 299 298 297 296 294 294 293 293 292
296 298 299 300 300 300 299 299 298 297 297 300 302 301 303 303 301 303 304 302 303 308 304 306 308 309 305 306 307 304 308 306 315 307 311 314 305 304 303 302 301 301 300 299 298 297 296 294 294 293 292 292 290 288
297 297 297 298 299 301 298 299 299 300 302 302 300 300 302 300 304 305 308 307 306 302 302 303 305 303 303 304 303 305 311 311 303 310 308 305 302 300 301 301 299 299 298 296 295 294 293 292 291 291 289 288 287 286
296 296 296 296 297 297 299 298 297 298 296 297 300 299 301 300 301 301 302 303 301 298 299 301 302 304 301 304 303 311 305 306 310 308 306 301 299 297 297 297 296 295 293 293 292 291 290 290 289 288 287 287 285 284
296 296 296 296 297 297 297 298 297 297 293 298 297 300 300 299 297 297 297 298 296 297 299 302 303 304 304 305 304 306 308 305 302 301 300 298 297 296 295 294 293 292 291 290 289 288 287 287 286 286 285 285 283 282
296 297 296 296 297 298 298 298 297 295 294 294 291 293 294 294 292 292 292 295 295 296 297 300 303 305 302 300 299 297 301 298 296 294 292 296 295 294 293 292 291 290 289 289 288 287 286 285 284 283 282 281 281 281
297 299 298 297 298 299 298 296 295 294 295 295 292 289 289 290 290 290 290 291 292 298 298 297 294 294 295 294 292 291 290 289 289 289 294 294 294 292 292 291 290 289 288 287 286 285 284 282 282 282 282 280 280 279
299 299 299 298 298 296 295 295 293 294 293 292 291 289 288 286 287 288 289 289 294 295 293 292 291 289 288 290 288 286 285 285 287 287 286 290 292 291 291 290 289 288 287 286 285 284 284 283 282 281 280 279 279 279
299 299 298 298 298 296 294 294 292 291 289 289 287 288 286 285 285 285 286 288 288 289 289 288 285 285 285 284 283 283 283 283 285 285 283 283 284 285 284 284 283 283 283 282 281 281 280 281 281 280 279 279 278 276
300 300 299 298 296 294 295 294 294 293 291 289 287 285 285 284 283 283 284 285 285 285 284 283 282 282 282 281 281 282 281 282 286 284 282 281 281 280 280 280 280 280 279 278 278 278 278 277 276 277 277 277 276 275
297 298 298 296 292 291 290 292 294 294 294 294 291 289 286 283 282 281 282 283 282 282 281 281 281 281 280 279 279 280 279 278 279 280 280 279 278 278 277 277 277 276 276 276 276 275 274 274 274 273 274 273 273 273
292 295 294 291 289 288 288 287 290 288 289 289 287 288 286 282 279 281 281 279 280 280 281 280 279 279 278 278 277 278 278 276 275 275 274 274 275 274 274 274 274 273 273 273 272 272 271 270 271 271 271 271 271 271
291 291 288 285 284 284 284 286 286 288 286 284 285 286 283 282 283 281 278 279 278 278 278 279 277 277 276 275 275 275 275 275 274 274 273 272 271 270 270 269 270 271 271 270 269 269 268 268 268 268 268 268 268 268
289 281 279 279 282 279 277 280 285 285 282 283 284 284 285 281 279 277 278 277 277 276 276 276 276 276 275 274 273 272 273 272 271 271 271 270 269 268 268 268 267 267 267 267 266 266 266 266 266 266 266 266 265 265
285 283 281 280 278 280 278 278 280 282 279 280 283 283 280 278 276 276 276 277 275 274 274 274 274 273 273 272 271 271 270 270 269 269 268 268 268 268 268 267 266 265 266 266 266 266 265 265 265 265 265 265 264 264
282 280 283 276 278 283 277 282 282 278 278 282 279 279 274 273 274 276 278 275 274 274 272 272 273 273 272 271 271 270 269 269 268 267 266 266 266 266 266 266 266 265 264 265 265 265 265 265 265 265 265 264 264 264
280 277 281 281 281 280 276 275 277 277 281 283 276 271 271 270 272 277 276 274 273 270 269 270 270 271 271 270 268 268 269 269 267 266 265 265 264 264 264 263 263 262 263 264 264 264 263 263 264 264 264 263 263 263
277 279 278 274 276 276 273 275 280 278 279 279 272 270 267 269 273 273 274 271 270 269 268 268 269 269 269 268 268 268 267 267 266 266 265 265 264 264 263 263 263 263 263 263 263 263 262 262 262 262 262 262 262 262
276 273 275 272 273 275 277 274 278 278 276 272 268 269 271 271 269 269 271 271 270 270 268 267 267 267 267 267 267 267 267 267 267 262 261 262 262 263 263 263 263 262 262 262 262 262 261 261 261 261 261 260 260 261
275 273 273 271 274 275 270 269 267 264 270 270 271 271 270 268 268 269 270 270 270 269 268 268 268 268 267 267 266 265 265 265 264 264 262 261 262 262 262 262 262 262 262 261 261 261 261 261 261 260 260 260 260 260
271 271 273 273 275 271 268 266 268 266 263 264 262 263 266 267 268 268 268 268 268 268 268 267 267 267 267 266 266 265 264 264 263 263 263 263 262 262 262 261 261 261 261 261 261 260 260 260 260 259 259 259 258 258
268 268 272 274 276 270 267 269 262 265 262 263 263 258 261 262 262 266 267 267 268 268 267 267 267 266 266 265 264 264 263 263 263 263 263 262 262 262 261 261 261 260 260 260 260 260 260 259 259 259 258 258 258 257
264 262 265 270 273 273 270 271 271 269 266 265 264 261 259 263 264 265 266 267 267 267 266 266 266 266 265 264 264 263 263 263 263 262 262 262 262 261 261 261 261 260 260 260 260 259 259 259 259 258 258 258 257 257

GFSWCAN_925_thetae_048.txt.gz
Theta_e
301 301 300 301 301 300 300 301 301 301 301 301 301 300 302 301 301 301 301 302 306 307 307 308 308 309 309 311 314 312 316 317 317 319 320 321 324 319 320 319 323 323 325 327 326 331 330 317 315 320 322 320 319 319
301 301 301 301 300 300 300 301 301 301 301 301 300 302 300 301 300 301 301 302 303 306 303 302 304 306 307 309 312 314 312 314 314 316 319 318 325 322 318 323 319 323 323 326 323 325 323 318 320 318 320 320 318 319
299 300 301 301 301 301 301 301 301 300 300 300 302 301 300 301 300 300 300 301 302 303 304 303 303 305 307 309 311 314 313 312 314 314 318 320 326 322 329 323 320 319 318 323 322 321 321 320 318 317 316 318 316 317
299 300 301 301 302 301 301 301 301 301 301 302 301 300 301 302 300 299 299 300 302 302 303 303 303 304 307 309 311 311 312 315 315 316 319 320 323 317 324 320 322 320 318 321 322 322 318 319 319 319 315 314 314 314
298 300 299 300 301 301 301 301 301 301 301 300 300 301 301 300 299 299 299 299 300 302 304 304 304 305 303 308 311 311 313 316 320 320 315 318 318 320 318 318 323 318 320 324 324 322 322 322 321 319 317 315 314 314
296 298 300 300 299 299 300 300 300 299 300 301 300 299 298 298 298 298 300 297 300 300 302 305 306 305 304 309 311 313 315 314 317 318 320 319 318 319 324 322 318 318 317 319 320 316 316 313 311 316 316 314 312 311
296 296 298 299 299 300 299 299 300 300 299 300 299 298 298 298 299 300 300 300 299 299 303 304 308 307 306 307 315 315 315 315 316 316 318 319 321 318 322 323 319 318 317 316 313 311 314 310 313 308 309 308 306 308
297 296 296 297 298 298 298 298 299 299 299 299 298 298 297 297 298 301 302 298 300 302 304 306 307 311 311 314 315 315 316 317 318 318 317 318 318 318 322 318 319 316 314 313 312 309 309 306 305 305 304 304 305 304
299 298 296 296 297 297 297 297 297 296 296 297 298 297 297 298 301 299 301 299 302 304 305 303 309 314 312 313 312 310 314 313 315 318 318 319 319 322 318 318 318 315 314 314 306 306 305 306 304 302 303 303 303 301
299 299 298 296 295 296 296 296 296 296 296 297 297 299 299 299 297 299 299 302 302 304 304 306 306 310 312 308 311 313 307 312 314 317 317 320 319 313 309 309 310 310 308 307 308 307 305 304 303 302 301 301 299 298
300 299 299 298 296 295 295 296 296 297 297 299 299 300 300 298 300 303 304 304 304 304 305 309 308 308 310 312 312 310 312 307 314 315 321 318 315 306 305 307 306 304 304 306 307 307 305 304 302 301 298 298 297 294
299 299 299 299 297 296 296 296 297 298 299 298 299 300 301 302 304 305 305 304 305 309 307 309 309 306 308 310 310 306 313 307 315 308 315 312 306 302 302 303 303 304 305 305 304 304 302 301 300 298 296 294 292 290
299 299 299 298 298 297 297 297 297 297 297 300 302 302 304 302 304 307 308 309 309 302 302 305 307 309 306 305 306 309 315 315 305 310 309 303 300 300 298 298 297 296 296 296 297 296 295 294 293 292 290 289 288 288
297 299 299 298 297 297 295 296 296 296 298 301 302 302 305 304 303 304 302 305 300 299 300 302 303 305 301 305 305 314 306 308 312 310 306 300 296 297 296 295 295 293 293 292 292 291 290 289 289 288 288 287 287 287
297 297 297 298 298 298 297 298 299 297 296 297 298 300 299 297 295 295 295 300 298 296 299 301 303 305 305 308 304 310 309 304 302 300 298 296 293 296 295 293 292 291 290 290 289 289 289 289 288 287 286 286 285 284
296 296 297 297 298 298 298 298 296 296 296 293 290 292 292 294 292 291 292 294 294 295 296 300 305 304 301 299 299 298 300 297 295 292 292 294 296 294 294 292 291 290 290 290 289 288 287 286 285 284 283 283 282 282
298 298 296 298 299 299 298 296 295 295 294 293 291 288 288 289 289 289 290 291 291 298 300 297 296 296 297 296 293 291 291 290 289 290 288 290 293 292 291 291 290 289 288 287 286 285 285 285 284 284 284 282 281 280
299 297 297 298 296 295 295 294 293 292 291 289 289 288 286 286 286 288 288 289 296 295 293 292 291 290 291 292 290 287 286 286 288 286 285 286 287 287 287 288 287 287 286 286 286 285 284 284 283 282 281 281 280 280
298 297 298 297 297 296 296 295 292 290 289 288 287 287 286 285 286 286 288 288 289 289 289 288 287 287 286 285 284 285 284 285 287 284 283 282 282 283 283 283 282 282 282 282 282 281 281 282 282 281 281 280 280 279
298 297 297 297 297 296 296 296 293 292 291 289 288 287 285 285 285 286 287 288 287 286 285 284 284 283 283 283 283 282 282 284 287 284 282 281 280 280 280 281 281 280 279 278 278 279 279 278 278 277 278 278 278 277
297 295 294 293 291 292 293 296 296 294 293 294 292 289 288 287 286 285 285 285 285 283 283 283 282 281 280 280 280 280 279 279 281 282 281 279 278 278 278 278 278 278 277 277 277 275 275 275 275 275 275 275 274 274
296 294 293 290 293 292 292 290 294 293 294 293 292 289 288 287 285 284 282 282 280 281 281 281 281 280 279 279 278 278 278 277 277 276 276 276 277 276 276 276 276 275 275 274 274 273 272 271 272 272 272 272 272 270
291 290 288 289 291 293 291 290 292 291 292 292 291 290 287 285 284 283 281 280 279 279 279 279 278 277 277 277 276 276 276 277 276 275 275 274 273 273 272 272 272 272 272 271 270 270 269 268 268 269 269 269 270 269
288 285 287 288 291 289 288 290 290 290 290 291 291 289 286 285 283 282 280 279 278 278 278 278 278 279 277 276 276 274 275 274 274 273 273 273 273 271 271 270 270 269 269 269 269 268 268 268 267 268 267 268 267 267
289 286 289 289 288 289 289 289 288 290 290 289 289 287 284 284 282 281 280 279 278 277 277 276 276 276 277 276 274 273 272 273 273 272 271 272 272 272 271 269 268 267 267 269 268 268 267 267 267 267 267 266 265 266
287 285 288 288 288 289 288 288 287 287 287 287 285 282 282 282 281 280 279 278 277 276 275 276 277 276 275 274 274 273 271 271 271 270 269 268 269 270 270 270 270 267 265 265 266 266 267 266 266 265 266 266 264 264
287 286 285 283 285 285 285 285 284 285 285 285 283 281 281 280 280 278 277 276 276 273 272 273 274 274 273 271 270 269 269 268 268 267 266 266 265 265 266 266 266 264 264 263 264 264 264 265 265 264 264 265 264 263
285 285 283 281 283 283 282 283 283 283 283 281 280 277 278 278 278 276 276 273 272 271 270 270 270 270 270 270 269 269 268 266 266 266 266 265 264 264 263 263 262 262 262 262 262 263 263 263 263 263 262 262 262 261
283 281 281 277 280 280 280 281 282 279 277 278 277 276 274 273 272 273 273 272 272 272 271 270 268 268 267 266 266 266 267 268 268 268 268 268 267 265 262 262 262 261 261 261 262 262 262 262 261 261 260 260 260 260
282 280 281 278 278 279 277 275 276 273 273 274 274 273 272 271 270 270 271 272 272 271 269 269 268 269 268 269 267 266 264 264 264 265 267 267 265 262 262 262 262 261 260 260 261 261 261 261 260 261 260 260 260 260
278 282 282 281 280 277 275 273 272 272 272 272 272 273 272 271 270 268 268 267 267 267 268 268 267 267 267 267 267 267 266 263 263 263 263 262 261 262 261 261 260 260 260 260 260 260 260 260 261 260 260 259 258 258
278 279 281 280 278 275 273 277 277 276 274 274 273 271 270 272 272 270 266 267 268 269 268 267 268 268 266 265 265 264 264 263 263 263 262 262 262 261 261 261 261 260 260 259 259 259 259 259 260 259 259 259 258 257
277 278 279 279 278 277 277 278 277 276 275 275 273 271 271 273 272 270 267 267 267 268 267 266 266 266 265 264 264 263 263 263 263 263 262 262 262 261 261 260 260 259 260 259 259 259 259 259 259 259 258 257 257 257

GFSWCAN_925_thetae_051.txt.gz
Theta_e
299 301 301 301 301 300 300 300 300 300 303 302 302 302 301 302 303 302 302 303 306 308 308 306 308 310 309 310 312 312 314 316 317 319 318 315 319 316 315 315 324 325 325 330 329 331 331 321 321 322 323 324 322 321
300 301 301 301 300 300 301 300 303 302 301 300 302 301 301 302 302 302 303 302 304 307 307 306 308 309 309 309 311 312 315 315 315 315 317 316 324 325 317 322 315 324 324 326 325 325 324 321 323 321 322 322 324 322
301 301 301 301 301 301 300 300 302 302 300 300 301 301 301 301 301 302 303 303 303 305 307 308 309 307 307 309 311 315 314 314 315 315 315 318 321 318 326 323 318 319 319 325 323 322 322 323 321 321 322 322 322 322
300 301 301 301 301 301 301 301 301 300 300 301 301 301 300 301 300 302 303 303 303 305 307 307 304 305 307 308 310 312 313 314 314 314 317 321 322 314 322 318 318 317 318 320 320 319 320 321 322 323 321 320 320 318
300 301 301 301 301 301 301 301 301 301 301 301 301 301 299 300 301 301 302 302 303 304 307 305 304 304 305 306 309 310 313 316 315 317 322 319 314 313 317 320 319 316 319 322 323 317 323 323 322 321 322 321 319 318
299 299 300 301 301 302 301 301 300 301 301 302 301 300 300 300 300 300 301 301 302 303 303 306 306 306 304 305 307 310 314 315 315 316 318 315 313 316 326 321 314 313 316 318 319 319 321 321 316 315 320 321 320 317
299 300 300 301 300 301 301 301 301 300 300 301 300 299 299 300 300 302 302 301 300 301 303 305 307 307 306 305 306 309 313 314 316 318 319 318 317 317 324 323 313 314 317 318 318 317 318 316 317 313 316 318 314 315
299 299 299 300 301 300 300 299 299 299 299 299 299 299 300 299 299 303 301 300 301 302 303 304 308 308 305 307 307 311 314 315 315 315 316 318 319 321 321 316 316 315 316 318 318 315 315 312 311 311 311 311 313 313
297 298 298 299 300 300 299 299 299 299 299 299 299 299 299 300 302 303 300 300 303 304 305 306 309 312 307 306 309 311 314 316 314 318 317 317 318 320 317 317 316 315 317 316 314 311 311 311 311 309 308 309 309 309
296 297 298 298 298 298 299 299 298 298 297 297 298 300 301 301 300 299 301 302 304 305 305 306 307 311 311 312 313 312 310 316 316 318 317 319 319 309 304 307 311 311 311 311 313 314 313 311 310 308 308 307 307 306
296 297 297 297 297 297 297 297 296 296 298 300 301 302 300 299 300 302 302 304 303 306 305 307 309 311 309 313 313 313 310 312 319 317 319 320 313 301 300 301 305 307 308 309 309 310 310 310 310 307 305 304 302 301
297 296 296 296 296 296 296 296 297 300 300 301 301 300 299 301 304 306 306 306 307 309 308 309 310 310 310 309 309 310 314 310 318 308 313 308 302 299 299 298 298 300 301 302 303 304 304 305 305 303 300 297 294 291
298 296 295 296 296 297 297 298 298 297 300 302 302 303 304 304 305 306 307 308 309 305 302 306 312 310 309 306 305 309 315 314 304 310 308 303 300 297 298 297 296 295 294 294 293 292 292 292 291 291 290 289 289 288
297 297 297 297 297 297 297 296 297 298 297 301 305 304 305 304 300 299 300 303 300 300 301 301 306 307 303 304 303 313 306 309 313 311 304 298 296 297 297 296 294 292 291 291 291 290 289 289 289 288 288 288 288 287
297 297 297 297 297 297 298 298 297 298 296 298 299 299 299 298 295 295 296 299 297 296 298 301 303 303 305 306 304 309 310 304 301 300 296 294 294 296 294 293 293 292 292 292 291 290 289 288 288 287 286 286 285 284
298 298 299 298 298 297 296 297 298 298 295 293 290 293 292 296 293 292 292 294 294 296 296 300 304 303 302 302 300 301 301 298 295 294 292 293 294 293 292 292 291 291 290 289 288 287 286 286 286 285 284 283 283 283
299 298 298 298 298 296 296 297 294 292 292 292 291 288 289 289 289 290 290 291 292 297 301 300 299 298 299 297 294 293 293 292 291 289 289 289 290 291 290 290 289 288 288 287 287 287 286 285 284 284 284 282 281 281
299 297 296 296 297 296 294 294 292 292 289 289 290 289 288 287 288 289 290 289 295 295 293 294 293 292 293 294 291 290 290 290 287 287 285 286 286 286 286 286 286 286 286 286 286 285 285 284 284 283 282 282 281 281
298 298 297 297 297 297 297 294 292 290 289 289 288 288 288 287 287 288 290 289 290 291 291 290 289 289 288 287 288 288 288 290 287 285 284 283 283 284 284 283 282 282 282 282 282 282 281 282 282 282 282 282 282 282
297 297 297 296 297 297 296 295 293 292 292 290 290 289 288 287 288 288 288 290 288 287 286 285 285 284 285 284 284 284 285 289 287 285 283 283 282 281 282 282 282 281 281 280 279 280 280 279 279 278 279 279 279 278
296 294 294 294 294 294 296 297 296 294 294 293 292 291 290 289 288 288 287 285 286 285 285 284 283 283 282 282 281 281 281 282 283 283 283 282 280 280 280 279 279 279 279 278 278 276 276 276 276 276 276 276 275 275
295 294 294 293 294 294 295 294 295 295 294 294 293 291 291 290 288 286 285 283 283 283 283 283 282 282 281 281 281 281 280 280 279 279 279 279 279 279 278 278 277 276 275 275 274 274 273 272 273 273 274 274 273 271
291 292 292 294 296 297 293 294 294 293 294 294 293 291 290 288 286 285 284 282 281 281 281 280 280 280 279 279 278 279 279 279 279 278 278 277 276 276 275 275 275 275 275 274 273 273 272 271 271 272 272 272 272 272
289 289 291 293 294 293 293 293 293 293 293 293 291 290 288 288 286 285 283 281 281 280 280 281 281 281 280 278 278 277 277 277 277 277 277 276 276 274 274 273 272 273 273 273 272 271 271 271 270 271 270 270 269 270
292 288 292 292 293 293 293 293 292 293 292 292 290 289 287 287 286 285 284 281 281 280 280 279 280 280 280 279 277 275 275 276 275 275 274 275 276 276 274 272 270 269 270 271 271 271 270 270 269 269 269 268 267 268
290 288 291 291 291 293 292 292 291 291 290 289 288 287 287 287 285 284 282 281 280 279 278 279 280 279 278 277 277 275 274 274 274 273 271 271 271 272 273 272 272 269 268 268 268 269 268 268 268 268 268 268 267 267
290 289 288 287 289 289 290 289 289 289 288 289 288 286 287 285 283 280 279 279 278 276 276 276 277 277 276 274 273 272 271 270 270 270 269 268 268 268 268 268 267 266 266 266 266 267 267 267 267 267 267 266 266 265
287 287 286 286 286 287 286 287 287 286 286 284 285 282 283 282 281 279 278 275 275 274 274 273 274 274 274 273 272 272 271 270 269 269 269 269 267 266 266 266 264 264 264 264 264 265 266 265 265 265 265 265 264 264
286 285 284 282 284 283 283 285 284 281 280 283 283 280 278 276 276 276 275 274 274 274 274 273 272 271 271 270 270 270 270 270 271 270 270 271 270 268 266 265 265 265 264 265 264 264 264 264 264 263 263 264 264 264
285 286 284 281 282 282 280 280 279 277 277 278 276 275 275 274 272 274 274 274 275 274 273 273 272 273 272 272 271 269 267 267 266 268 270 269 268 265 265 265 265 264 264 264 264 264 264 263 264 264 264 263 264 262
285 286 284 283 281 279 278 277 277 277 277 277 277 278 276 274 272 272 272 272 272 272 272 271 271 271 271 271 271 270 269 266 263 264 264 265 265 265 264 263 263 263 263 263 263 263 263 263 264 264 264 263 262 262
284 285 284 282 280 278 279 281 281 280 279 279 277 276 275 276 276 273 271 271 272 273 271 271 272 271 268 267 266 265 265 265 265 263 263 264 265 264 263 263 263 263 262 262 263 263 263 262 263 263 263 263 262 261
284 284 283 282 280 281 280 282 281 279 279 279 277 277 276 277 276 274 268 269 271 272 271 270 269 267 266 265 266 265 264 264 263 263 263 262 262 262 261 262 262 262 262 262 262 263 262 262 262 262 261 261 261 260

GFSWCAN_925_thetae_057.txt.gz
Theta_e
297 297 297 299 301 301 301 301 301 301 300 300 302 302 302 301 301 301 302 301 302 303 306 306 308 307 307 308 309 307 309 310 311 308 309 309 308 313 315 315 317 317 317 317 319 322 324 320 320 319 317 317 319 319
296 298 300 301 301 301 301 301 301 300 300 301 301 301 302 303 302 301 302 301 301 304 306 306 308 307 309 309 310 308 309 310 310 311 310 310 309 309 311 313 315 319 317 319 319 318 320 318 322 319 318 319 321 321
299 300 301 301 301 301 301 301 301 301 301 302 301 301 302 302 302 302 302 302 302 304 305 306 304 306 306 307 309 311 308 310 312 310 312 312 310 311 310 311 312 316 316 317 319 318 315 315 317 318 319 319 319 319
300 301 301 301 301 301 301 300 300 301 301 301 300 302 303 302 301 302 302 302 302 303 304 307 307 308 306 305 308 308 310 311 311 311 311 312 313 311 310 313 313 314 315 316 318 317 317 317 315 316 317 318 317 318
301 301 302 301 301 301 300 300 301 301 300 302 301 301 302 302 302 302 302 302 303 304 303 305 306 307 305 304 307 308 310 310 312 308 305 311 311 312 313 313 313 312 312 314 318 317 317 319 319 318 318 316 315 316
300 301 301 301 301 301 301 301 302 302 302 301 300 302 302 303 303 303 303 304 304 304 305 305 305 306 307 307 308 309 309 310 310 311 309 313 314 313 307 312 313 311 311 310 311 315 315 317 315 314 316 314 315 315
301 301 301 301 301 301 301 301 302 301 301 301 299 300 301 301 302 303 302 302 303 303 306 304 305 305 305 307 305 307 308 309 309 312 311 311 312 313 305 311 310 311 312 314 313 315 317 313 314 312 311 312 311 312
301 301 301 301 301 301 301 301 301 302 301 300 301 302 301 302 302 302 303 303 303 304 303 301 301 305 306 305 306 306 307 308 310 310 309 313 313 313 308 305 305 306 308 310 310 311 312 311 311 310 308 308 309 309
300 301 301 300 301 300 300 301 300 300 301 301 301 301 301 301 300 300 302 302 302 304 303 300 303 307 304 306 305 306 307 304 309 307 310 311 310 305 302 301 301 302 304 306 309 310 310 310 311 308 307 307 306 303
299 299 300 300 300 300 300 300 300 300 300 301 301 302 300 300 301 301 301 303 303 304 304 300 302 304 305 303 306 304 299 302 309 308 311 308 302 300 298 298 298 298 300 303 307 307 306 307 308 302 301 298 297 294
299 299 299 299 299 299 299 299 300 301 301 302 301 300 300 300 301 301 299 302 303 302 301 302 304 306 303 305 306 302 304 303 306 307 310 307 300 297 296 296 294 295 296 297 299 299 299 299 299 297 294 292 290 288
298 298 298 298 298 297 297 299 300 299 300 301 300 300 301 301 301 303 303 302 301 304 303 303 303 306 304 304 304 304 307 306 310 307 305 300 296 295 295 294 293 292 292 292 292 292 292 292 292 291 289 287 286 285
297 298 297 297 297 297 297 298 301 300 301 302 302 300 303 300 301 298 304 305 303 300 299 300 304 300 303 301 301 304 307 308 304 304 298 294 295 294 293 292 291 290 290 289 289 289 288 287 286 286 286 284 284 283
296 296 296 297 297 297 298 298 298 299 300 298 300 296 297 294 296 295 296 297 297 297 296 298 302 303 300 303 302 308 303 303 303 299 294 293 292 292 291 290 289 288 287 287 286 286 285 284 284 283 283 283 282 282
297 298 297 297 298 298 296 297 297 294 293 292 292 295 292 294 291 291 292 294 294 294 295 299 300 303 301 302 300 303 301 296 295 292 291 291 290 290 290 289 288 287 286 285 284 284 284 283 283 283 282 282 281 281
298 298 296 296 297 297 297 294 293 293 292 289 288 289 289 290 289 289 290 292 292 292 293 297 303 298 298 295 294 295 294 292 290 289 288 288 287 288 288 287 286 286 285 285 284 283 283 282 282 282 281 281 281 281
299 298 296 295 294 294 295 294 290 290 290 291 289 288 288 289 289 289 290 290 290 293 297 296 294 294 296 292 291 291 289 288 286 286 285 284 285 285 284 284 284 285 285 284 284 283 283 282 282 282 282 281 281 280
298 297 296 297 298 298 293 292 290 289 288 288 287 288 288 287 286 288 289 288 291 293 292 292 290 286 286 289 289 287 285 284 284 283 284 283 283 282 282 283 282 282 282 281 280 280 282 282 282 282 282 281 280 279
297 297 297 297 297 296 293 292 291 289 290 289 288 287 287 286 285 285 287 287 287 287 288 286 284 285 285 285 285 286 285 284 283 282 282 281 282 282 281 280 279 278 279 279 279 278 278 277 277 277 278 277 277 278
297 296 295 296 296 296 294 293 293 292 292 289 288 286 285 284 284 284 284 286 286 285 284 283 283 283 283 282 282 284 285 284 283 282 281 281 280 279 278 278 278 277 276 276 276 276 276 276 275 274 274 274 274 274
295 295 295 295 295 296 295 294 294 293 292 293 291 290 288 286 283 283 283 283 283 283 283 283 282 282 282 282 281 281 281 281 281 281 280 280 279 278 277 277 276 276 275 274 273 272 273 274 273 273 272 272 272 272
295 294 294 294 294 294 293 294 295 294 293 293 291 291 288 284 282 283 282 282 282 281 281 281 281 281 282 282 281 280 280 279 279 278 278 277 277 276 276 276 275 274 274 273 272 272 271 272 272 271 272 272 271 271
294 293 294 295 292 292 291 294 292 294 291 291 290 289 286 284 286 284 281 282 283 281 281 281 280 280 280 279 279 279 279 279 278 277 276 275 274 273 272 272 273 273 273 272 272 271 270 271 270 269 270 270 270 270
291 290 290 291 290 289 289 288 292 292 289 288 287 285 286 285 284 280 281 282 281 281 282 281 280 279 278 277 277 277 277 276 275 274 276 274 273 272 271 270 270 270 271 271 270 270 269 269 269 268 268 268 268 268
287 286 288 289 291 287 286 286 287 288 285 287 284 286 285 286 282 282 281 281 281 280 278 280 280 279 277 276 276 275 275 274 272 272 272 272 274 272 270 269 268 268 269 269 269 269 268 268 268 268 267 267 267 267
286 286 289 289 287 287 289 286 285 285 284 284 285 287 283 280 278 281 282 279 275 278 278 279 275 275 275 274 273 272 272 273 271 270 270 270 270 270 269 269 267 267 267 267 267 267 267 267 267 267 267 266 266 265
285 286 288 288 290 289 286 286 287 284 283 283 283 284 279 276 277 280 279 278 275 277 276 277 277 275 274 273 272 271 271 271 270 270 269 268 268 267 267 266 265 265 266 266 266 266 266 266 266 266 265 265 265 265
287 286 283 284 283 285 282 281 280 280 280 283 280 276 276 277 278 279 276 276 276 275 274 274 274 274 273 273 272 272 271 271 270 269 268 268 267 267 267 266 266 266 266 266 265 265 265 264 264 264 264 264 265 265
285 284 281 279 280 280 281 281 279 280 280 282 275 276 275 278 276 276 276 275 275 274 274 273 273 272 271 271 270 269 269 271 271 264 264 266 267 266 266 266 266 265 265 265 265 265 265 265 264 265 265 265 265 265
285 284 279 277 276 278 279 278 280 277 276 275 275 275 275 275 276 276 276 276 276 275 274 274 274 273 273 271 269 268 267 267 268 268 264 264 266 266 266 265 265 264 264 265 264 264 264 264 264 264 265 265 264 264
285 282 279 278 277 276 275 276 277 277 275 275 273 271 272 270 273 274 274 273 273 273 273 273 273 273 272 271 270 268 266 266 266 266 266 266 266 265 265 264 264 264 264 264 263 264 264 264 264 263 263 263 263 262
283 279 276 275 278 278 278 281 278 277 276 272 271 270 271 272 270 273 273 273 274 273 274 273 271 269 269 268 267 267 267 266 265 265 265 265 265 265 264 263 264 263 264 263 263 263 263 264 264 263 263 262 262 262
281 280 278 277 278 278 280 279 277 278 275 274 272 273 272 272 271 271 272 272 273 273 271 271 270 269 268 267 267 266 266 265 265 264 264 263 263 263 262 262 262 262 262 262 262 262 263 263 262 262 262 261 260 260

GFSWCAN_925_thetae_060.txt.gz
Theta_e
297 297 297 297 297 299 300 300 300 300 301 301 301 301 301 300 300 300 300 300 300 300 301 304 306 305 304 305 305 304 307 307 309 308 308 306 305 312 314 313 314 313 313 315 317 321 320 319 321 321 317 318 320 320
296 296 298 299 300 301 301 301 300 301 301 301 301 301 301 301 301 300 300 300 300 301 302 303 303 307 305 306 305 304 307 307 308 309 306 306 304 303 310 312 312 315 314 315 315 316 316 317 319 320 317 318 319 318
298 300 300 301 301 301 301 301 301 301 301 301 300 300 300 301 301 301 301 301 301 301 300 302 305 307 306 306 308 308 306 308 311 307 308 308 308 307 308 308 309 311 314 317 318 316 317 315 316 318 317 317 318 316
300 300 301 301 301 301 301 301 300 300 301 301 301 300 300 301 302 302 301 301 301 301 301 304 301 304 305 305 305 307 308 310 310 309 308 305 306 309 306 309 309 309 314 315 316 315 315 315 316 315 314 317 317 315
300 301 301 301 301 301 301 301 300 301 301 301 300 301 301 301 302 302 301 301 301 301 301 304 305 305 304 306 306 307 307 308 311 310 308 307 307 308 308 310 311 310 313 315 315 314 313 314 313 316 314 314 315 315
300 301 301 301 301 301 302 302 300 300 301 301 302 301 301 301 302 302 303 301 301 303 304 304 303 306 305 305 306 307 307 308 308 310 307 307 310 308 306 309 309 308 307 310 312 311 312 313 311 311 314 313 314 314
301 301 301 301 302 300 301 301 301 300 300 300 300 301 301 302 300 301 300 301 302 302 304 304 303 305 306 306 306 307 308 309 310 311 309 310 310 312 303 309 306 305 305 308 307 311 314 310 311 309 309 309 309 309
301 301 301 301 301 301 301 300 300 302 302 300 300 302 301 300 301 302 303 302 302 303 303 302 302 303 305 304 307 305 308 308 309 309 310 311 311 311 309 301 301 302 302 306 305 307 308 308 308 307 306 306 304 299
301 301 301 301 300 301 300 300 299 300 301 301 301 300 300 301 301 302 302 303 303 303 299 295 299 305 303 305 304 305 304 303 305 302 307 309 306 300 298 298 299 298 300 303 305 304 305 305 302 300 301 300 297 294
300 300 300 299 300 300 300 301 300 301 301 301 300 299 298 300 302 303 302 300 300 301 301 298 299 303 304 302 303 303 297 301 309 307 307 302 298 297 295 296 294 295 297 298 303 303 302 303 298 296 294 292 291 289
298 298 298 298 299 300 300 300 300 301 302 300 298 300 300 301 300 299 299 300 302 301 299 300 302 303 302 305 306 299 304 304 306 307 305 299 296 295 294 292 292 292 293 294 295 295 296 296 296 293 290 288 287 286
297 297 297 298 298 299 300 300 300 300 300 300 300 300 300 301 301 300 302 300 300 305 301 303 304 304 302 302 304 304 304 304 306 303 296 294 295 293 292 291 290 290 290 290 290 289 289 288 288 287 286 285 284 283
297 296 297 297 298 298 300 300 300 302 302 302 300 300 298 294 293 294 301 302 300 298 297 299 303 300 301 301 301 303 306 307 302 297 294 293 292 291 290 288 287 287 286 286 285 285 284 284 284 284 284 283 282 281
296 297 298 297 297 296 298 297 299 299 296 294 295 291 290 289 292 291 291 291 293 294 294 296 300 302 299 302 302 305 299 298 294 293 290 291 290 289 288 287 286 285 285 284 284 283 283 282 282 282 282 281 281 281
297 296 297 297 296 296 294 295 293 292 289 289 289 289 289 289 286 288 288 290 291 290 294 297 300 300 298 298 296 299 296 291 291 288 289 288 288 287 287 287 286 285 284 283 283 283 282 282 282 282 281 281 281 280
299 296 295 294 292 294 294 292 291 292 290 288 288 287 287 285 286 285 284 289 290 291 293 296 298 296 295 292 293 293 291 289 288 286 286 285 285 285 285 285 285 284 284 283 283 282 282 282 281 281 280 279 279 279
298 296 296 297 298 292 292 291 289 289 289 289 287 287 286 287 287 287 288 287 289 292 293 293 290 291 292 291 290 288 286 286 285 284 283 282 283 283 282 282 281 281 280 281 282 282 282 282 281 280 280 279 278 278
296 296 297 297 297 295 292 290 289 289 288 288 287 286 286 285 284 285 286 286 288 290 289 288 287 284 285 287 285 284 283 282 282 282 282 281 280 280 279 279 279 279 279 279 278 278 278 278 278 278 279 278 277 277
296 297 297 296 296 294 291 291 289 289 288 286 284 284 284 284 284 285 286 285 284 285 285 283 280 282 281 283 284 283 282 282 281 280 280 279 279 279 278 277 277 277 277 277 277 276 275 275 275 275 275 276 276 275
297 295 295 295 296 293 292 292 291 290 289 287 285 284 283 283 283 282 283 284 284 284 282 281 281 281 280 282 283 282 282 282 281 280 279 278 278 277 277 276 275 275 274 273 273 274 274 273 272 272 272 272 272 272
295 294 294 295 295 294 292 293 292 290 289 290 288 287 285 283 282 281 281 282 281 282 282 281 281 281 281 280 280 280 280 280 280 280 279 278 277 276 275 274 273 273 272 271 271 271 271 271 271 271 271 271 271 270
293 294 294 294 292 292 291 291 293 291 291 291 289 289 285 281 281 282 282 281 281 281 281 280 281 281 280 280 279 279 278 277 276 275 275 275 274 274 273 272 272 272 271 270 270 269 269 269 270 270 270 269 269 269
292 293 293 290 290 289 289 291 290 292 289 288 286 285 282 278 282 281 278 282 281 280 279 279 278 278 279 279 278 277 277 276 275 273 272 271 271 270 270 270 271 270 270 270 269 270 269 268 268 269 269 269 269 268
291 289 290 286 287 286 283 285 289 289 285 284 284 282 284 280 280 278 280 279 281 280 279 278 277 276 276 275 275 275 274 273 272 272 272 271 270 269 269 268 269 269 269 269 269 268 268 268 268 267 267 267 267 267
286 285 285 285 285 283 279 278 280 284 281 281 280 280 280 281 277 276 277 280 277 277 276 277 276 276 274 273 272 272 272 272 271 270 270 271 269 268 268 267 267 267 268 268 268 267 267 267 267 266 266 266 266 265
283 282 284 283 282 284 282 280 279 280 278 280 282 283 277 274 274 277 280 275 272 274 272 270 273 273 273 272 271 271 271 271 270 269 268 270 270 269 267 265 265 265 266 267 267 266 266 266 266 266 265 265 265 265
281 281 285 286 287 286 282 281 282 280 279 280 277 277 272 270 272 278 277 275 274 274 275 275 274 273 272 271 271 271 270 270 269 268 267 267 267 267 266 265 265 265 265 265 265 265 265 265 265 265 265 265 265 265
285 281 279 277 278 280 277 276 276 276 276 281 275 272 271 271 275 275 273 274 274 274 274 274 274 273 272 271 271 270 269 269 268 268 267 267 266 266 266 265 265 265 265 265 265 265 264 264 264 264 264 264 264 264
278 279 277 274 275 276 277 275 275 278 278 278 269 270 273 276 272 275 274 274 274 273 272 271 271 271 270 269 269 269 270 269 268 263 262 260 265 265 265 265 265 265 265 265 265 265 264 264 264 264 265 264 264 264
280 278 275 272 273 276 275 273 271 267 273 273 274 275 273 272 274 275 275 274 273 273 272 272 271 272 270 270 267 267 267 268 269 269 261 260 265 265 265 264 264 264 264 264 264 264 264 264 264 264 263 263 263 263
280 275 274 274 275 273 269 270 274 273 267 266 263 265 268 269 273 273 274 274 274 273 273 272 272 272 271 270 269 268 266 266 266 266 266 266 265 265 265 264 264 264 263 263 263 263 263 263 263 263 263 263 262 261
274 271 273 275 276 273 271 272 267 267 263 264 264 260 264 264 266 270 272 273 273 273 272 272 272 270 269 268 268 268 267 266 265 265 265 265 265 264 264 263 263 263 263 263 262 262 263 262 262 262 261 261 261 260
274 276 271 273 273 273 271 272 270 272 269 266 268 267 266 267 266 269 271 272 273 273 273 272 271 270 268 267 267 266 266 265 265 264 264 264 263 263 262 262 262 262 262 262 261 262 262 261 261 261 260 260 259 259

GFSWCAN_925_thetae_063.txt.gz
Theta_e
298 297 298 297 296 297 298 298 298 299 299 298 298 299 299 299 298 300 301 299 300 300 301 304 305 305 304 304 304 302 305 304 303 304 305 305 302 307 309 309 312 312 312 310 312 315 317 316 315 317 316 316 319 318
297 297 297 299 300 299 300 300 300 300 301 300 299 299 300 299 299 299 300 300 300 300 300 302 301 301 303 304 304 304 305 306 305 304 303 304 303 299 308 310 310 312 310 311 312 314 313 313 313 313 314 318 316 317
299 300 300 300 300 301 301 302 301 301 301 301 301 300 300 301 300 299 299 300 300 300 301 301 301 302 303 305 305 304 303 305 307 304 303 304 304 303 304 305 308 307 310 312 313 312 312 312 314 315 318 318 316 315
300 300 300 301 301 301 301 301 301 301 301 301 301 301 301 301 301 301 300 299 299 301 302 300 300 300 302 305 306 306 306 308 306 306 305 305 309 306 304 306 306 306 308 309 309 312 312 314 313 313 314 315 316 316
300 300 301 301 301 301 301 301 301 301 301 301 300 300 300 300 301 302 299 300 299 300 299 298 302 301 302 304 305 306 307 308 307 307 306 309 305 309 309 308 307 309 310 311 310 312 311 313 312 312 315 314 314 314
301 301 301 301 301 301 302 301 301 301 300 300 301 301 300 300 301 302 301 300 299 300 302 300 301 303 302 304 305 305 305 306 308 309 305 308 309 309 306 309 308 307 306 305 310 307 307 310 309 308 311 310 310 309
301 301 300 301 301 301 301 300 300 301 301 301 300 301 301 300 301 300 300 300 300 301 302 302 300 305 305 304 304 304 306 307 306 307 306 306 308 311 304 306 303 302 301 303 305 306 311 310 309 306 306 304 301 298
301 300 299 299 300 301 302 301 300 300 301 301 301 301 301 301 300 302 301 300 301 301 302 303 304 304 306 305 306 304 306 306 308 306 307 308 309 308 301 299 299 298 300 303 301 305 305 304 301 299 299 298 296 293
300 299 300 300 299 300 299 300 300 301 302 301 301 300 300 300 300 301 301 301 301 301 301 297 300 306 303 303 303 304 304 304 305 305 306 308 302 297 296 297 295 295 297 299 299 303 303 300 298 296 294 294 291 289
299 300 299 300 300 300 300 300 300 301 300 300 300 298 298 301 301 302 301 300 298 302 299 297 297 307 305 301 300 302 300 305 307 305 303 299 296 294 293 292 292 293 295 296 299 300 299 301 296 292 291 289 288 287
298 298 298 299 300 300 300 300 301 300 300 299 300 299 300 299 300 299 299 301 300 298 297 298 300 302 301 305 304 301 304 302 306 307 302 298 295 293 290 289 289 290 291 291 292 291 291 291 291 289 287 286 285 284
297 296 297 298 299 299 300 300 300 300 300 300 300 300 300 297 295 298 295 296 300 303 300 304 304 302 300 302 303 303 306 303 304 298 296 294 292 290 289 287 287 287 287 287 286 286 286 286 285 284 284 283 282 281
297 297 297 296 297 297 299 300 300 300 301 299 296 293 293 289 289 291 299 300 298 296 294 298 303 300 301 301 302 303 305 306 297 294 292 291 290 288 287 286 285 285 284 284 284 283 283 283 282 282 282 281 280 280
296 295 295 296 295 294 295 296 298 297 294 291 291 288 288 286 289 290 290 291 291 292 293 296 300 301 298 301 299 300 296 295 292 290 289 288 288 287 286 285 284 283 283 283 282 282 282 281 281 281 280 280 279 278
295 296 296 294 293 293 293 293 292 291 288 289 288 286 287 288 287 287 287 290 290 291 293 298 298 297 295 295 293 295 291 288 288 285 285 286 286 285 285 284 284 283 282 282 282 281 281 280 280 280 279 279 279 279
297 296 296 297 292 293 291 290 290 291 288 288 286 285 285 283 283 282 283 286 288 289 291 292 294 295 293 292 291 291 288 287 285 283 285 283 282 282 281 282 282 282 282 282 282 281 281 280 279 279 278 278 278 277
296 296 296 296 294 290 290 289 288 289 289 288 286 285 283 279 280 282 284 286 287 288 291 290 288 289 291 291 286 285 285 284 283 282 281 281 281 281 281 281 280 280 280 280 280 280 280 280 279 278 278 277 277 276
296 296 297 296 295 293 290 290 289 288 285 284 284 283 284 281 280 280 284 284 285 288 287 286 286 283 284 285 282 282 281 281 281 281 280 279 279 278 278 278 278 278 278 277 277 277 277 277 277 277 277 276 275 274
296 295 295 296 294 292 291 290 289 286 285 284 283 283 282 281 282 282 282 283 283 283 283 282 280 281 280 280 280 281 281 280 279 279 278 278 278 277 277 276 275 275 275 275 275 274 273 273 274 274 274 273 272 271
295 294 295 295 295 292 293 292 289 288 287 285 285 283 282 282 282 280 282 283 284 283 282 280 279 278 280 281 280 281 280 280 279 278 277 277 276 275 274 274 274 273 273 272 272 272 272 271 271 271 271 270 269 268
294 293 293 294 294 293 291 292 289 288 287 287 285 284 283 283 281 281 281 281 280 281 281 280 280 280 280 279 279 279 279 279 279 278 276 275 275 274 273 272 271 271 270 269 269 269 269 269 269 270 270 269 268 268
293 294 294 293 291 291 290 290 291 289 290 289 288 287 282 277 278 280 281 279 280 279 280 280 280 279 279 278 278 277 276 275 274 273 273 273 272 271 270 270 270 269 268 268 268 267 268 269 269 269 269 268 267 267
291 293 291 288 287 288 289 289 289 291 288 286 284 283 280 276 281 280 278 280 279 278 278 277 278 277 277 276 276 275 275 274 272 271 270 269 269 269 269 269 269 268 268 268 268 267 267 268 269 268 268 268 267 267
291 287 287 284 287 284 281 284 289 286 283 282 282 282 282 278 279 277 279 279 279 278 278 277 276 275 274 274 273 273 273 272 271 270 270 269 268 267 267 267 268 268 268 268 268 268 267 267 267 267 267 267 267 266
286 284 284 282 282 281 277 276 278 282 279 279 279 281 278 279 275 275 276 277 276 275 272 275 275 274 272 270 271 271 272 272 271 270 270 269 268 267 266 266 266 267 267 267 267 267 266 266 266 266 265 265 265 265
283 281 283 281 282 283 281 280 279 278 276 278 280 278 274 272 271 276 278 273 271 272 266 269 271 272 272 272 271 270 270 271 271 268 268 269 269 268 266 264 264 265 266 266 266 266 266 266 265 265 265 264 264 264
280 280 284 282 285 284 280 279 280 279 277 279 277 271 270 268 269 275 276 274 273 273 274 274 273 271 270 270 270 270 269 269 268 267 267 267 267 267 267 265 265 264 265 265 265 265 265 265 264 264 264 264 264 264
282 280 278 273 275 277 273 272 271 273 274 279 273 269 268 269 274 273 272 273 273 274 273 272 272 271 270 270 269 269 268 268 267 267 266 266 266 265 265 265 265 265 265 265 264 264 264 264 264 264 264 264 264 264
276 276 274 270 271 274 276 273 274 277 276 273 266 268 273 274 271 273 272 273 274 273 271 270 269 270 270 270 269 269 269 269 267 260 259 257 264 265 265 265 264 264 264 264 264 264 264 264 264 264 264 264 263 263
276 275 272 268 271 273 271 270 268 264 271 271 273 274 272 270 272 274 273 273 273 272 272 271 270 270 268 268 267 267 268 268 268 268 259 257 265 265 264 264 264 264 264 264 263 263 264 264 263 263 263 263 262 262
276 272 272 272 273 271 268 265 271 271 263 263 261 264 267 267 273 272 273 273 272 272 271 270 270 270 270 270 269 267 266 266 266 266 266 266 265 265 264 264 264 263 263 263 263 263 263 263 263 263 262 262 261 261
270 268 272 274 274 271 268 263 262 262 260 263 262 257 261 262 264 268 271 272 272 272 272 272 271 270 270 269 268 268 267 266 265 265 265 265 264 264 263 263 263 263 263 262 262 262 262 262 262 262 261 261 260 259
271 273 270 271 271 270 269 269 268 268 264 263 266 262 262 262 265 267 270 272 272 273 272 271 270 269 268 267 266 266 265 265 264 264 263 263 263 263 262 262 262 262 261 261 261 261 261 261 260 260 259 259 259 258

GFSWCAN_925_thetae_066.txt.gz
Theta_e
298 297 296 297 297 297 297 297 297 297 297 297 298 298 298 300 300 300 300 300 300 300 303 305 305 305 305 304 304 302 305 304 304 306 306 307 304 305 306 309 312 312 312 313 313 316 314 313 313 316 315 311 311 313
297 298 298 299 299 299 299 299 298 298 299 297 297 298 298 298 299 301 298 300 301 300 301 301 302 304 302 304 304 303 304 304 302 302 301 302 302 298 306 308 307 310 309 309 310 310 309 311 310 312 311 311 312 315
298 299 300 300 300 300 301 300 300 300 300 300 299 299 298 298 298 298 297 299 300 297 299 301 301 301 303 302 303 305 303 305 303 301 301 302 303 301 303 305 307 306 308 310 310 309 309 308 308 310 311 312 313 315
299 301 301 300 300 301 301 301 301 301 301 301 301 300 299 299 299 298 298 299 299 300 302 300 300 303 302 302 303 305 304 306 306 305 303 302 303 303 302 304 304 304 305 308 308 307 309 308 310 310 310 312 315 316
300 301 301 301 301 301 301 301 301 301 301 301 300 301 300 299 300 299 299 299 299 299 300 299 301 301 303 302 303 305 306 306 307 307 304 304 303 305 305 307 308 308 308 308 308 309 308 309 308 308 309 310 309 311
300 299 299 300 300 301 301 301 301 301 301 300 301 300 301 300 301 300 299 299 298 299 300 298 299 300 300 301 304 305 306 306 306 307 305 306 306 305 300 305 306 306 304 304 308 306 305 305 306 303 305 303 300 298
299 300 300 300 300 301 300 300 300 300 301 301 300 300 300 300 300 298 300 300 299 299 301 299 298 304 301 304 304 304 305 306 306 307 306 307 307 308 305 304 301 300 299 300 303 302 306 305 304 298 298 298 295 292
300 300 299 299 300 301 301 300 300 300 300 300 300 300 300 301 301 300 301 299 299 300 301 302 303 305 303 304 306 304 305 305 307 306 306 306 306 305 304 297 297 296 296 299 299 299 303 301 298 296 294 293 291 289
299 300 300 300 300 301 300 302 301 301 301 301 300 300 300 300 300 301 300 299 300 300 300 300 302 307 304 304 304 304 304 305 304 305 306 307 300 297 295 293 293 293 294 295 295 297 300 298 295 293 291 290 290 288
299 299 300 300 300 300 300 300 300 300 299 299 300 298 299 301 300 301 298 298 299 300 300 301 298 306 304 302 302 303 301 304 304 306 300 298 295 293 291 290 290 290 292 292 295 297 294 295 292 289 288 287 287 286
296 298 299 299 300 300 300 299 300 300 300 300 300 297 300 300 298 297 298 300 300 300 298 299 300 305 302 303 302 300 304 303 307 306 303 297 294 292 288 287 287 287 288 288 290 288 288 289 288 287 285 284 284 283
296 296 296 297 297 299 300 299 300 300 299 299 298 296 297 294 296 300 299 299 300 302 299 303 303 299 301 302 304 302 305 303 302 296 295 292 291 288 287 286 285 285 285 285 285 285 285 284 284 283 282 282 281 280
294 295 295 293 294 299 300 300 300 300 299 295 293 291 291 286 287 290 300 298 296 294 294 298 302 300 300 301 302 303 305 300 295 292 291 289 288 286 286 284 284 283 283 283 283 282 282 281 281 280 280 279 279 278
297 296 293 293 292 293 294 295 296 295 292 290 289 285 283 282 286 287 289 289 290 291 292 295 300 299 297 299 296 298 293 292 290 289 287 286 286 285 284 284 283 283 282 281 281 280 280 280 280 279 278 278 278 277
296 296 295 291 293 291 291 291 291 290 288 288 287 285 285 286 285 284 285 288 289 290 293 298 295 294 293 293 291 292 289 289 287 284 283 285 284 284 284 283 283 282 282 281 281 280 280 279 279 278 278 277 277 277
296 296 295 291 291 291 291 290 289 289 288 286 285 284 283 283 283 283 284 284 286 288 291 292 294 293 292 291 289 288 288 285 283 283 283 282 282 282 281 281 280 281 281 281 280 280 279 278 278 277 276 276 275 275
296 296 296 292 290 289 290 288 288 287 287 287 283 281 277 278 279 281 282 284 285 289 289 290 289 288 291 288 285 284 284 283 282 281 280 280 280 280 280 280 279 279 278 279 279 279 279 278 277 277 276 275 275 274
295 294 295 295 295 292 289 289 288 286 284 284 282 280 278 277 278 279 282 283 286 287 286 285 285 284 284 285 282 281 281 280 280 279 279 278 278 277 277 277 277 277 277 276 276 276 276 276 276 276 275 274 272 272
295 293 295 295 293 292 290 289 286 284 283 282 281 280 279 280 280 281 282 283 283 283 283 282 280 281 279 280 280 279 279 279 278 278 277 276 276 276 276 275 275 274 274 274 274 273 272 272 272 272 271 271 270 270
294 293 294 294 294 291 292 291 287 285 285 284 284 283 282 282 281 277 281 282 283 282 281 280 279 278 278 279 279 279 279 279 278 277 276 275 274 274 273 273 273 273 272 271 270 271 271 270 269 270 270 269 269 267
293 293 294 294 293 292 291 290 288 287 286 285 284 284 283 281 280 280 280 281 279 280 279 279 279 279 278 278 278 278 277 277 277 277 275 274 273 272 271 270 270 269 268 267 268 268 268 267 267 268 268 268 268 268
291 293 292 292 290 290 289 288 289 287 289 288 286 285 281 277 277 279 280 278 278 277 279 279 278 278 278 277 276 276 275 274 273 272 272 272 271 270 268 268 268 267 267 267 267 267 267 268 268 267 267 266 266 266
291 292 290 287 287 287 289 288 288 290 285 284 284 282 278 276 280 280 277 279 278 278 277 277 276 276 275 275 274 274 274 273 271 270 269 268 268 268 268 268 268 268 267 267 267 268 267 267 267 267 266 266 266 265
290 285 283 281 285 283 281 282 287 285 281 282 282 281 279 277 278 277 278 277 278 278 277 276 275 274 274 273 272 272 271 271 270 269 269 268 267 266 267 267 267 267 267 267 267 267 267 267 267 267 267 266 266 265
285 283 282 280 279 280 276 275 277 281 278 278 279 278 276 278 275 274 274 275 274 269 270 274 273 273 271 270 271 271 271 271 270 269 268 269 267 267 266 266 266 266 266 267 267 266 266 266 266 265 265 265 265 265
282 281 283 279 280 281 280 279 277 277 276 278 278 275 273 273 272 275 276 270 268 269 264 268 269 271 271 271 270 270 269 270 270 268 268 268 268 267 265 263 264 265 266 266 266 266 266 265 265 265 264 264 264 264
280 278 282 280 283 281 277 276 278 276 274 277 275 269 269 267 268 274 274 272 271 273 274 273 273 272 270 269 269 269 269 269 269 267 267 267 267 267 266 265 264 264 265 265 265 265 265 264 264 264 264 264 264 264
279 278 277 271 273 275 270 269 268 272 274 277 272 267 267 267 274 272 272 272 272 273 272 271 271 271 270 269 269 268 267 267 267 266 266 266 265 265 265 265 265 265 264 264 264 264 264 264 264 264 264 264 264 263
275 274 273 269 271 271 272 270 272 275 274 271 266 268 272 272 269 271 271 272 273 272 270 269 268 269 269 268 268 268 268 268 267 259 258 256 263 265 265 264 264 264 264 264 264 264 264 264 263 263 264 264 263 263
273 272 269 265 268 270 267 268 267 264 269 270 272 273 271 269 270 272 272 273 272 271 271 270 270 270 269 269 268 267 267 267 267 267 261 258 265 265 265 264 264 263 263 263 263 263 263 263 263 263 263 262 262 262
272 268 269 270 270 268 266 262 267 268 262 263 260 264 266 265 271 271 272 272 272 271 270 269 269 269 269 268 268 267 267 266 266 266 266 266 265 265 264 264 263 263 263 263 263 262 262 262 262 262 262 262 261 261
267 266 270 271 271 268 265 259 260 261 257 262 260 255 259 261 263 267 269 270 271 271 271 271 270 271 270 269 269 268 267 266 265 265 265 264 264 264 263 262 262 262 262 262 261 261 261 261 261 261 261 260 260 259
269 269 269 269 268 269 267 267 267 265 261 262 262 259 258 261 265 266 269 271 272 272 272 271 270 269 268 266 266 266 265 264 264 264 263 263 262 262 262 262 261 261 261 261 261 261 261 260 260 260 259 259 259 258

GFSWCAN_925_thetae_069.txt.gz
Theta_e
296 297 297 297 297 298 298 297 297 297 297 298 297 297 299 298 298 298 298 299 300 299 302 303 304 305 305 304 305 304 305 304 306 307 308 307 308 308 307 309 312 311 313 314 313 315 314 311 314 316 312 314 313 314
296 297 298 299 299 299 299 298 299 298 298 298 297 297 298 299 299 299 299 300 300 300 301 302 303 304 304 303 304 304 305 304 305 306 305 306 307 305 308 309 308 311 312 314 314 314 311 312 314 311 311 313 313 313
297 298 299 300 301 300 299 300 300 301 299 299 298 297 298 298 299 299 299 300 300 296 300 301 302 302 304 303 303 304 304 305 304 304 304 305 305 305 309 308 309 308 307 311 310 309 309 309 309 311 310 311 312 313
298 298 300 300 300 300 300 301 301 301 300 299 299 299 298 298 298 297 297 300 298 299 302 302 300 302 303 302 303 303 304 305 306 306 306 304 306 303 306 306 307 307 307 309 309 308 309 309 309 308 308 309 307 305
298 300 299 300 300 300 301 301 301 301 300 299 300 300 299 298 298 297 297 298 299 301 301 301 300 301 302 302 302 304 305 306 307 306 305 308 304 308 306 308 308 308 308 310 310 308 307 307 308 305 304 304 301 299
299 299 299 300 300 300 300 301 301 301 301 301 301 300 299 299 299 297 296 298 299 299 301 301 300 301 301 302 303 303 304 305 306 307 306 306 306 307 308 308 306 305 303 303 307 304 305 306 306 299 300 300 297 295
299 299 299 300 300 300 300 300 300 301 301 301 300 300 301 298 297 298 299 299 299 299 300 300 301 302 302 302 302 303 302 303 305 305 305 306 308 309 306 308 300 299 297 298 300 301 306 305 304 298 296 295 293 291
299 299 300 300 301 300 300 300 300 300 301 300 300 300 300 299 298 299 301 299 298 299 300 303 303 304 301 303 304 304 305 305 305 304 305 307 307 306 308 297 295 294 294 297 295 296 298 300 297 294 293 293 291 289
299 299 299 300 300 301 300 300 300 301 301 300 300 300 299 298 297 299 299 299 299 300 300 301 304 307 302 303 304 304 305 305 305 305 307 307 303 304 293 291 290 290 290 292 293 295 296 296 292 290 290 289 289 287
298 299 299 300 300 300 300 300 300 299 301 301 299 298 300 301 299 300 300 299 300 300 301 300 299 305 304 303 303 303 302 305 307 304 300 299 295 290 289 288 287 287 288 289 291 292 291 292 290 288 287 286 286 284
296 295 297 299 300 300 300 300 299 299 300 300 298 298 300 299 299 298 300 300 300 301 300 300 302 304 301 304 304 301 305 303 305 304 303 296 294 290 288 287 286 286 286 286 287 287 286 287 287 285 284 283 282 281
294 293 295 299 300 300 300 300 300 299 298 298 297 294 293 293 296 301 300 300 301 301 298 303 303 301 302 299 304 302 306 304 305 296 294 292 289 287 286 285 284 284 285 284 284 284 283 283 282 282 281 280 279 278
293 292 293 299 299 299 299 299 300 298 295 293 292 289 292 287 287 289 300 296 297 293 293 298 302 300 300 301 303 304 303 298 294 293 290 288 286 285 284 284 283 283 282 282 282 281 280 280 279 279 279 278 277 277
293 291 291 292 297 300 300 300 299 293 291 290 289 285 284 283 287 288 288 289 290 292 292 295 298 297 295 297 295 296 292 292 291 289 287 286 285 284 284 283 282 282 281 281 280 280 279 279 278 278 278 277 276 275
295 290 291 292 290 290 290 291 292 289 287 287 286 284 285 285 285 285 285 288 288 289 292 298 293 293 292 292 291 292 291 288 287 286 285 284 284 284 283 283 282 281 281 280 279 279 278 278 277 277 276 276 275 275
296 295 290 290 291 290 290 289 288 288 287 285 283 282 282 283 283 283 284 285 286 287 291 292 294 292 291 289 288 287 288 286 284 284 283 283 282 281 281 280 280 280 280 280 279 278 278 277 277 276 275 274 274 274
297 295 293 290 290 289 289 287 286 285 285 284 282 280 279 281 281 282 282 283 284 288 289 289 289 288 289 287 284 284 283 283 282 280 280 280 279 279 279 279 279 278 278 278 278 278 277 277 276 275 275 274 274 273
294 293 295 295 294 290 287 286 286 284 283 282 281 280 279 279 281 281 282 283 286 287 286 286 286 285 284 285 283 282 280 279 279 278 278 278 277 277 277 277 276 277 276 276 276 276 275 275 275 274 274 273 272 271
293 294 295 292 292 290 289 287 285 282 282 282 282 280 280 279 280 281 282 284 284 284 284 283 282 282 281 281 280 280 279 279 278 277 276 275 276 276 275 275 274 274 274 274 274 273 272 272 272 272 271 271 271 270
293 294 294 293 293 292 291 288 285 285 284 283 283 282 282 282 281 280 280 282 282 282 280 280 279 279 280 279 279 279 279 278 278 277 276 275 274 273 273 273 273 273 272 272 271 271 271 270 269 269 269 269 268 267
293 293 293 292 292 290 288 288 286 285 285 284 284 283 282 281 280 280 280 280 279 280 279 279 278 278 278 278 278 278 278 278 278 277 275 274 273 272 272 271 270 270 269 269 269 268 268 268 267 267 267 267 266 265
292 292 292 292 289 288 288 287 287 286 288 286 285 283 281 280 280 280 279 277 278 278 278 278 278 278 277 277 276 275 274 274 273 272 272 272 272 270 269 268 268 268 267 267 267 267 267 266 266 266 266 266 266 265
292 292 288 287 286 286 289 288 287 288 285 285 283 281 279 278 280 279 278 278 278 278 277 276 276 275 275 274 274 273 273 272 271 270 269 268 268 267 268 267 267 267 267 266 266 266 265 266 266 266 266 266 265 265
289 283 280 280 285 283 279 281 286 284 282 283 282 281 279 278 278 278 278 277 278 277 277 276 275 274 273 272 272 272 271 270 269 269 268 268 268 267 267 267 266 267 266 266 266 266 266 266 266 266 266 265 265 264
285 281 281 279 279 280 277 275 278 281 279 279 280 278 277 278 277 276 276 277 276 274 272 274 274 273 272 271 271 270 271 270 270 269 268 268 267 267 266 265 265 266 266 266 265 265 265 265 265 265 265 265 264 264
281 279 281 278 278 281 279 277 276 277 277 276 275 275 274 274 274 275 277 274 273 272 268 269 271 272 271 271 271 270 269 270 270 268 267 267 267 266 265 265 265 265 266 266 266 265 265 265 264 264 264 264 263 263
278 276 280 278 280 279 275 274 277 275 274 276 274 270 271 270 269 274 275 272 273 272 272 272 273 272 270 269 268 268 269 269 269 267 267 267 267 266 266 265 264 264 265 265 265 265 265 264 264 264 263 263 263 263
277 276 274 270 272 273 269 270 271 272 275 276 272 267 268 269 274 273 272 271 271 272 271 271 271 271 269 268 268 267 267 267 267 266 266 266 265 265 265 265 265 264 264 264 264 264 264 264 264 263 263 263 263 263
273 272 272 268 269 270 271 269 272 274 273 271 267 269 272 272 268 270 270 271 271 271 269 268 268 269 268 268 268 268 267 267 268 263 263 264 262 265 265 264 264 264 264 264 264 264 264 263 263 263 263 263 263 262
271 271 268 264 267 270 266 268 268 266 268 269 272 272 270 269 269 270 271 271 271 270 270 270 269 269 269 268 267 267 267 267 267 266 264 264 264 265 265 264 264 263 263 263 263 263 263 263 263 262 262 262 262 262
271 268 268 269 269 270 266 261 264 265 262 264 262 265 267 267 270 270 271 271 271 271 270 268 268 268 269 268 267 266 267 266 266 266 266 266 265 264 264 264 263 263 263 263 262 262 262 262 262 262 262 261 261 260
265 263 268 269 269 267 264 261 260 263 260 265 263 258 262 264 265 267 268 269 269 270 270 270 270 270 270 269 268 267 267 266 265 265 265 264 264 264 263 262 262 262 262 262 261 261 261 261 261 260 260 260 259 259
267 266 267 269 268 268 266 266 266 265 262 263 262 258 258 263 266 266 268 269 270 271 271 271 270 269 267 266 266 266 265 265 264 264 263 263 263 262 262 262 262 261 261 261 261 261 261 260 260 260 259 259 259 258

GFSWCAN_925_thetae_072.txt.gz
Theta_e
294 296 296 296 297 297 298 298 298 298 297 298 298 298 298 298 298 298 297 297 297 299 299 300 303 303 304 306 306 306 306 305 305 309 309 308 309 308 307 309 311 312 311 313 314 313 315 313 314 316 316 313 313 314
295 296 296 298 298 298 299 300 298 299 299 298 297 297 298 298 298 299 298 298 297 301 300 300 300 302 303 304 306 305 306 306 306 308 308 308 309 308 307 309 309 314 312 314 312 313 313 314 314 312 314 314 314 315
295 296 297 297 298 299 300 300 300 299 300 299 298 298 298 298 298 299 298 298 298 299 299 301 302 302 304 304 304 306 305 306 307 306 308 308 309 307 310 308 308 308 309 312 311 310 311 310 311 312 312 313 312 311
296 297 297 299 299 299 300 299 300 300 299 300 300 298 298 298 298 298 298 299 298 299 303 303 299 301 302 304 304 304 304 304 305 306 307 309 308 307 308 308 308 308 308 309 309 309 310 309 311 311 311 311 309 307
296 297 299 299 299 300 299 300 300 301 300 300 300 300 298 297 298 299 299 299 299 301 303 303 302 301 303 304 304 304 304 306 307 307 308 310 307 308 309 310 309 308 307 310 309 311 311 310 310 309 309 309 306 304
298 298 299 299 300 300 300 300 300 300 301 300 300 298 298 298 297 297 295 299 299 300 303 304 302 302 303 303 303 304 305 305 306 307 307 307 308 309 310 310 308 310 307 306 309 305 305 306 307 304 304 305 302 300
299 299 299 300 299 301 300 300 300 301 301 300 300 299 299 298 296 298 301 297 299 299 302 303 304 303 302 303 304 305 304 302 304 304 307 308 309 308 310 310 306 302 300 300 301 301 305 304 302 298 298 300 298 296
299 299 300 299 300 300 300 300 300 301 301 300 301 300 299 297 297 299 298 299 299 301 302 304 304 304 302 304 306 304 304 303 303 305 306 308 308 308 311 299 297 296 297 299 296 296 297 298 295 293 292 293 293 291
299 299 300 299 300 300 300 300 300 301 300 300 300 299 297 296 298 300 298 299 299 301 302 303 305 306 303 303 304 304 304 306 304 304 307 308 309 307 293 293 292 291 291 292 293 296 295 294 291 290 289 288 288 287
296 299 300 299 300 300 300 300 300 300 300 299 297 297 298 299 298 298 298 296 298 301 302 305 303 307 304 304 305 305 305 308 309 308 302 304 297 291 290 289 289 289 289 289 292 295 292 292 291 288 287 286 285 284
294 299 300 299 298 299 300 300 300 299 300 300 299 299 300 299 299 300 302 302 301 302 301 303 303 305 303 305 305 304 307 306 308 305 308 303 298 291 289 288 287 287 287 287 288 287 288 287 288 286 285 284 281 281
293 298 300 299 299 299 299 300 300 299 299 299 297 294 295 295 301 303 303 302 303 303 301 304 303 304 301 300 304 304 308 305 307 299 302 300 291 288 287 286 286 286 286 285 285 285 284 284 284 283 282 281 279 278
293 297 299 299 299 299 299 297 297 297 298 295 294 292 295 291 296 301 302 301 301 297 297 299 303 302 301 298 303 305 304 301 298 299 296 291 288 287 286 285 284 284 284 284 283 282 282 281 280 280 279 278 278 277
293 298 297 298 299 300 300 298 294 295 292 293 293 291 291 291 292 292 294 295 293 294 295 299 301 301 299 300 299 301 296 297 298 297 293 289 286 286 285 285 283 282 282 281 281 279 279 279 279 278 277 277 276 276
291 292 291 290 290 294 298 298 292 290 289 289 290 290 289 288 288 288 289 291 291 292 296 300 299 299 296 296 295 296 296 294 292 291 288 286 285 284 284 284 283 282 281 281 280 279 278 278 278 277 276 276 276 275
296 292 291 291 290 289 290 290 289 288 287 286 286 289 288 290 289 289 289 291 289 291 295 297 297 296 294 292 292 291 292 291 287 286 285 284 283 282 282 282 282 281 281 280 279 279 278 277 277 276 275 275 274 274
296 295 290 289 289 288 288 288 286 286 286 286 286 285 285 287 286 286 286 287 287 293 296 294 294 292 291 290 288 286 286 285 283 282 282 282 282 281 281 280 280 280 280 280 279 278 278 277 277 276 276 275 274 273
293 294 295 295 294 289 287 286 286 286 285 286 286 285 285 284 286 286 286 287 289 290 290 289 288 288 288 288 286 284 282 282 281 281 280 280 279 279 279 279 278 278 278 277 277 277 277 277 277 276 275 274 274 273
293 294 293 292 291 290 289 287 286 285 285 285 285 285 285 284 284 284 285 286 285 286 287 287 285 285 284 284 284 283 283 282 281 280 279 277 278 277 277 277 277 276 276 276 276 275 274 274 275 275 274 274 274 273
293 293 294 292 292 291 289 288 286 286 286 285 285 285 284 284 283 283 283 284 284 284 283 283 283 283 284 283 283 283 282 281 281 281 280 279 277 277 277 277 276 276 275 274 274 274 274 273 272 272 272 272 272 271
293 292 292 291 291 290 290 288 287 287 286 286 285 285 284 284 284 284 282 282 282 282 282 282 282 281 281 281 281 281 281 281 282 282 280 279 276 276 275 275 274 274 275 274 274 272 272 272 271 270 270 270 269 269
292 291 291 292 292 291 290 289 289 288 288 287 286 285 286 285 284 282 281 282 281 280 281 281 281 281 280 280 278 278 277 277 276 275 275 275 276 275 274 274 274 273 272 272 272 272 271 270 269 269 269 268 268 268
292 291 290 290 292 292 291 290 290 289 289 288 286 285 284 284 282 282 282 280 280 279 279 279 278 277 277 276 275 275 275 275 275 274 274 273 272 272 272 272 272 272 271 270 270 270 269 267 267 268 268 268 268 267
289 285 287 289 291 289 287 289 288 288 288 287 286 284 283 283 281 282 281 280 279 279 279 278 278 277 276 276 276 275 274 274 273 273 272 273 272 271 271 270 270 270 269 269 269 268 268 267 267 268 267 267 267 267
289 284 287 287 287 288 288 287 286 287 287 286 285 284 282 282 282 281 281 280 279 279 278 277 277 277 277 276 275 273 273 274 274 273 271 272 271 271 270 269 269 268 268 269 268 268 267 266 266 267 266 267 266 266
285 282 286 286 287 288 287 287 286 286 286 284 282 280 280 281 281 281 280 280 279 278 277 278 278 277 276 275 275 274 272 272 272 273 270 270 270 271 271 271 270 268 266 267 267 267 267 266 266 265 265 265 264 265
284 283 282 279 283 284 284 284 283 284 284 284 281 280 280 280 279 278 278 277 278 275 275 275 275 276 275 273 271 270 270 270 270 270 268 267 267 267 268 269 268 267 265 265 266 266 267 266 265 265 265 265 264 264
280 280 281 277 277 278 279 279 280 280 281 278 279 277 278 278 278 277 276 274 274 273 272 272 272 272 272 270 269 268 268 267 267 267 267 267 266 265 265 265 264 264 264 264 264 264 265 265 265 265 264 264 264 263
278 277 276 272 275 275 275 276 278 276 275 277 277 276 276 274 273 274 273 273 272 273 272 271 269 269 268 268 267 268 268 269 270 270 270 270 269 267 264 264 264 264 263 264 264 264 264 263 263 263 263 263 263 262
277 276 275 273 273 275 274 273 274 272 273 274 275 274 274 272 271 271 272 273 274 273 271 271 269 271 270 271 269 268 267 267 267 268 270 269 268 265 264 264 264 263 263 263 264 264 263 263 262 263 262 263 263 263
276 276 276 275 275 274 273 271 272 273 273 274 275 275 274 274 272 269 269 269 269 269 270 270 268 269 269 269 270 270 270 266 266 266 265 265 264 264 263 264 263 263 262 262 262 262 262 263 263 262 263 262 262 260
276 275 275 275 275 274 272 274 275 275 275 276 275 273 273 275 274 272 267 268 270 271 270 270 271 271 269 268 268 267 266 266 265 265 264 264 263 263 263 262 262 262 262 261 261 261 261 261 261 261 261 261 260 259
276 277 277 276 276 276 274 275 276 276 275 276 274 271 271 274 274 271 268 269 269 270 270 269 269 269 268 266 266 265 265 264 264 264 263 263 263 262 262 262 262 262 261 260 261 260 260 260 261 260 260 259 259 258

GFSWCAN_925_thetae_075.txt.gz
Theta_e
293 294 294 295 296 296 297 298 298 299 299 297 297 298 297 296 296 296 295 296 298 301 300 300 301 303 304 304 306 307 308 306 306 311 310 310 310 310 309 311 313 314 314 314 314 316 315 311 313 315 318 316 315 315
293 294 295 295 296 297 298 298 298 299 299 298 298 298 297 297 297 296 297 296 297 299 300 299 299 299 301 304 305 305 306 307 307 309 309 309 311 310 309 310 311 314 312 313 311 312 313 315 315 314 314 314 314 314
293 294 295 296 296 297 298 299 299 300 300 300 299 298 298 298 298 298 298 297 298 298 300 301 302 301 301 301 304 306 306 305 308 308 310 312 312 309 311 310 310 311 312 315 315 314 314 314 311 314 313 313 313 312
294 295 295 296 298 298 299 299 299 300 299 300 299 299 298 297 298 298 298 297 298 299 301 302 300 300 302 302 302 303 304 305 305 307 308 310 311 308 309 309 310 309 310 310 310 310 310 310 312 312 311 311 311 309
295 296 297 298 299 299 299 299 300 300 300 300 299 299 299 298 298 298 297 298 298 301 303 301 301 302 300 300 303 304 305 305 306 306 307 310 308 309 310 310 311 309 309 310 310 313 313 312 310 309 309 308 307 306
298 299 299 299 299 299 299 300 299 300 300 300 300 300 299 298 298 299 295 298 299 299 303 305 303 302 302 301 303 305 306 305 305 305 307 309 308 309 312 310 308 309 310 307 310 307 308 308 307 303 303 302 303 304
298 298 299 299 300 299 299 300 301 300 300 301 300 300 299 298 298 298 301 298 299 299 302 303 305 304 303 304 305 306 304 305 304 304 307 308 309 309 311 310 306 304 304 304 303 303 307 304 303 299 299 298 297 297
298 299 299 300 300 300 300 300 300 300 300 301 300 299 298 298 297 298 299 299 299 299 302 306 306 305 303 305 306 305 301 303 304 305 305 309 309 309 312 302 300 298 299 302 299 299 300 298 295 294 293 294 294 292
296 299 299 300 300 299 300 300 300 300 300 301 300 298 297 296 298 298 299 300 300 301 305 305 306 306 303 304 305 305 305 307 304 306 306 307 309 308 296 295 295 294 294 294 295 298 297 296 295 293 292 292 291 289
295 299 298 299 300 300 300 301 301 301 300 299 296 297 298 298 299 298 298 298 299 302 304 305 306 306 305 305 306 307 306 307 309 306 305 308 297 293 293 292 292 291 291 291 293 295 293 294 293 290 288 287 287 285
297 299 298 299 299 300 299 299 299 297 298 298 297 300 299 299 299 299 302 303 303 305 304 305 305 306 304 306 306 304 307 307 310 307 310 308 300 292 290 290 289 289 290 290 290 288 288 289 289 288 286 285 283 282
298 299 299 299 299 299 299 299 300 301 301 300 298 297 296 298 301 304 304 303 304 305 303 304 304 305 304 303 306 305 308 307 309 304 308 305 293 290 289 288 287 287 287 287 287 287 286 286 285 284 283 282 281 280
297 299 299 298 298 300 300 299 299 298 298 298 298 297 300 297 301 305 304 303 304 301 301 301 303 303 301 301 305 306 309 305 302 305 302 294 290 288 287 287 285 285 285 285 284 283 283 282 282 281 280 279 279 278
297 295 297 299 299 297 295 293 294 294 296 296 298 295 298 298 296 296 298 299 296 298 299 303 304 304 303 302 303 305 300 301 302 303 297 291 288 287 286 286 285 283 283 282 281 280 280 280 279 279 278 278 278 277
296 293 291 291 296 296 298 294 293 292 292 293 293 295 293 292 292 292 293 295 295 296 299 304 303 302 300 299 298 299 299 299 297 296 291 288 286 286 285 285 284 283 282 282 281 280 280 279 278 278 277 277 276 276
293 294 294 290 289 290 291 292 291 290 289 289 290 293 292 295 294 293 294 295 293 295 298 302 301 300 297 297 297 295 298 297 291 289 287 286 284 284 284 283 283 282 282 281 280 280 279 278 278 277 276 275 275 275
296 294 289 290 289 290 290 291 289 289 289 289 289 288 291 291 291 290 291 291 292 297 298 299 299 295 295 295 293 290 291 288 287 285 284 284 284 283 282 282 282 282 281 281 280 279 279 278 278 277 277 276 275 274
297 294 292 293 293 291 289 289 289 289 288 289 289 289 288 289 290 290 290 291 294 295 295 293 293 293 293 293 291 286 285 284 284 283 283 282 281 281 281 281 280 280 280 279 279 279 279 279 278 277 277 276 275 275
296 295 294 294 293 292 291 289 290 288 288 288 288 288 288 288 287 288 288 288 289 290 291 290 289 289 288 288 286 285 285 285 284 283 282 280 280 280 280 279 279 279 279 279 278 277 277 277 277 277 277 277 276 275
293 292 292 292 293 292 290 290 289 290 290 288 288 288 287 287 287 287 287 287 287 287 286 286 286 287 286 286 286 285 284 284 284 284 283 281 280 280 280 280 279 278 278 278 277 277 277 276 275 274 275 275 275 274
294 293 292 293 292 291 291 291 290 289 289 289 288 288 287 287 287 287 287 286 286 285 285 284 284 283 283 284 284 283 283 284 285 285 283 281 279 279 279 278 278 278 279 278 277 275 275 275 274 274 273 273 272 271
294 292 294 293 292 291 291 290 290 290 290 289 289 289 289 289 287 285 285 285 283 284 284 284 283 283 282 281 280 280 280 279 279 279 278 279 280 279 278 278 278 277 277 276 276 275 274 273 273 272 272 271 271 271
292 293 293 294 295 292 291 292 291 291 291 289 289 288 288 288 285 285 285 283 282 281 281 281 280 280 279 279 278 278 279 279 279 278 278 277 277 276 276 275 275 275 275 274 274 274 272 270 270 271 271 271 271 270
289 289 292 294 293 291 291 291 290 291 291 290 289 288 287 287 285 286 284 283 282 281 281 280 280 281 280 279 280 278 277 277 277 277 276 276 276 275 274 274 273 273 272 272 272 272 271 270 269 271 270 270 270 270
291 286 290 291 292 292 291 291 290 290 290 289 288 288 286 286 287 286 285 282 282 282 281 280 281 281 282 280 278 276 276 277 277 276 275 275 275 274 274 273 272 271 271 272 272 271 270 270 270 270 269 270 269 269
288 285 289 291 291 292 291 291 291 290 289 288 286 285 286 287 286 285 284 283 282 281 281 281 281 281 280 279 279 278 276 275 275 276 274 273 273 274 275 274 274 272 270 270 271 271 270 269 269 268 268 267 266 267
288 287 284 284 288 289 290 289 289 289 288 287 286 285 286 285 284 281 280 281 281 279 279 279 279 280 279 277 275 274 273 272 273 273 271 270 270 270 271 272 271 270 268 268 269 269 270 269 268 268 268 268 268 267
283 283 284 282 283 285 285 286 286 285 285 282 284 282 283 283 283 281 280 278 278 277 276 276 276 276 275 274 273 272 271 270 270 270 270 270 269 268 268 268 267 266 267 266 267 267 267 268 268 268 267 267 267 267
282 281 279 277 280 280 280 282 282 280 279 282 282 281 279 277 277 277 276 276 276 276 276 275 273 273 272 272 272 272 272 273 273 272 272 273 273 270 268 267 267 267 267 267 265 265 266 266 266 266 266 266 266 265
280 281 279 277 278 279 277 278 278 277 277 278 277 276 276 275 275 275 276 276 277 277 276 275 274 275 274 274 272 271 270 270 269 271 273 272 271 268 267 267 267 266 266 266 266 266 265 265 266 265 266 266 266 267
281 281 280 279 278 277 277 276 277 277 279 279 280 279 277 276 274 273 273 274 274 274 274 273 273 273 273 273 274 273 272 268 266 266 267 267 267 267 266 265 265 265 265 265 265 265 265 265 266 266 266 266 265 264
280 280 279 278 278 277 278 281 280 280 280 280 279 278 278 279 278 275 271 273 274 275 273 274 274 273 271 270 268 267 267 266 265 265 266 266 266 264 264 263 263 264 264 264 264 264 264 264 264 265 264 264 264 263
281 281 280 280 279 280 279 282 281 280 281 280 278 277 277 279 278 274 269 270 273 274 273 272 271 269 268 267 267 266 266 265 264 264 264 263 263 263 263 263 263 263 263 263 264 264 264 264 263 263 263 262 262 262

GFSWCAN_925_thetae_078.txt.gz
Theta_e
292 292 293 293 294 294 295 296 296 297 297 298 298 298 298 298 298 296 297 297 298 299 299 299 300 300 303 304 306 306 307 308 308 308 308 308 311 311 311 311 314 313 314 315 314 314 315 312 313 316 319 317 315 315
291 292 293 293 294 294 295 296 296 297 298 298 299 299 297 298 298 295 297 296 297 298 298 299 299 299 300 302 304 305 305 306 307 307 308 309 312 314 311 311 313 316 312 313 312 312 312 315 317 315 314 315 314 313
292 293 293 293 294 295 295 296 298 299 299 299 299 299 298 298 297 296 296 296 297 298 299 299 300 300 301 300 302 302 306 306 306 305 309 311 312 311 313 311 310 312 312 315 315 312 314 315 314 313 312 312 311 310
293 293 294 295 296 296 297 298 299 299 299 299 299 300 299 298 298 297 296 296 297 298 298 300 300 300 300 301 302 301 304 304 305 304 305 309 310 310 312 310 311 311 313 313 314 313 313 312 311 310 310 309 308 307
293 295 296 297 298 298 299 299 299 299 299 300 300 300 299 298 298 298 297 297 297 299 302 302 300 301 301 300 301 303 304 306 306 306 306 308 308 310 311 311 310 311 311 313 316 311 313 310 307 306 306 305 305 305
294 297 299 298 299 299 299 299 299 299 300 300 300 300 299 299 298 299 295 297 297 298 301 306 303 302 301 302 302 304 305 306 305 305 305 308 308 310 311 311 309 308 307 306 307 305 308 306 302 301 302 301 301 300
297 297 297 297 298 299 300 300 300 299 299 300 300 300 300 299 299 297 300 299 298 298 302 303 304 304 303 303 304 304 305 305 305 303 305 308 308 309 312 309 305 301 303 303 301 303 307 301 300 297 297 298 297 294
296 295 295 299 299 299 300 300 300 300 299 300 300 300 300 299 298 298 300 299 298 299 301 303 306 305 304 306 306 305 304 303 303 305 306 307 307 309 310 302 299 297 299 298 297 300 299 298 297 296 295 295 295 291
295 295 298 298 298 300 300 300 301 301 300 300 301 300 297 296 297 298 299 299 299 300 302 304 306 307 304 304 305 305 302 304 304 306 307 307 308 303 297 296 295 294 294 294 295 297 297 296 294 292 291 290 289 287
294 296 299 300 299 299 300 300 300 300 301 299 297 296 297 298 298 299 299 296 299 301 303 305 306 306 305 306 307 306 306 307 307 306 306 306 298 295 294 293 292 292 292 292 293 293 292 293 292 289 287 286 286 284
297 299 300 300 300 300 300 300 300 298 298 297 298 300 298 299 298 298 300 303 301 304 304 305 305 306 305 306 306 306 307 307 308 308 308 306 299 293 291 290 289 289 290 289 290 289 289 289 289 287 286 284 283 282
298 298 299 297 297 299 299 298 298 299 299 300 298 297 297 298 300 303 305 304 305 305 305 306 306 305 305 304 306 303 306 307 308 306 309 301 293 290 289 288 287 287 287 287 286 286 285 285 285 284 283 281 281 280
299 297 298 299 299 298 299 299 299 298 299 299 299 299 302 299 305 305 304 305 304 303 302 304 304 302 303 303 305 307 306 307 304 307 300 294 290 288 288 287 285 284 284 284 284 282 282 281 281 280 280 279 278 278
298 298 296 296 298 297 297 296 296 296 296 298 299 296 300 299 297 297 299 300 297 299 300 304 303 304 301 303 303 307 301 302 305 305 296 290 288 287 287 286 284 283 283 282 281 280 280 280 279 279 278 278 277 277
292 295 296 295 294 293 293 292 293 294 294 294 296 296 294 293 294 295 296 297 296 296 299 303 304 302 302 301 301 301 301 302 297 295 291 287 286 286 285 285 284 283 283 282 281 280 279 279 278 277 277 276 276 275
294 295 292 290 290 291 293 293 292 292 291 291 291 295 295 296 295 295 296 296 295 296 300 304 303 300 298 299 298 298 301 297 292 289 287 286 285 284 284 283 283 282 282 281 280 279 279 278 277 276 276 275 275 275
297 295 291 290 290 291 292 292 291 290 290 290 291 291 294 293 293 293 293 294 294 299 301 302 299 297 297 297 294 291 291 289 287 285 285 284 284 283 282 282 282 282 281 281 280 280 279 279 278 278 277 276 275 274
298 291 292 293 295 293 291 291 291 290 290 291 291 290 290 291 292 291 291 294 296 296 296 294 295 294 294 295 291 287 286 286 285 284 283 283 283 283 282 282 281 281 281 280 280 280 279 279 278 277 277 276 276 275
297 295 295 294 294 293 292 291 291 290 290 290 290 290 290 290 289 289 291 291 291 292 292 292 291 290 289 288 287 286 286 285 284 283 282 282 281 281 281 281 280 280 280 280 279 279 278 278 278 278 278 278 277 276
293 292 292 292 294 293 292 292 292 291 292 290 290 289 289 289 289 289 290 289 289 288 287 288 288 288 288 287 287 286 286 285 285 284 283 282 281 281 282 281 280 279 279 279 279 278 278 277 276 275 275 276 276 275
293 292 293 294 293 293 293 292 291 291 291 290 290 289 289 289 289 289 287 286 287 287 286 286 285 284 285 285 285 284 284 285 285 286 283 282 281 281 280 280 280 280 280 279 278 277 276 276 275 275 275 274 273 272
294 294 294 293 293 292 292 291 291 291 291 291 291 291 291 290 288 287 286 285 285 286 285 284 284 283 282 282 281 281 281 281 281 281 280 280 281 280 280 279 279 279 278 278 277 277 275 274 273 274 273 272 272 271
293 294 295 294 294 292 292 293 293 293 292 291 291 291 290 289 287 287 285 283 283 283 282 282 281 281 281 280 280 281 281 281 280 280 280 279 278 278 277 277 277 277 277 275 275 275 273 271 271 272 272 272 272 270
291 291 294 295 293 292 292 292 292 292 292 292 290 290 290 288 288 287 285 284 283 282 282 282 282 281 281 281 280 279 279 279 279 278 278 278 278 276 276 275 275 274 274 274 274 273 273 272 270 272 271 272 271 271
293 288 292 293 294 293 292 292 292 292 292 291 290 289 288 289 289 288 286 283 284 283 282 282 283 284 282 281 279 278 278 279 279 277 276 277 276 276 275 274 273 272 272 274 273 273 272 271 271 271 271 271 270 270
289 287 291 293 293 294 293 293 293 292 291 289 288 288 289 289 288 287 286 285 284 282 283 283 283 282 282 281 280 278 277 276 277 277 275 274 274 275 276 275 275 273 271 271 272 272 271 270 270 269 270 268 268 267
289 288 287 287 291 291 292 292 291 291 290 288 288 288 289 287 285 283 284 283 283 281 281 281 281 281 280 278 276 275 274 273 274 273 272 272 271 271 272 272 272 270 270 269 270 270 271 270 270 269 269 269 269 269
285 286 286 286 286 287 288 288 288 288 286 285 287 285 286 286 284 283 282 280 279 279 278 278 278 277 277 276 275 274 272 272 272 272 272 271 271 270 269 268 267 267 267 267 267 268 268 269 269 269 269 268 268 267
285 283 281 279 282 282 282 284 284 281 281 285 285 283 280 280 280 279 279 278 278 278 277 276 275 275 274 274 274 274 274 274 274 273 273 274 274 270 269 269 268 268 268 268 267 266 266 266 267 266 267 267 267 267
283 284 281 280 280 280 279 281 280 279 280 279 278 278 278 278 277 277 278 278 279 278 277 276 276 276 276 275 273 273 272 271 270 271 273 273 271 269 269 269 268 268 267 268 268 268 267 267 267 266 266 266 267 267
284 284 282 281 280 279 279 281 281 282 282 281 280 278 277 276 275 275 276 276 276 276 276 276 275 275 274 275 275 274 272 268 267 267 268 269 268 268 267 266 266 266 266 266 266 266 266 265 267 267 267 267 266 265
284 282 281 279 279 280 280 283 283 282 281 281 280 280 280 280 278 276 274 276 276 277 275 276 275 273 272 270 269 269 269 268 267 267 267 267 267 265 265 265 265 265 265 265 266 265 266 265 265 265 265 265 265 264
284 283 282 281 280 281 281 284 283 282 282 282 280 281 280 281 278 274 272 272 275 275 275 273 271 270 269 269 268 267 266 266 265 265 264 264 264 264 265 265 265 265 264 265 265 265 265 265 265 264 263 263 263 263

GFSWCAN_925_thetae_081.txt.gz
Theta_e
294 293 292 292 292 292 293 294 294 295 295 296 297 297 298 298 298 298 296 296 297 298 297 298 298 299 300 301 303 302 302 303 305 302 305 304 304 308 310 311 313 311 310 310 310 310 312 312 314 317 316 314 313 312
293 292 292 291 292 293 293 294 294 295 296 296 297 298 298 299 298 298 296 295 297 296 296 297 298 298 299 299 301 302 301 304 306 305 305 305 304 307 310 313 312 314 311 311 310 310 313 314 316 314 313 313 312 310
292 291 291 292 293 293 294 295 295 296 296 298 299 299 298 299 298 298 296 296 297 297 296 296 296 296 298 300 301 300 303 303 306 301 304 306 308 309 310 309 312 313 311 314 312 314 313 312 310 309 309 308 308 306
290 291 292 293 294 295 296 297 297 297 297 298 299 299 299 299 297 298 296 296 296 296 292 295 296 298 297 298 299 301 301 300 303 301 303 304 308 308 310 309 310 312 312 312 313 312 311 308 307 306 306 305 305 303
290 292 293 294 295 298 298 298 298 298 299 299 299 299 300 299 298 298 296 296 296 295 298 299 300 299 300 300 298 301 301 302 302 304 305 306 306 308 308 309 312 309 309 314 311 306 308 305 304 303 303 302 299 299
292 293 294 296 297 298 298 299 299 299 299 299 300 300 300 299 298 297 295 296 295 296 298 299 301 301 301 301 300 300 302 302 302 303 303 305 306 309 306 310 305 302 302 301 301 303 301 299 298 298 299 297 294 292
293 294 296 296 295 295 298 299 299 299 300 300 299 300 300 299 299 297 298 297 297 296 297 301 299 303 302 302 300 300 302 302 304 303 304 303 306 307 306 308 299 297 300 297 297 302 301 297 296 295 295 293 291 288
294 296 296 295 296 298 298 298 298 300 300 300 300 300 300 299 298 298 299 300 297 297 298 300 300 304 302 302 301 301 302 303 303 304 304 304 306 306 303 297 295 294 295 294 296 298 297 294 292 291 290 290 288 287
296 295 294 295 298 299 299 299 299 300 300 300 299 300 297 295 296 298 299 298 298 298 300 299 301 306 302 303 302 302 302 303 303 303 304 305 304 296 296 293 292 292 292 292 293 292 293 292 289 288 288 287 286 285
294 295 299 299 299 299 299 299 300 300 300 300 298 295 295 297 298 298 298 299 298 300 301 300 302 305 302 302 301 303 303 304 306 304 304 302 296 293 291 290 290 289 290 290 290 290 290 291 288 286 285 284 283 282
297 299 298 299 300 300 300 301 300 300 298 297 296 298 299 298 298 296 297 299 299 300 298 302 303 304 304 304 304 302 304 303 304 303 303 301 295 292 289 288 288 288 287 288 287 287 287 287 286 284 283 282 281 279
298 298 299 301 300 300 299 299 298 298 298 298 298 298 297 297 298 301 302 300 300 301 302 300 304 304 302 303 301 301 303 303 305 303 306 296 291 289 288 286 285 285 285 284 284 283 283 282 282 281 280 279 279 278
298 299 298 298 298 297 298 298 299 298 299 299 298 298 300 297 302 304 300 300 303 301 301 303 302 300 301 301 301 303 303 304 300 304 293 290 288 287 286 285 283 282 282 282 281 280 280 279 279 278 277 277 276 276
298 298 297 297 296 296 297 297 297 297 297 297 297 294 297 298 294 294 298 298 297 298 300 299 301 300 299 301 299 304 299 300 303 298 289 286 285 285 285 284 282 280 279 278 278 278 278 278 277 277 276 276 276 275
295 297 298 296 295 294 293 294 295 293 293 293 294 295 292 291 293 295 296 296 295 295 298 301 297 298 296 296 295 296 297 297 293 287 284 283 282 282 280 281 279 279 277 278 279 278 277 277 276 276 276 275 275 275
294 291 290 293 292 293 293 292 291 291 291 290 290 294 294 293 292 293 295 295 294 295 296 298 300 297 298 297 297 292 297 289 286 285 283 280 281 281 281 280 280 281 280 279 279 278 277 276 276 275 275 274 274 274
295 294 290 291 291 293 293 291 290 290 290 290 289 288 291 290 292 291 292 293 293 296 295 297 297 297 296 296 289 285 283 283 283 283 283 281 279 279 280 281 281 281 280 280 279 278 277 276 276 276 275 274 274 273
292 291 293 295 294 292 291 291 291 290 290 290 288 288 287 289 290 290 288 289 291 292 293 293 293 288 286 289 285 284 284 284 283 282 282 282 282 282 281 281 281 280 280 279 279 278 278 278 277 277 276 275 275 274
292 294 294 293 293 292 292 292 290 290 290 289 288 287 287 287 287 287 288 289 289 289 290 289 285 286 285 285 285 284 282 280 281 280 279 281 281 281 280 280 280 280 280 279 279 278 278 278 277 277 277 277 275 274
295 293 293 293 294 293 292 291 291 291 291 289 289 288 288 289 288 285 286 287 287 286 285 285 285 286 286 286 284 283 280 281 281 281 281 280 281 280 280 280 279 279 278 278 278 278 277 276 275 275 275 274 273 272
293 293 294 294 292 293 292 291 290 290 290 290 289 289 288 287 287 286 285 285 285 285 285 284 282 282 282 283 282 281 281 281 284 281 279 280 281 280 280 280 280 280 280 278 277 276 275 274 274 274 273 272 271 271
294 294 293 292 292 291 290 291 290 290 290 291 291 291 290 288 286 286 285 284 283 284 282 281 281 281 280 280 281 281 281 281 281 280 280 280 278 279 278 279 278 277 276 276 276 274 273 273 273 273 272 272 271 271
294 295 295 294 290 288 291 292 292 292 290 290 291 290 289 286 286 285 281 282 282 281 281 281 281 281 280 281 281 281 281 280 280 279 279 278 278 277 276 276 275 275 275 274 274 273 272 271 271 272 271 271 270 270
291 290 291 290 290 291 291 291 292 292 291 292 289 289 288 286 286 283 283 282 281 281 280 281 281 280 280 280 278 278 279 278 278 277 277 277 276 275 275 274 274 273 273 273 273 272 272 271 271 272 271 271 271 271
287 285 288 288 290 287 286 288 290 290 287 289 287 286 285 288 285 284 281 282 281 280 279 282 282 282 279 276 277 277 277 278 276 275 275 276 276 275 274 273 272 272 272 273 273 272 271 271 271 270 270 270 269 269
284 283 288 289 289 289 289 287 287 287 286 285 284 285 286 285 283 284 284 283 281 278 279 280 278 280 279 279 277 275 275 276 276 274 273 273 272 273 273 273 271 271 270 271 271 271 271 270 270 269 269 269 268 268
283 284 287 287 291 291 287 288 289 286 284 283 283 283 281 278 278 282 283 281 281 281 280 281 281 278 276 275 274 273 273 274 273 272 272 271 271 271 271 270 269 268 269 269 269 269 269 269 269 269 269 269 269 268
284 285 281 283 282 284 283 283 282 282 281 284 281 278 278 277 280 280 280 279 278 277 276 276 277 276 275 274 273 272 272 272 272 272 271 270 270 269 269 268 267 268 268 268 267 267 267 267 267 268 268 268 267 267
282 282 279 276 278 278 279 280 279 280 280 282 276 276 276 279 279 279 278 277 277 276 275 275 274 274 274 274 274 273 272 273 274 267 266 268 269 269 268 268 268 267 268 268 267 267 267 266 266 266 266 266 266 266
281 282 278 275 274 277 278 280 275 276 276 276 278 278 277 277 278 278 278 278 278 277 276 275 275 274 274 273 272 271 270 270 271 271 267 266 269 269 268 268 267 267 267 267 267 267 267 266 266 266 267 267 267 266
283 281 278 277 276 278 280 280 280 278 277 276 274 275 274 274 275 276 276 276 276 276 276 275 275 275 274 273 272 270 268 267 267 268 268 268 268 268 267 266 266 265 266 265 265 265 265 265 265 265 266 265 265 265
280 277 275 276 278 279 280 278 276 277 277 275 274 273 273 272 272 274 274 275 276 276 276 274 272 271 271 269 270 269 268 267 266 267 267 267 267 266 265 265 265 265 265 265 265 265 265 265 265 265 265 264 264 263
279 278 278 276 275 276 278 278 279 280 278 277 276 277 273 272 271 272 273 273 275 274 273 272 271 270 269 269 268 268 267 266 265 265 265 265 264 264 265 265 265 264 264 264 264 265 265 265 265 264 264 263 263 262

GFSWCAN_925_thetae_084.txt.gz
Theta_e
291 292 293 294 292 292 292 292 293 294 294 294 295 295 296 297 298 298 297 295 295 293 295 296 297 297 298 300 302 301 298 300 304 302 303 304 302 305 307 308 309 311 311 308 307 309 310 313 314 315 314 310 310 310
291 293 294 293 292 292 292 293 294 294 294 294 294 295 296 297 298 298 298 296 295 294 294 296 296 297 296 297 298 301 300 302 305 307 303 304 302 301 306 309 311 312 311 310 308 307 311 311 313 311 310 310 309 308
292 293 293 292 291 292 293 293 294 295 295 295 295 296 297 299 298 298 297 296 296 296 296 295 295 295 295 296 298 296 300 300 299 298 303 303 305 307 307 309 312 308 307 312 312 311 310 309 307 307 306 306 304 304
292 293 291 291 291 292 293 294 295 296 297 297 297 298 299 299 298 299 296 296 295 295 293 294 295 296 296 296 296 299 300 299 299 302 302 303 303 305 306 307 308 309 311 310 311 309 308 306 304 303 301 302 298 296
292 292 291 291 292 292 294 296 298 298 297 297 297 298 299 299 299 298 297 296 296 296 294 295 297 298 298 298 297 298 301 301 301 303 302 302 302 306 307 307 305 304 305 308 307 302 305 302 301 300 298 295 294 293
291 291 291 291 293 294 296 297 298 299 299 299 299 299 299 300 298 297 294 296 296 295 295 295 297 300 301 299 298 298 301 301 303 302 301 304 303 306 307 309 300 301 299 298 303 298 297 296 294 296 294 291 290 289
290 291 292 293 294 296 297 295 296 298 299 299 299 299 299 300 297 297 296 297 296 295 296 298 297 298 301 299 297 297 300 302 301 303 303 303 303 305 304 304 297 295 295 296 299 301 297 295 293 293 291 289 287 285
291 292 293 294 296 296 295 295 297 298 299 299 299 300 300 300 298 297 298 299 296 295 298 299 296 301 300 298 302 300 300 302 301 302 303 304 303 302 299 295 293 292 294 293 294 294 293 291 290 289 289 288 286 285
292 293 294 295 295 295 295 296 297 298 298 299 300 300 300 294 296 298 299 296 297 298 298 299 298 299 301 300 302 301 301 302 300 303 303 301 298 293 292 290 289 289 290 291 292 291 291 289 287 286 286 286 285 284
293 294 295 297 299 299 299 299 299 299 299 300 299 295 294 297 298 297 298 296 297 299 300 300 297 302 302 300 300 302 300 302 303 303 303 297 293 290 289 288 288 288 288 288 289 289 290 288 286 284 284 282 281 279
294 296 298 298 299 299 299 300 299 299 299 296 295 296 297 298 297 296 297 298 298 299 298 298 299 303 303 303 302 299 303 302 304 302 303 298 294 289 287 286 286 286 285 285 285 284 284 285 284 283 282 280 279 278
296 299 300 300 300 300 301 300 299 298 297 297 298 298 297 296 297 299 299 299 297 298 298 297 300 303 301 302 302 300 300 303 303 303 297 290 289 287 286 284 284 284 283 282 282 282 282 281 281 280 279 278 277 276
298 297 299 299 299 299 298 299 298 298 299 299 298 297 298 297 300 300 301 301 300 301 301 301 301 300 300 300 301 301 301 302 300 294 290 288 288 286 284 282 281 281 281 280 279 279 279 278 278 277 276 275 275 275
298 297 298 298 298 298 298 298 297 297 297 296 295 290 296 290 288 289 294 298 296 298 300 299 300 300 298 299 296 302 295 297 297 290 289 285 284 283 283 282 280 276 276 275 275 275 275 275 275 275 275 275 275 274
297 296 296 296 295 295 295 293 294 293 291 292 292 289 286 286 287 294 295 295 295 295 298 299 296 296 296 295 295 294 296 293 290 285 281 281 280 280 279 280 278 277 274 275 276 275 275 275 275 275 275 275 274 274
296 295 293 293 293 294 295 294 292 291 290 290 289 292 291 288 290 292 293 294 294 295 296 295 295 292 292 292 291 288 293 287 282 279 281 277 277 276 277 277 277 278 277 277 277 276 276 275 275 274 274 274 274 273
294 292 291 293 293 293 292 291 291 290 290 289 288 285 287 286 287 290 290 290 292 296 292 293 294 295 294 289 284 282 279 277 281 281 278 277 279 277 277 279 279 279 278 278 277 276 276 275 275 275 274 274 273 272
292 291 292 292 292 291 291 290 290 289 288 287 287 286 281 283 285 286 287 288 291 290 290 290 289 285 281 284 280 279 281 282 280 279 278 274 278 280 280 279 280 279 279 279 278 278 277 277 277 276 275 275 274 273
292 294 294 294 293 292 291 290 289 288 287 284 285 285 286 285 285 284 285 285 286 287 287 285 283 281 280 279 281 281 281 279 280 277 276 279 280 280 280 280 280 279 279 279 278 277 277 276 276 276 276 276 275 273
294 293 293 293 292 291 291 291 290 290 288 286 287 288 287 286 285 282 284 286 286 286 284 282 281 281 281 282 280 280 278 279 279 278 276 277 280 279 279 279 278 278 278 278 278 277 276 275 274 275 275 274 273 272
293 293 293 292 292 292 290 290 290 290 289 288 289 288 287 286 284 283 283 284 282 283 282 281 281 281 281 280 280 281 280 280 276 277 277 275 279 280 280 279 279 278 278 276 275 274 275 274 274 273 272 272 271 272
293 293 291 291 290 290 289 288 289 288 290 290 290 290 287 284 283 283 284 282 282 282 282 281 279 280 280 279 280 280 280 280 280 280 280 280 277 276 276 277 276 275 276 275 273 273 273 273 272 272 272 271 270 270
294 294 293 290 287 286 288 290 289 290 289 290 290 289 286 284 285 284 281 282 281 279 279 280 280 280 280 280 280 280 280 279 277 277 277 277 276 275 275 275 275 274 274 273 273 272 272 271 272 271 271 270 270 270
291 289 288 287 287 288 285 287 290 291 290 289 288 288 285 284 284 280 280 278 276 279 278 279 279 279 278 277 276 277 277 277 276 276 276 276 274 274 274 273 273 273 273 273 272 272 272 270 271 271 271 271 270 271
287 284 284 283 283 283 283 283 286 288 285 286 284 283 282 286 281 279 276 278 276 274 275 280 280 279 276 272 275 275 277 277 274 273 274 275 274 273 272 272 271 271 272 273 272 271 271 271 270 270 270 270 269 269
282 280 285 283 284 286 286 284 283 283 283 281 281 283 282 279 278 279 280 276 273 273 273 278 280 278 276 276 274 274 275 275 275 272 271 273 273 274 272 270 270 269 270 270 270 271 270 270 270 269 269 269 269 268
280 280 285 286 288 288 284 284 285 283 280 280 279 277 273 272 273 278 280 276 277 278 280 280 278 276 274 273 273 273 275 275 274 272 271 270 270 270 271 270 269 269 268 268 269 269 269 269 269 269 268 268 268 268
282 281 280 278 277 279 276 277 276 277 276 281 277 273 273 273 277 278 277 276 276 278 278 277 276 276 274 273 272 272 272 271 271 271 270 269 269 269 268 268 268 268 268 267 267 267 267 267 267 267 267 267 267 267
275 278 277 274 275 275 277 275 275 277 278 277 271 271 274 277 275 276 275 275 276 276 274 273 273 273 273 272 273 273 272 272 271 264 262 262 268 268 268 268 267 267 267 267 267 267 267 267 266 266 266 266 266 266
278 278 274 270 272 274 273 272 270 267 273 274 276 277 275 274 276 276 276 276 275 274 274 274 274 274 272 272 270 269 269 270 271 271 262 262 268 268 268 267 267 267 266 266 266 266 266 266 266 266 266 266 266 265
278 273 272 271 275 276 275 274 275 274 268 271 267 270 271 273 275 275 276 276 275 275 274 274 274 273 273 272 271 270 268 268 268 269 269 268 268 267 267 266 265 265 265 265 265 265 265 265 265 265 265 264 264 264
270 269 272 274 276 274 274 268 268 271 266 267 267 265 268 267 268 270 273 275 275 274 274 274 273 271 272 272 271 271 270 268 267 267 267 267 267 266 265 265 265 264 264 264 265 264 264 265 265 264 264 264 263 263
272 270 271 272 272 273 271 273 272 276 273 272 272 271 267 265 268 269 272 274 275 275 274 273 272 270 269 269 269 268 267 266 266 265 265 265 264 264 265 265 264 264 264 264 264 264 264 264 264 264 263 263 262 262

GFSWCAN_925_thetae_087.txt.gz
Theta_e
291 291 291 291 292 293 294 293 292 292 293 294 294 294 294 296 297 297 297 296 294 290 291 295 295 295 297 298 297 297 297 297 302 303 303 303 302 304 306 305 308 307 307 306 308 310 309 311 312 312 311 309 309 309
291 291 291 292 292 294 293 293 292 292 293 294 294 294 294 294 296 297 298 296 295 294 292 295 294 295 296 296 295 297 299 299 303 304 304 304 303 299 305 306 308 304 307 311 308 307 310 308 309 308 309 308 308 307
291 291 291 292 293 293 292 292 292 293 293 294 295 295 295 295 296 297 298 296 295 295 294 293 293 294 296 297 297 294 296 300 300 297 301 303 303 305 303 305 308 306 305 307 310 311 309 307 303 303 301 299 299 300
291 291 292 293 293 291 291 291 292 293 295 295 296 296 296 297 298 298 297 296 295 296 296 294 295 295 295 295 296 297 298 299 299 300 303 302 303 302 303 305 308 307 305 308 307 306 305 304 303 300 298 297 295 292
290 291 292 292 292 292 291 291 293 294 296 298 297 296 297 297 299 299 298 296 296 296 293 293 295 296 296 296 294 295 297 299 300 302 302 302 299 305 304 306 301 302 301 303 305 300 301 299 299 297 295 293 291 290
290 291 292 292 291 291 291 292 295 297 298 298 297 297 298 299 299 297 294 295 296 295 295 293 294 297 298 297 295 297 299 300 301 302 301 300 302 306 300 304 298 297 297 299 302 297 295 294 294 292 291 289 288 286
291 292 292 291 290 291 292 294 296 297 298 299 299 299 299 299 298 297 296 296 296 295 295 296 295 296 300 297 295 295 298 299 301 302 301 301 301 304 303 302 295 295 294 295 296 297 296 292 292 290 288 287 285 284
291 291 291 290 291 292 294 295 297 295 296 298 299 299 300 299 297 297 298 297 296 295 296 296 297 297 299 297 300 298 299 299 302 299 302 303 302 301 298 293 291 291 292 292 292 292 291 290 289 288 287 286 285 284
291 291 290 291 292 294 295 296 296 296 296 298 299 299 299 295 296 297 298 296 296 297 296 298 296 296 298 298 301 300 296 295 298 298 300 302 299 294 290 290 289 289 290 290 291 291 289 288 287 285 285 285 284 282
291 290 291 292 294 295 296 296 296 295 297 299 299 297 294 295 297 296 297 296 297 298 299 298 296 300 302 301 301 301 298 295 303 301 300 296 290 289 288 288 287 287 287 286 289 289 289 286 285 283 282 281 280 279
292 292 293 294 296 297 298 299 299 297 297 297 293 296 296 297 296 296 296 298 297 299 298 298 297 299 301 301 299 297 301 301 303 299 304 296 291 288 286 285 285 284 284 284 284 283 284 284 283 282 281 280 279 278
292 293 296 298 299 298 299 299 299 297 294 294 298 298 297 296 297 298 297 298 297 298 294 297 301 302 299 301 301 300 301 302 302 300 295 288 288 286 285 284 283 282 282 281 282 282 281 281 281 280 279 277 276 275
294 298 300 299 299 299 299 299 298 297 298 298 298 297 299 297 299 293 298 299 298 299 298 301 301 299 299 296 299 298 301 298 299 293 288 286 287 285 283 282 281 280 280 280 279 279 278 277 277 276 275 275 274 274
299 299 298 298 298 299 298 298 298 298 296 296 296 293 296 286 288 289 290 295 296 298 298 299 299 299 297 296 298 302 298 295 293 288 286 284 284 283 282 281 279 276 275 274 273 274 273 274 274 275 274 274 274 273
298 298 297 297 298 298 297 295 295 293 292 293 292 288 286 284 286 291 293 295 295 295 297 297 296 295 293 295 292 291 293 289 289 285 279 279 281 280 278 278 276 275 272 273 274 274 274 274 274 274 274 274 274 273
297 295 294 296 295 295 294 294 291 291 290 290 288 292 289 286 289 290 293 294 294 295 296 296 294 291 292 290 290 287 293 290 282 278 277 277 278 274 275 276 275 276 276 275 275 275 275 275 274 274 274 274 274 273
294 293 292 293 294 294 294 292 291 290 290 288 287 284 281 279 283 289 289 290 290 295 293 290 289 292 291 288 286 283 280 275 279 277 276 274 276 277 276 276 277 277 276 276 276 275 275 275 274 274 273 273 273 272
292 293 292 292 292 291 290 290 288 289 288 287 287 285 280 281 282 287 286 287 291 290 289 288 288 284 282 285 279 276 277 277 275 277 275 273 274 277 278 277 278 278 277 277 276 276 275 275 276 275 274 274 273 273
292 293 292 292 292 291 290 289 288 288 287 286 286 284 285 284 284 283 284 284 286 286 286 284 282 280 277 275 276 277 277 277 279 275 274 277 279 279 279 279 279 278 278 278 278 277 277 276 276 276 276 275 274 273
293 293 293 292 292 291 291 290 289 288 287 287 287 287 287 286 284 280 283 285 286 284 281 279 278 280 281 279 275 276 274 277 278 277 277 274 278 279 279 279 279 278 278 277 277 276 275 275 275 275 275 274 273 272
293 293 292 292 291 291 290 290 288 288 288 287 288 287 286 284 283 282 283 282 280 281 280 279 277 279 279 279 279 278 278 278 275 276 275 275 277 279 279 279 278 278 277 276 275 274 275 274 273 273 273 272 272 272
293 292 291 291 290 290 289 288 288 287 288 289 289 288 284 280 280 280 282 280 280 279 278 280 279 279 279 278 279 280 280 280 279 279 279 278 275 275 276 277 277 275 275 274 274 274 273 273 273 272 271 270 270 271
293 293 291 289 289 288 287 290 288 289 286 288 287 286 282 281 282 283 279 281 279 277 279 279 280 280 279 279 279 279 279 279 277 277 277 276 276 276 276 275 275 275 274 273 273 273 272 272 271 271 271 270 270 270
292 289 289 287 288 288 284 285 289 290 289 288 286 285 284 283 283 278 278 276 277 278 278 279 278 277 278 277 275 276 276 277 275 274 275 275 273 272 273 273 273 273 273 273 272 271 271 271 270 271 271 271 270 270
287 284 284 283 283 283 283 282 285 286 284 284 283 282 282 283 278 275 277 275 275 272 273 278 278 277 275 272 274 276 276 277 275 272 273 274 273 272 271 271 271 271 272 272 272 271 271 271 270 270 269 270 269 269
282 279 284 281 282 285 284 284 282 283 281 280 280 281 279 275 274 275 278 274 270 271 268 274 274 275 275 275 273 274 275 275 275 272 271 272 273 273 270 269 269 269 270 269 270 270 270 270 269 269 268 269 268 268
279 280 284 283 285 286 282 282 284 281 279 279 279 276 273 271 273 277 276 274 275 278 280 280 279 277 274 273 274 274 274 274 274 272 270 270 270 270 271 270 269 269 268 268 268 268 269 269 269 268 268 268 268 268
282 280 282 276 277 278 275 276 276 276 275 280 276 271 272 274 276 275 273 275 278 278 277 277 277 276 274 273 273 273 272 272 271 270 270 269 269 268 268 268 268 267 267 267 267 266 266 266 267 267 267 267 267 266
276 277 276 273 273 274 275 274 275 277 277 275 269 270 274 275 272 274 274 275 276 277 273 272 271 272 271 271 271 271 271 271 271 262 262 259 267 268 268 267 267 267 267 267 267 267 266 266 266 266 266 266 266 266
277 276 273 270 272 274 271 270 270 269 272 273 275 276 274 273 274 274 275 276 275 273 273 272 272 272 272 272 270 270 270 271 271 271 262 258 267 268 267 267 267 266 266 266 266 266 266 266 265 265 265 265 265 265
275 271 270 272 274 271 271 268 274 272 265 267 266 270 271 272 274 274 274 275 274 274 273 272 272 272 272 271 270 269 268 268 269 269 269 268 268 267 266 266 265 265 265 265 265 265 265 264 264 264 264 264 264 263
267 267 271 272 274 271 270 265 267 268 266 268 269 265 266 266 266 269 272 273 274 273 273 273 273 272 272 272 272 271 271 268 268 267 267 267 267 266 265 265 265 264 264 264 264 264 264 264 264 264 264 264 263 263
268 266 267 272 272 273 270 271 270 273 269 270 269 266 262 263 267 268 272 273 275 275 274 273 272 271 270 269 268 267 267 266 266 266 265 265 264 264 264 264 264 263 263 263 263 263 263 263 263 263 262 262 262 261

GFSWCAN_925_thetae_090.txt.gz
Theta_e
292 292 291 292 291 291 292 292 294 294 293 292 293 294 294 294 295 296 297 296 294 293 291 293 294 294 295 296 295 296 296 296 302 302 304 303 302 303 305 304 307 306 306 305 307 308 308 308 310 310 310 308 307 305
292 292 291 292 291 291 292 293 294 293 293 292 293 294 294 294 294 296 297 296 295 295 293 294 294 294 295 296 294 295 297 297 302 298 301 302 305 300 303 306 306 302 307 310 308 307 308 305 305 303 304 303 304 303
291 292 291 291 291 291 292 293 293 292 292 293 294 294 294 295 295 296 297 296 294 295 296 293 294 295 295 294 295 293 294 298 298 297 298 303 304 303 303 303 305 302 304 306 307 305 305 304 302 299 297 297 297 297
291 291 291 291 291 292 292 293 292 291 292 293 293 294 294 295 295 296 297 296 294 295 293 293 294 294 295 294 296 296 296 298 298 299 301 302 303 302 303 303 306 302 303 302 307 303 303 300 298 298 296 294 291 290
291 291 291 291 291 292 292 292 291 291 293 294 295 295 296 296 296 297 297 296 297 296 294 293 294 295 295 294 295 296 296 296 298 301 302 301 299 303 304 304 299 299 299 299 303 298 300 296 294 293 291 290 290 289
291 291 290 290 291 291 292 292 290 291 293 294 297 298 297 296 297 297 293 296 296 296 297 293 293 295 296 294 293 293 294 296 300 302 303 300 300 303 301 297 297 297 297 297 300 297 295 293 291 290 289 287 285 284
291 290 290 290 291 291 292 290 291 293 294 297 299 297 297 298 298 297 295 296 296 295 295 294 294 295 296 295 293 293 296 298 299 300 300 299 299 303 303 302 294 295 294 293 293 295 296 291 290 288 287 285 284 283
290 290 290 290 291 291 291 290 292 294 296 297 298 299 299 299 297 297 298 296 295 295 295 297 295 297 297 297 297 294 295 297 300 301 301 303 301 300 298 293 291 290 291 290 291 291 290 289 287 286 286 285 283 282
290 290 290 291 291 290 290 292 293 294 296 296 298 299 298 296 296 297 297 296 295 295 295 295 295 295 298 299 300 299 296 296 296 299 298 298 297 299 289 290 289 289 288 287 289 290 287 286 285 283 283 283 282 281
290 290 290 291 290 290 291 292 294 295 296 296 298 296 293 294 297 296 295 296 296 297 297 298 293 295 298 299 300 298 294 293 298 297 298 299 289 289 288 287 286 286 285 285 288 289 286 286 284 282 281 280 279 277
291 291 291 291 291 290 292 294 295 296 296 297 293 296 296 296 296 296 296 297 297 298 297 298 294 297 297 301 299 297 296 293 297 298 300 294 291 288 286 285 284 283 283 283 283 283 283 284 283 281 280 279 278 276
291 291 291 292 292 293 294 294 295 296 296 295 296 297 297 296 297 298 295 296 297 296 295 297 297 298 299 298 298 298 301 301 300 299 296 290 288 286 285 284 283 282 281 281 281 281 281 281 280 278 277 276 275 274
291 291 291 292 292 293 295 296 297 297 297 298 297 296 298 297 298 292 295 299 297 295 292 299 301 300 297 296 298 300 300 297 297 292 293 285 286 284 283 281 280 280 280 280 279 278 277 276 276 275 274 273 273 272
290 291 292 298 299 299 298 298 297 296 297 295 296 295 294 293 288 289 291 290 292 297 298 298 299 299 298 298 299 300 293 295 292 289 288 282 283 283 281 280 278 274 273 273 272 273 273 273 273 274 274 274 273 272
295 297 298 299 299 299 298 297 295 294 292 294 292 291 287 284 285 291 294 296 295 296 291 297 296 294 289 291 292 290 296 294 290 285 277 279 280 280 278 278 275 274 270 271 273 273 273 274 273 273 274 274 273 273
297 295 294 294 295 295 295 294 291 290 289 289 286 287 288 292 291 292 293 295 294 295 290 294 295 291 289 287 291 289 294 292 283 277 277 277 275 272 271 272 273 274 274 274 274 274 274 274 273 273 273 273 273 273
295 292 294 294 293 291 292 290 290 290 289 288 283 282 279 281 285 287 289 290 290 294 287 289 289 290 289 285 286 283 283 278 278 277 273 272 275 273 271 274 275 275 275 275 275 274 274 274 274 273 273 273 273 272
293 293 294 294 295 293 290 289 288 289 287 286 287 283 279 277 279 286 285 287 290 290 288 287 287 284 282 287 280 274 274 273 272 273 271 269 273 276 277 276 276 276 276 276 275 275 275 275 275 274 274 273 273 272
292 292 292 292 293 291 290 289 288 288 287 286 287 284 283 282 283 282 283 285 284 285 285 283 280 280 278 273 272 272 275 274 277 273 272 274 277 277 277 277 277 277 277 276 276 276 276 276 276 276 275 274 274 273
293 293 293 292 291 290 291 289 288 289 288 288 287 286 286 285 283 279 282 284 284 283 281 278 276 274 278 276 273 275 272 276 277 277 275 273 276 278 278 278 278 277 277 277 276 276 275 275 275 275 275 274 274 273
292 293 292 291 291 290 289 289 288 288 288 287 287 286 285 284 282 281 281 282 281 281 278 275 277 280 277 277 278 277 277 278 274 276 275 277 276 278 278 278 277 277 277 276 275 275 275 274 273 273 272 272 272 272
292 291 291 290 289 289 288 287 288 287 288 289 288 287 283 279 278 281 281 280 279 277 276 278 280 279 279 277 278 279 279 278 278 278 278 278 274 275 276 276 277 276 275 275 275 274 274 273 273 272 271 271 270 270
293 292 290 289 288 287 287 289 286 289 286 288 287 285 282 281 282 282 279 280 278 276 278 279 279 279 279 279 279 279 279 279 276 276 276 276 275 275 275 275 276 275 274 273 273 273 272 272 271 271 271 270 270 270
292 288 286 286 289 287 282 283 288 288 288 285 285 283 282 280 280 277 277 275 277 278 278 278 278 277 277 277 275 275 277 277 274 274 274 274 273 272 273 273 273 273 273 273 272 271 271 271 270 270 270 270 270 269
289 285 284 284 284 283 281 278 281 283 280 280 280 279 280 281 276 274 276 276 275 273 273 277 277 276 274 271 274 275 276 276 274 272 273 274 272 271 271 271 271 271 272 272 271 271 271 270 270 270 269 269 269 269
284 280 284 281 281 282 281 281 278 279 277 278 278 279 275 274 274 274 277 273 269 270 267 273 272 274 274 275 273 274 274 275 275 272 271 272 272 272 270 268 269 269 270 269 269 269 269 269 269 269 268 268 268 267
280 280 284 281 284 284 279 279 282 278 277 278 276 273 272 273 272 275 274 273 274 277 278 278 277 276 274 273 273 274 274 274 274 272 270 270 270 270 271 270 269 269 268 268 267 267 268 268 268 268 268 268 268 267
280 279 281 274 274 276 272 272 272 273 274 279 275 272 272 273 275 274 273 274 277 278 278 277 277 276 275 274 274 273 272 272 270 270 270 269 268 268 268 268 268 267 267 267 267 266 266 266 266 266 266 266 266 266
274 275 275 270 272 272 274 271 273 276 276 274 269 269 272 274 270 272 274 274 277 278 273 271 270 273 272 271 271 272 271 271 271 262 261 259 266 268 268 267 267 267 266 266 266 266 266 266 266 266 265 265 265 265
275 274 271 268 269 272 269 270 269 268 271 271 273 274 272 272 272 273 274 275 275 273 272 272 272 273 271 271 269 270 270 270 271 270 263 260 268 268 267 267 266 266 265 265 265 265 265 265 265 265 264 264 264 264
273 269 269 270 271 270 269 266 271 268 262 264 265 266 268 271 272 272 273 273 273 273 272 270 271 272 272 271 271 269 268 268 269 269 269 268 268 267 266 266 265 265 264 264 264 264 264 264 264 264 264 264 264 264
265 265 269 270 271 270 267 263 265 267 265 267 267 263 265 267 268 269 271 271 272 272 272 273 272 272 271 271 271 271 270 269 268 267 267 267 266 266 265 265 264 264 264 264 264 263 263 264 263 263 263 263 263 262
264 263 265 269 271 270 268 267 268 270 266 267 267 263 260 265 269 268 271 272 273 274 273 273 272 272 271 270 269 268 267 267 266 266 265 265 264 264 264 264 264 264 264 264 263 263 263 262 262 262 261 261 261 261

GFSWCAN_925_thetae_093.txt.gz
Theta_e
293 293 295 292 290 291 291 292 292 292 293 294 291 291 293 293 294 295 297 296 294 294 293 292 293 294 294 295 296 297 298 297 300 303 304 305 305 305 306 306 308 307 308 307 307 308 308 307 309 311 309 306 305 303
293 292 292 292 291 292 290 292 292 293 294 293 293 292 292 293 294 295 296 296 295 294 294 293 293 294 294 294 296 295 297 297 300 299 301 301 303 303 303 307 306 309 308 308 309 310 304 303 302 300 301 301 301 300
292 293 293 292 291 290 291 291 292 293 293 293 292 293 293 294 294 295 296 296 294 294 296 295 295 295 295 294 294 296 295 297 298 297 299 300 303 303 304 304 305 305 303 306 307 304 300 300 299 297 295 293 294 295
292 292 291 291 292 291 291 291 292 293 293 292 292 293 294 294 294 295 295 296 295 294 296 294 294 293 295 294 294 294 295 298 297 298 300 300 301 302 304 303 305 302 301 300 305 301 301 296 296 295 293 292 291 289
292 292 291 291 291 291 291 292 292 292 292 292 293 293 293 294 294 295 295 296 296 296 296 295 294 294 294 294 294 295 296 297 298 299 301 302 300 303 305 303 300 298 299 300 302 297 297 294 292 291 290 288 287 288
291 291 290 291 291 291 291 291 292 292 291 292 293 293 295 296 296 297 294 296 296 296 296 298 294 294 294 293 293 294 295 296 298 300 302 302 301 303 303 303 297 297 296 296 299 296 293 291 290 289 288 286 285 284
290 291 291 290 290 289 291 291 291 291 291 292 294 295 297 298 297 296 297 296 296 296 295 296 296 295 294 293 293 294 294 297 299 301 302 301 301 302 303 302 295 294 293 292 292 294 293 290 289 287 286 284 283 282
291 291 290 291 290 290 289 291 291 291 292 294 296 297 297 297 297 296 297 296 295 295 295 296 296 297 296 297 297 294 297 298 299 300 300 302 302 301 302 293 291 290 292 289 291 290 290 288 286 285 285 284 283 282
291 290 290 290 290 290 291 291 291 292 293 295 296 298 297 296 296 297 296 295 296 295 296 296 297 299 299 299 298 299 298 299 298 301 300 300 299 301 292 291 290 288 288 287 289 288 287 286 284 283 283 283 282 280
290 290 290 289 290 290 291 291 291 293 294 295 296 294 294 295 297 296 296 295 296 297 297 298 294 299 300 299 298 298 297 299 299 299 299 301 296 289 288 287 286 286 285 285 289 288 286 285 283 282 281 280 279 277
290 290 290 290 290 290 291 290 292 293 294 294 293 295 296 296 296 296 297 297 295 297 297 297 295 298 298 301 300 297 298 297 300 300 299 299 295 289 286 285 284 283 283 283 283 283 283 283 283 281 280 279 277 276
290 290 290 291 290 291 291 291 292 293 294 295 295 296 295 294 297 296 296 296 296 296 296 297 297 297 299 298 300 298 300 299 300 300 300 297 289 286 285 284 282 281 281 281 281 281 280 280 279 278 277 276 275 274
290 290 291 291 291 292 292 292 293 294 295 296 296 296 298 297 299 295 295 298 297 296 294 297 300 298 297 297 300 300 299 300 298 299 298 289 286 285 283 281 280 279 280 279 278 277 277 276 276 275 273 273 273 272
291 291 291 292 292 291 292 292 293 294 295 296 297 298 294 293 294 291 294 293 292 292 294 299 298 300 298 300 300 300 298 298 299 297 295 287 285 283 282 280 278 275 274 274 273 273 272 272 272 273 273 273 273 272
290 290 290 291 291 291 292 292 293 294 292 294 295 297 292 286 285 290 295 296 296 296 295 298 298 297 295 297 295 295 298 300 297 296 285 284 283 281 279 278 276 274 273 273 273 273 273 273 273 272 273 273 272 272
290 295 296 297 298 297 297 295 292 291 290 290 288 288 289 292 292 294 295 296 294 295 292 295 295 295 293 292 295 297 297 298 291 283 280 281 278 276 275 275 273 273 274 273 273 273 273 273 273 273 273 273 273 272
293 293 295 294 294 293 293 293 290 289 289 288 286 282 284 282 285 290 291 291 290 296 296 293 292 294 290 289 291 286 290 284 280 279 279 278 278 276 273 274 274 274 273 274 274 274 274 274 273 273 273 273 273 272
293 292 292 293 293 292 289 289 289 288 287 287 287 285 282 280 285 283 287 288 292 292 290 291 289 290 290 291 288 281 278 276 277 278 277 274 274 274 275 275 274 275 275 274 274 274 274 274 274 275 274 273 273 272
293 293 293 294 294 291 290 289 288 287 286 286 285 285 283 283 283 282 284 286 286 286 286 285 285 287 285 279 279 276 278 279 279 277 276 273 275 276 276 276 276 275 275 275 275 276 275 275 276 276 275 274 274 274
292 293 293 293 295 291 290 289 288 288 287 288 287 286 285 284 283 282 283 284 284 285 285 283 282 279 279 279 276 279 277 278 279 279 278 276 276 277 276 276 276 276 276 276 276 275 275 274 274 273 273 273 274 273
292 291 291 291 290 289 289 288 287 288 287 287 287 286 285 284 283 283 283 282 282 281 281 278 279 279 276 276 278 278 278 279 278 279 278 278 275 276 276 277 277 276 276 275 275 274 274 274 273 272 272 271 271 271
292 291 290 290 290 289 289 287 287 287 288 288 288 286 284 283 282 282 281 281 280 279 279 280 280 279 279 278 278 278 278 278 277 277 277 277 277 277 276 275 276 275 275 274 274 273 273 272 272 271 271 270 270 270
292 292 290 289 288 287 287 288 287 288 287 288 286 285 284 283 282 282 280 280 279 278 278 279 279 279 279 279 279 278 278 278 277 276 275 275 275 275 275 275 275 274 273 273 273 273 272 271 271 271 270 270 270 269
291 285 285 285 288 284 283 285 289 288 288 286 285 284 283 282 280 279 279 278 278 279 279 278 278 278 278 277 276 276 276 277 274 273 274 274 273 271 272 272 272 272 272 272 272 271 271 270 270 270 270 270 269 269
286 282 283 282 283 282 281 278 280 283 280 279 281 280 280 281 279 276 278 278 278 278 277 277 277 277 276 274 274 274 276 276 274 273 272 273 272 271 271 271 271 271 271 271 271 271 270 270 270 269 269 269 268 268
283 280 283 280 280 283 281 280 277 278 278 277 278 280 277 277 276 277 279 276 275 275 273 275 275 276 275 275 274 274 274 275 275 272 271 272 272 271 270 270 269 269 270 269 269 268 268 268 268 268 268 268 267 267
281 279 283 280 282 282 278 278 280 278 276 278 278 275 276 275 275 277 275 273 276 276 277 277 277 276 274 273 273 273 274 274 274 272 270 270 270 270 271 270 269 269 268 268 267 267 267 267 267 267 266 266 266 266
280 278 280 273 273 275 271 271 271 272 275 279 276 272 274 274 276 275 274 273 275 277 276 276 276 276 275 274 273 272 271 271 270 270 269 269 269 268 268 268 267 267 267 267 266 266 266 266 266 266 265 265 265 265
273 275 274 270 271 272 272 271 273 276 275 274 272 272 273 273 270 271 273 273 275 276 273 272 271 273 272 271 271 272 271 270 270 266 266 267 266 268 267 267 267 266 266 266 266 266 266 265 265 265 265 265 265 265
273 273 271 266 268 271 270 270 271 269 271 271 273 273 272 271 271 272 273 274 275 274 273 273 272 272 270 270 268 269 269 270 271 270 268 267 268 268 267 267 266 265 265 265 265 265 265 265 264 264 264 264 264 264
271 269 269 270 271 271 269 267 267 266 264 266 263 267 270 271 271 270 271 272 272 272 271 270 270 270 271 270 270 269 268 269 269 269 269 268 267 267 266 265 265 265 264 264 264 264 264 264 264 264 263 263 263 262
265 264 269 270 271 269 267 264 265 269 268 270 269 263 266 269 270 269 269 270 271 271 271 272 271 271 271 270 271 271 270 268 267 267 267 266 266 265 265 265 264 264 264 264 263 263 263 263 262 262 262 261 261 261
262 262 263 268 269 269 266 268 268 270 269 270 268 263 262 266 270 268 269 271 272 273 272 272 271 271 271 270 269 268 267 267 266 266 265 264 264 264 264 264 264 264 264 263 263 263 262 262 261 261 260 260 260 259

GFSWCAN_925_thetae_096.txt.gz
Theta_e
295 295 294 294 293 293 292 293 293 292 293 293 293 292 292 293 294 295 296 295 295 297 298 297 297 297 297 298 299 299 302 301 303 305 305 306 307 307 307 308 309 309 310 310 309 309 310 303 308 310 305 304 303 301
294 293 293 293 294 291 291 292 291 292 292 293 294 292 292 293 293 295 296 294 295 295 297 296 296 296 296 297 298 299 300 300 302 303 303 302 305 305 305 308 307 310 307 309 308 307 302 299 300 297 298 298 300 300
293 293 292 293 292 291 292 291 291 292 293 293 293 293 292 293 293 294 297 294 294 295 297 297 299 298 297 296 296 299 298 299 301 299 300 301 305 305 306 305 305 306 304 308 308 302 299 299 297 296 295 294 293 295
293 292 293 293 292 291 291 292 290 292 292 293 293 293 292 293 293 294 296 295 295 296 298 299 296 297 296 296 296 296 297 297 300 300 301 301 303 304 305 305 304 305 304 303 305 302 300 297 295 295 294 293 292 292
292 292 292 292 292 292 291 291 290 291 292 293 292 292 293 293 293 293 296 296 296 297 300 300 298 298 296 296 296 296 297 298 300 300 301 303 303 304 305 305 304 300 300 304 303 299 299 295 293 292 291 290 290 291
291 291 292 292 291 291 290 289 290 292 291 292 292 293 294 293 293 295 295 296 297 297 297 301 298 297 297 296 297 297 298 299 299 300 302 303 303 304 305 303 299 298 297 297 298 296 294 292 291 290 290 289 288 288
291 291 291 291 290 291 291 291 291 291 292 292 292 293 293 294 295 295 298 297 296 296 296 300 300 299 297 296 297 298 298 299 299 300 302 302 303 303 303 303 297 296 295 295 295 295 294 293 292 290 288 287 285 285
291 291 291 291 290 290 290 291 291 292 292 291 292 292 293 296 297 297 297 296 296 294 295 300 299 300 297 300 300 299 300 298 300 301 301 302 303 303 304 297 296 295 293 293 293 293 292 290 289 288 287 287 287 285
290 290 290 291 290 289 288 289 289 291 291 292 293 294 297 296 295 296 296 296 296 296 299 298 300 302 299 300 299 299 300 300 301 301 301 302 302 303 297 297 294 292 292 291 291 290 290 289 287 286 286 286 285 283
291 291 291 290 290 290 290 291 290 290 292 293 293 294 295 296 296 295 295 296 297 298 298 298 299 302 301 301 301 301 301 301 301 301 300 302 302 293 291 290 289 289 288 289 291 290 289 287 286 284 283 282 281 280
291 290 290 290 290 290 291 291 290 291 292 293 292 297 296 296 295 297 298 298 298 298 297 297 299 301 300 303 302 300 302 301 301 302 302 302 301 292 289 288 287 287 286 286 286 285 285 285 285 284 282 281 280 279
291 291 291 290 290 291 290 290 291 292 293 294 294 296 295 296 298 299 298 298 297 299 299 297 298 300 301 300 302 300 301 301 302 301 302 303 293 289 288 286 285 285 284 284 284 283 282 282 282 281 280 279 278 276
291 291 290 290 290 290 290 290 291 291 293 294 296 296 298 299 300 299 298 299 300 298 299 299 299 301 299 299 302 302 300 302 301 304 304 297 289 287 286 284 283 283 282 281 281 280 280 279 278 278 276 275 275 274
290 290 290 290 291 290 290 291 291 292 292 296 300 301 300 299 300 300 300 301 301 300 299 300 299 299 299 300 304 302 301 301 302 303 303 292 288 286 284 282 281 279 277 278 277 277 276 275 274 274 274 274 274 273
290 290 291 291 290 291 291 292 292 293 291 298 299 301 298 297 295 295 298 299 296 300 299 300 300 302 301 302 300 300 301 302 302 303 294 289 286 284 282 281 280 278 276 277 276 276 275 275 275 274 274 274 273 272
290 290 291 291 291 292 292 291 291 291 291 293 293 295 294 297 296 297 298 299 297 299 300 302 299 301 301 300 300 301 302 303 299 291 288 286 283 281 280 279 277 277 277 277 276 276 275 275 276 275 274 274 273 273
290 289 290 290 290 291 291 291 290 291 292 291 292 289 293 296 297 295 296 297 294 301 305 301 301 301 297 299 300 296 300 292 288 287 286 285 283 280 278 277 276 277 277 277 277 277 276 276 275 276 277 275 275 273
291 293 295 295 292 292 289 289 290 290 290 290 293 290 289 289 292 293 293 292 297 297 298 299 296 298 301 301 299 291 286 285 286 286 284 282 280 279 279 279 277 278 278 277 277 276 276 276 277 278 276 276 275 275
293 294 295 293 292 292 291 290 290 290 290 289 288 288 288 288 288 288 289 288 291 290 292 293 296 299 297 290 289 287 286 286 285 284 281 279 279 278 279 278 278 278 278 278 278 279 278 277 277 277 277 276 276 276
293 293 293 292 293 291 291 290 290 290 291 290 289 289 288 288 287 288 288 288 289 292 293 294 292 289 289 286 285 287 286 285 284 283 282 281 280 279 280 280 280 279 279 278 278 277 277 277 276 276 275 275 275 276
291 291 292 294 290 290 290 290 290 290 289 290 289 289 288 288 289 289 289 287 290 288 290 285 285 284 282 282 284 283 283 284 285 285 284 282 281 281 280 279 279 279 279 279 278 278 276 277 276 275 274 274 273 272
291 291 291 291 290 290 290 289 290 290 290 290 290 289 290 291 289 288 285 288 287 285 285 285 285 283 283 283 283 283 281 281 280 280 280 280 281 280 280 280 279 279 278 278 278 277 276 275 274 273 273 272 271 271
293 291 291 291 291 291 290 290 291 290 291 290 289 290 289 288 286 285 286 284 284 282 283 283 282 283 282 281 281 280 280 281 281 281 280 280 279 279 278 278 278 278 277 276 275 275 275 272 272 272 272 271 271 272
290 288 290 292 291 290 290 291 291 291 290 290 290 289 288 287 284 286 287 285 283 282 283 282 282 282 281 281 282 281 280 280 279 278 278 278 278 277 276 275 275 274 274 274 274 274 273 272 270 271 271 271 271 270
291 286 289 289 288 290 291 291 290 290 289 288 288 288 287 285 287 287 288 284 283 283 283 282 283 283 284 282 280 279 278 279 279 278 276 277 276 275 274 274 273 272 272 273 274 273 273 271 270 270 270 270 270 270
288 285 288 289 289 291 290 290 289 289 288 288 287 286 286 287 288 289 285 284 284 283 283 283 283 282 282 281 280 279 277 277 277 277 274 274 275 276 276 275 275 274 270 270 271 271 271 269 269 268 269 269 268 267
288 286 284 281 285 286 288 287 286 288 288 288 287 286 287 289 288 283 280 280 282 281 281 281 281 281 279 277 275 274 274 274 275 274 271 271 270 270 272 273 273 271 268 268 268 268 268 268 268 268 268 268 268 267
283 282 286 280 280 281 282 282 283 284 283 282 285 284 286 285 283 280 279 277 279 278 277 276 277 277 276 274 273 272 271 271 271 270 270 269 269 269 268 268 268 267 267 267 267 266 266 267 267 267 267 267 266 266
281 279 279 275 277 278 278 279 280 279 277 280 282 280 278 276 274 276 276 276 277 277 276 274 272 271 271 271 271 271 271 272 273 273 273 274 272 270 268 267 266 266 266 266 266 265 265 265 265 265 265 265 265 264
279 278 278 275 276 278 276 275 277 275 275 276 277 276 275 274 272 273 275 277 278 278 276 274 273 274 273 272 270 269 270 270 271 272 274 273 271 268 267 266 266 265 265 265 265 265 265 265 265 265 265 265 265 265
276 278 277 277 277 277 276 274 274 274 275 275 275 277 276 276 273 271 271 271 272 272 272 272 271 272 272 272 272 272 271 269 269 269 269 268 267 266 266 265 265 265 264 264 264 264 264 264 265 264 264 263 263 262
277 276 277 277 277 276 275 277 277 277 277 278 277 276 275 278 276 273 269 270 272 273 272 272 272 270 271 271 270 271 270 268 268 267 267 267 266 265 265 265 264 264 264 264 264 263 263 263 263 263 262 262 261 260
275 276 276 278 277 277 276 278 278 278 278 278 277 274 273 276 276 272 269 270 271 272 272 270 270 270 270 270 270 268 268 267 267 266 266 265 264 264 265 264 264 264 264 263 263 262 262 261 261 260 260 259 258 258

GFSWCAN_925_thetae_099.txt.gz
Theta_e
295 296 295 294 295 294 293 293 293 293 292 293 293 294 293 292 294 296 297 296 297 299 300 299 300 300 300 300 301 301 303 304 304 307 306 306 308 307 309 308 309 311 312 312 312 310 313 301 308 309 303 302 302 301
295 295 295 295 294 293 293 293 293 293 292 293 293 293 293 293 294 294 297 295 295 297 299 298 299 299 299 299 301 300 301 302 302 304 304 304 307 307 307 313 307 311 309 309 308 307 301 299 299 297 298 298 299 300
294 295 295 294 294 293 292 292 292 292 292 292 292 294 293 292 293 294 296 295 293 296 298 299 301 300 299 299 299 301 300 301 302 301 301 302 305 306 307 307 307 308 306 309 307 302 300 299 298 297 297 296 297 296
293 293 293 293 293 293 292 291 291 291 291 293 292 293 293 293 293 294 296 295 295 297 300 301 299 299 299 299 299 299 300 300 300 302 302 302 304 305 307 307 306 305 305 306 303 301 300 297 296 296 296 296 296 295
293 293 293 292 293 293 291 291 291 291 291 293 292 293 293 293 294 295 296 296 297 298 300 300 299 300 299 299 299 299 299 300 300 302 303 304 305 305 306 306 306 302 302 305 304 300 300 296 294 293 293 292 293 294
292 292 293 292 293 292 291 291 291 291 292 291 293 293 292 293 294 296 296 297 297 297 299 301 301 300 300 300 299 299 300 300 300 300 302 303 304 304 305 306 300 300 299 299 300 297 295 294 293 293 293 292 292 291
292 292 292 291 292 292 291 290 291 290 292 291 292 292 293 294 295 296 298 297 297 297 299 301 301 300 299 299 299 300 299 299 299 300 302 303 303 304 305 305 300 298 298 298 298 297 297 295 295 293 292 290 289 288
291 292 291 291 291 291 291 291 291 292 291 291 292 291 293 293 293 295 296 297 297 295 297 302 302 302 300 301 301 299 300 299 300 301 301 303 303 304 305 301 299 297 296 296 295 295 294 293 292 292 291 290 290 288
291 291 291 291 291 290 290 291 291 291 291 292 292 293 292 292 293 296 297 296 296 296 302 300 302 303 301 301 301 301 300 301 302 302 302 302 303 305 300 300 298 296 296 295 293 293 292 291 290 289 289 288 288 286
291 291 291 291 291 290 290 290 290 291 291 292 292 294 294 295 297 296 295 296 296 297 300 299 301 303 302 302 301 301 301 302 303 303 302 303 303 297 295 293 293 292 292 292 293 292 291 290 288 287 286 285 284 283
290 291 291 291 291 290 290 289 290 290 291 292 292 296 296 296 296 297 299 300 300 299 299 299 301 302 303 303 304 302 303 303 302 304 303 303 303 295 292 291 291 290 290 289 289 288 288 288 287 286 284 283 282 281
291 291 290 290 290 290 290 290 291 291 293 293 294 294 295 297 299 300 300 300 299 300 301 299 300 302 302 302 303 303 302 303 303 303 303 304 295 292 290 289 288 288 287 287 287 286 285 284 284 284 283 281 279 278
291 291 291 290 290 291 291 291 290 292 293 294 293 296 298 300 302 301 300 300 301 302 301 301 302 302 301 302 303 303 302 304 303 304 305 300 293 291 289 288 286 285 285 284 284 283 282 281 281 280 279 277 277 276
291 291 290 290 291 291 291 290 291 292 292 294 298 301 302 300 302 302 302 304 305 302 301 301 301 301 301 301 304 304 304 302 304 304 305 296 291 289 287 285 283 281 281 281 280 279 278 277 277 276 276 276 276 275
291 291 291 291 291 290 290 290 292 290 291 296 300 303 300 301 301 300 302 302 300 302 303 302 301 302 302 304 303 304 303 304 304 305 298 292 289 287 285 284 282 280 279 279 279 278 277 277 277 276 276 276 275 274
291 290 290 290 290 291 290 292 291 291 291 296 296 299 298 300 298 300 302 299 300 301 302 303 302 302 301 302 302 303 304 305 301 295 291 288 286 285 283 282 280 280 280 280 279 278 278 277 278 277 276 276 275 274
290 290 290 290 290 291 292 291 291 294 296 294 294 294 298 302 303 299 302 299 297 301 306 302 301 301 301 302 302 302 303 297 292 290 289 287 285 283 281 280 279 280 280 280 279 279 278 278 278 278 279 277 277 276
290 290 290 290 291 291 291 291 293 294 293 293 295 293 293 294 297 297 296 297 299 301 301 302 301 302 303 304 304 296 292 290 289 288 286 285 282 281 281 281 280 280 280 280 279 279 279 279 280 281 279 278 278 277
290 291 290 291 292 292 293 292 292 293 292 291 290 291 292 292 292 293 294 294 295 296 299 299 301 303 302 297 296 293 290 289 288 286 284 283 282 281 281 281 280 281 280 280 280 281 280 279 279 279 279 279 279 278
291 291 291 291 291 293 293 292 292 293 294 292 291 292 292 292 291 292 293 293 295 298 300 300 299 295 295 291 292 291 290 288 287 286 285 283 282 281 281 282 282 281 281 280 280 279 279 279 278 278 277 277 276 277
295 295 292 292 292 292 292 293 293 292 291 292 291 293 291 292 293 294 293 292 295 297 297 293 292 288 287 289 288 288 287 287 288 288 287 285 283 283 282 281 281 281 281 281 281 280 278 279 279 277 276 276 276 275
290 292 291 292 292 291 292 292 293 292 292 292 292 293 293 294 294 293 292 294 294 291 291 291 289 287 287 286 286 286 285 284 284 284 284 283 284 283 282 282 281 281 280 280 280 280 279 278 276 276 275 275 274 274
293 293 293 292 293 292 292 292 293 293 293 293 293 293 293 293 292 290 293 291 289 287 288 288 287 287 286 285 284 283 284 284 285 284 283 283 282 282 281 280 280 280 280 279 278 278 277 275 275 273 274 274 274 274
291 290 293 294 293 293 292 294 292 292 293 294 294 292 292 292 289 292 294 292 287 286 286 285 285 285 284 284 285 284 284 284 283 282 282 281 281 280 279 278 277 277 277 276 276 276 276 275 274 274 274 273 273 273
292 289 291 292 292 293 293 293 293 293 293 293 293 292 292 290 294 294 294 290 286 287 286 286 286 286 287 286 284 282 282 282 282 281 280 280 279 278 277 277 276 275 275 276 276 276 275 274 273 273 273 272 272 272
291 288 292 293 293 294 294 293 293 293 293 293 292 292 291 293 294 295 291 289 287 286 287 287 287 287 286 285 284 282 281 280 280 279 277 278 278 278 279 278 278 277 274 273 273 274 273 272 271 271 271 271 270 269
292 290 287 285 289 291 292 291 292 293 293 292 292 291 292 294 295 288 285 285 286 284 284 285 285 285 284 282 280 278 277 277 278 277 275 274 273 274 275 276 276 274 271 271 271 271 271 271 270 270 270 270 270 270
286 287 289 286 286 287 289 290 290 289 290 288 292 292 292 292 289 283 283 282 284 283 282 282 282 281 280 278 277 275 274 273 273 273 273 272 272 271 270 270 269 268 269 268 269 269 269 269 269 269 269 269 269 268
286 284 284 280 283 284 283 285 285 283 281 286 289 286 283 279 278 280 279 281 280 280 279 278 277 277 276 276 276 276 276 275 275 275 276 277 275 273 270 270 270 269 269 269 268 267 267 267 268 268 267 267 267 267
283 283 283 280 281 283 280 280 280 279 279 280 280 279 278 277 275 277 279 281 281 281 279 278 277 277 277 276 275 274 273 273 273 275 277 276 274 271 270 269 269 268 268 268 268 268 268 267 268 268 268 268 267 267
282 283 283 283 281 280 279 279 278 279 280 280 282 282 279 278 276 275 276 277 278 278 278 278 278 278 277 276 276 274 273 270 270 269 270 270 270 269 268 267 267 267 267 267 267 267 266 266 267 267 267 266 265 265
282 282 282 281 280 279 279 282 281 281 281 281 280 279 280 281 280 277 272 276 278 279 277 277 276 276 274 272 272 272 272 269 268 268 268 268 268 267 266 266 266 266 266 266 266 266 266 265 265 265 265 264 263 262
281 282 282 282 281 281 280 282 282 281 282 281 281 280 281 281 279 275 272 272 277 277 276 274 272 271 270 270 269 268 267 267 267 267 267 267 267 266 266 266 265 265 265 265 265 265 265 264 263 262 262 261 260 260

GFSWCAN_925_thetae_102.txt.gz
Theta_e
296 297 296 295 294 294 292 293 294 294 293 293 294 293 293 292 294 296 298 298 298 299 300 300 300 301 301 300 302 301 303 304 304 307 305 306 307 307 309 309 309 309 312 311 312 313 312 301 305 306 302 301 302 301
295 295 295 294 294 294 292 292 293 293 293 293 293 293 294 293 294 294 297 296 296 297 299 298 299 299 299 300 301 301 302 303 303 304 304 303 306 309 307 312 307 311 308 307 306 305 301 299 299 299 299 298 300 299
295 295 296 295 295 294 294 293 293 293 292 293 293 293 294 293 294 294 296 296 295 296 298 299 301 301 301 301 301 302 303 301 302 302 303 303 304 306 309 308 308 308 306 307 306 302 300 299 298 298 298 298 297 297
294 294 295 295 295 294 293 292 292 292 292 292 293 292 294 293 293 293 296 296 296 297 300 301 300 300 300 300 301 301 301 301 301 301 303 303 303 305 307 307 308 306 306 306 303 301 299 297 296 296 296 296 296 296
294 294 295 294 294 295 292 292 292 291 291 292 292 293 294 293 293 293 295 296 297 299 300 300 299 300 301 301 301 301 301 301 301 301 303 303 304 305 306 306 305 302 301 303 302 300 299 296 294 294 294 294 294 294
293 294 294 293 294 293 293 292 291 290 291 293 293 292 293 292 293 294 297 297 298 298 300 301 300 302 301 301 301 301 300 300 301 301 302 302 303 305 306 307 301 300 299 299 300 296 295 295 294 294 293 292 292 292
293 293 293 293 292 293 292 292 291 291 291 292 292 293 292 293 294 296 298 296 297 298 299 300 302 302 300 300 300 300 300 301 300 301 301 302 303 304 306 306 300 299 299 298 298 297 297 296 295 294 293 292 291 290
293 292 293 292 292 293 292 291 291 291 291 292 292 292 292 293 294 295 296 296 298 297 298 300 302 303 300 301 301 301 300 300 300 301 301 302 303 305 306 301 299 298 297 296 296 296 295 294 294 293 292 292 291 289
292 292 292 291 291 292 292 291 290 292 292 291 292 292 293 293 294 295 296 296 296 296 300 301 301 304 301 302 302 301 301 302 301 303 302 303 304 305 301 300 298 297 296 296 295 294 293 292 291 290 289 288 287 285
291 292 292 292 291 291 291 290 290 291 291 292 293 292 294 294 294 296 297 297 296 296 299 301 301 303 302 303 303 302 302 302 305 303 303 304 303 297 296 296 294 294 293 294 294 294 292 291 289 287 286 285 284 283
291 291 292 291 291 291 290 291 291 292 291 293 293 295 295 296 296 296 299 299 299 300 301 300 301 303 303 303 303 303 304 304 303 304 303 305 303 296 294 293 292 292 291 291 290 289 289 289 288 287 285 283 282 281
291 290 291 291 291 291 290 290 290 292 293 293 294 293 295 296 297 301 299 300 301 300 302 301 300 302 303 304 305 303 302 304 303 304 303 304 296 293 292 290 290 289 288 288 288 286 286 285 285 284 283 280 279 278
290 290 291 291 291 291 290 289 289 291 293 294 292 295 297 298 302 302 301 300 301 302 304 303 303 303 303 303 301 303 301 304 304 304 305 299 294 291 290 289 287 286 286 285 284 283 282 281 281 280 279 278 277 276
290 291 290 290 291 291 290 289 289 292 292 295 297 300 301 300 302 303 303 305 306 305 304 302 302 302 302 301 303 303 304 303 304 305 304 296 292 289 287 286 284 282 282 281 280 279 278 278 277 277 276 276 276 275
291 290 290 290 290 290 290 290 291 292 291 295 297 302 301 303 302 303 305 303 302 303 303 302 302 302 303 304 303 303 303 304 304 305 298 292 289 287 286 284 282 281 280 280 279 278 277 277 278 277 277 277 275 274
290 290 291 290 290 290 290 291 291 290 291 295 297 301 301 302 299 302 300 301 302 302 304 303 303 303 301 302 303 304 304 305 301 295 291 289 287 286 284 282 281 281 281 281 279 279 278 278 279 278 277 276 275 275
290 291 290 290 290 290 290 291 291 292 295 296 298 296 299 300 300 299 299 301 300 303 305 303 302 301 302 301 301 304 303 298 293 291 289 287 286 284 282 281 281 281 281 281 280 280 279 279 278 278 278 277 276 276
291 291 290 290 290 291 291 291 294 295 295 295 297 295 295 296 298 298 300 299 301 301 303 303 302 302 302 304 305 297 293 291 290 288 287 285 283 282 281 281 281 281 281 281 280 280 280 279 280 281 280 280 279 279
291 291 290 290 291 292 293 292 293 295 294 293 292 293 294 294 295 296 296 296 298 299 301 301 302 303 303 298 296 294 292 290 288 286 285 283 283 283 282 282 282 282 281 280 281 282 282 280 280 280 280 279 279 279
290 291 290 290 292 293 293 294 294 294 294 293 293 293 294 294 293 295 296 296 298 299 301 301 300 296 295 293 295 293 291 289 287 285 284 283 282 282 282 282 283 282 281 281 281 280 281 280 280 279 278 277 277 278
291 291 291 291 292 293 294 294 294 293 293 294 293 293 292 293 294 295 295 295 299 299 299 296 293 290 291 291 290 289 289 289 289 289 286 284 283 284 283 283 282 282 282 282 282 281 280 280 280 278 277 277 277 275
291 291 291 291 293 292 293 293 294 294 293 293 293 294 293 295 295 296 295 296 298 294 295 294 291 289 289 289 289 288 287 287 287 286 285 284 285 284 284 283 282 282 282 282 281 281 280 279 277 277 276 276 275 275
292 291 292 292 293 293 293 294 294 294 294 294 294 294 294 294 294 293 295 295 292 290 291 290 289 289 288 287 286 286 286 286 286 285 285 285 284 283 282 282 281 281 281 281 279 278 278 276 276 275 275 275 275 275
292 293 294 295 295 294 293 295 294 294 294 294 296 294 294 293 292 294 296 294 290 289 289 289 288 287 286 285 286 285 286 286 285 284 283 283 282 281 281 280 279 278 277 277 277 277 277 277 275 275 275 274 274 274
293 290 293 294 294 294 294 294 294 294 295 295 295 294 293 292 294 295 295 292 289 289 289 288 287 287 287 287 286 284 284 284 283 283 282 282 280 279 278 278 277 276 276 277 277 276 276 275 275 274 273 272 273 272
292 290 293 294 295 295 294 294 294 295 294 295 295 294 293 294 295 297 295 291 289 289 289 289 289 289 288 286 284 283 283 282 281 280 279 279 280 280 280 280 279 276 275 274 274 274 274 273 272 272 271 272 272 271
293 292 288 287 292 294 294 295 295 295 294 294 293 293 294 296 297 290 288 288 288 287 287 287 288 288 286 284 281 280 279 280 280 279 277 276 275 275 276 277 277 273 272 272 272 272 272 272 271 271 271 271 271 271
289 290 290 289 290 291 293 293 294 294 293 293 294 294 295 294 290 285 285 285 286 286 286 285 285 283 281 280 278 277 276 275 274 274 274 274 273 272 271 270 269 270 270 269 269 270 270 270 270 270 270 270 269 269
288 287 285 285 287 287 287 289 289 286 284 288 293 289 285 281 281 281 283 283 282 282 281 280 279 279 278 278 277 277 277 277 277 277 278 278 276 273 272 271 271 270 270 270 270 269 268 268 268 268 268 268 268 268
286 286 285 283 285 286 282 283 283 282 282 283 281 280 279 278 278 280 282 282 282 282 280 279 278 278 278 278 277 276 275 275 276 277 278 277 275 272 271 271 270 269 269 269 269 269 269 268 268 269 269 269 268 267
285 287 286 285 283 282 281 280 281 282 282 284 284 282 279 278 277 277 278 281 281 280 279 279 279 279 278 277 276 275 273 270 271 272 272 272 271 270 269 268 268 268 269 268 268 268 267 267 267 267 267 266 265 264
286 286 285 284 282 280 281 284 284 283 283 282 281 281 281 282 280 278 275 277 280 281 280 279 279 277 275 274 274 275 272 269 269 270 270 270 269 268 268 268 268 268 267 267 267 267 267 266 266 265 264 264 263 262
285 285 284 283 282 282 282 284 284 283 284 283 283 284 284 283 280 276 274 275 279 279 277 275 274 273 272 271 270 269 269 269 268 269 268 268 268 267 268 267 266 266 266 266 266 266 266 265 264 263 263 261 259 258

GFSWCAN_925_thetae_108.txt.gz
Theta_e
296 296 295 295 294 294 295 295 294 293 293 292 292 293 293 292 295 297 296 297 296 292 294 299 299 299 298 296 296 296 296 297 297 299 301 302 305 304 308 308 308 307 308 305 306 305 304 299 300 301 301 300 300 297
296 295 295 293 293 294 295 294 293 293 293 292 292 293 292 292 296 297 296 296 295 292 292 296 296 296 297 298 296 296 298 300 299 296 297 300 302 302 306 306 307 306 304 303 303 302 299 299 299 299 299 299 299 297
296 295 295 294 294 295 294 294 293 293 293 292 293 292 291 291 294 296 296 295 294 288 291 294 297 300 299 297 298 297 297 299 298 295 293 297 302 302 306 309 305 306 303 300 300 300 298 298 297 297 296 296 294 295
296 295 295 294 293 293 293 293 293 293 292 292 293 293 292 291 293 295 296 295 295 295 290 296 299 299 300 300 300 300 299 299 297 296 296 295 299 301 302 306 302 300 301 302 300 298 297 295 295 294 294 294 291 289
295 296 295 294 293 292 292 292 292 292 292 293 293 293 292 291 291 294 295 295 296 296 296 294 296 299 299 300 300 300 300 298 296 296 294 297 299 301 301 303 300 300 300 302 299 299 298 296 294 294 291 290 290 288
295 295 294 295 294 293 293 292 292 292 292 292 292 293 293 291 290 291 287 295 294 296 296 294 296 298 300 300 300 299 299 296 296 297 295 295 298 300 298 301 300 299 298 298 296 295 290 290 291 293 290 289 288 286
295 295 295 295 295 295 294 292 292 292 292 291 292 293 292 291 294 295 292 296 296 297 294 295 295 298 300 299 297 296 298 296 296 296 297 297 298 301 299 300 299 298 297 296 294 295 295 294 290 290 289 286 285 284
294 295 295 295 295 294 293 291 290 291 291 292 292 293 292 290 292 294 295 296 298 297 294 297 295 300 299 296 297 295 295 294 295 296 296 297 298 300 300 299 298 298 298 297 297 293 291 289 288 286 285 284 283 282
294 294 295 294 294 293 293 291 290 291 291 292 292 291 291 292 292 294 296 296 296 295 296 297 297 299 297 297 296 296 295 292 295 292 296 298 296 297 297 296 295 294 295 295 293 291 289 287 286 285 284 283 282 281
294 294 294 294 293 293 292 291 290 291 292 292 291 290 285 292 294 296 295 294 295 296 296 296 293 293 297 293 295 297 293 294 298 299 296 299 298 296 294 292 292 290 290 292 292 291 287 285 284 283 282 281 280 278
293 293 293 293 293 293 292 291 290 292 292 292 290 289 293 294 295 293 295 295 296 296 295 294 294 296 296 295 295 293 293 293 299 302 296 296 297 293 290 289 287 287 286 285 285 284 286 284 283 282 281 280 278 277
292 293 292 292 293 292 291 290 291 292 291 291 292 293 294 294 295 296 295 294 295 296 294 294 294 296 296 297 297 296 296 293 297 297 298 290 291 290 288 286 285 284 283 283 283 282 282 282 281 280 279 277 276 276
292 292 292 292 292 291 290 290 291 291 292 293 292 293 295 294 296 294 292 294 290 291 292 292 296 299 296 295 298 293 292 292 295 297 296 291 290 288 285 284 283 282 281 281 280 279 279 278 278 277 276 276 275 275
292 292 291 291 291 291 290 290 292 293 292 291 293 295 294 295 295 291 292 291 291 290 292 292 292 294 290 291 297 297 293 295 292 292 297 288 289 286 284 283 281 277 277 276 276 276 276 276 276 277 276 276 275 275
291 292 291 291 290 290 290 292 292 292 291 291 293 290 294 292 296 297 296 292 291 289 292 292 293 293 291 294 297 299 298 292 294 293 286 288 286 283 282 280 277 275 275 275 276 275 276 276 276 276 276 276 275 274
291 291 291 291 290 290 291 291 290 291 289 291 292 293 294 298 298 299 295 293 289 289 289 292 294 292 297 295 300 297 298 296 292 289 287 285 282 278 277 276 277 277 277 277 277 277 277 277 277 277 276 276 275 275
291 291 291 291 291 289 290 290 291 288 288 292 293 294 294 294 298 298 296 294 291 292 295 293 294 294 294 293 298 291 297 292 289 287 283 281 279 275 276 277 280 279 278 277 277 277 277 278 278 277 276 277 277 276
291 291 292 291 290 290 290 291 290 289 290 289 290 292 293 293 296 296 295 292 292 293 293 296 293 297 292 294 290 288 290 288 285 282 278 276 277 278 279 280 281 280 279 279 279 278 278 279 278 278 279 279 279 278
292 291 291 290 289 290 290 289 291 292 289 288 288 290 291 292 291 292 292 293 293 293 292 293 292 291 289 287 292 290 288 283 282 279 276 278 279 279 280 280 281 280 280 280 279 279 279 279 279 279 279 279 277 276
290 290 289 289 290 291 291 289 292 292 289 288 291 292 291 292 291 292 292 293 294 293 294 292 293 291 290 282 288 287 284 282 282 281 280 277 280 280 280 281 281 281 280 280 279 280 281 280 280 278 277 277 277 276
291 290 290 290 291 292 291 290 292 292 292 291 291 292 291 291 292 293 293 292 295 295 292 292 286 285 289 289 287 284 283 283 282 281 281 280 282 281 281 281 281 281 280 280 281 280 279 279 278 277 277 276 276 275
290 290 290 290 291 291 292 291 291 290 291 292 292 291 292 293 293 293 292 294 294 289 285 284 284 289 288 286 286 285 284 283 283 282 281 281 279 280 281 281 281 281 281 281 281 280 279 277 277 276 275 274 274 274
290 290 290 290 291 288 288 292 290 291 291 292 293 292 290 292 288 291 292 293 290 287 287 286 288 289 286 287 286 286 285 284 282 281 281 281 282 282 282 281 282 279 278 278 278 278 277 276 276 275 274 274 274 273
290 291 289 289 291 286 288 289 292 293 291 292 289 291 293 292 291 291 292 291 288 285 285 286 285 284 285 285 282 284 284 283 282 282 282 282 280 279 280 279 278 278 277 277 277 276 276 275 275 274 273 272 271 271
288 287 287 289 292 288 288 289 289 289 285 285 287 291 292 287 291 292 292 283 279 279 284 285 285 284 281 278 281 283 284 283 282 280 281 282 279 278 277 276 276 276 276 276 275 274 274 273 272 271 271 271 270 271
286 284 289 285 281 289 287 287 284 284 285 287 286 287 287 291 289 287 288 279 276 278 283 284 281 281 281 282 280 281 281 282 282 278 277 278 279 278 275 274 274 274 274 274 273 272 272 271 271 270 270 270 269 269
286 287 287 288 289 291 285 284 289 285 284 286 286 287 291 292 293 284 281 282 281 287 287 285 285 284 280 279 280 281 280 281 281 277 277 278 278 278 278 276 274 273 272 272 271 271 270 270 269 269 269 268 268 268
289 289 287 284 288 288 285 284 283 284 283 286 287 291 292 291 284 278 278 283 282 286 286 285 285 284 281 280 280 280 278 277 276 275 274 273 272 273 275 274 273 271 270 270 269 269 269 268 268 268 268 268 267 266
287 287 286 286 286 286 283 282 281 281 280 283 284 281 280 277 276 277 280 280 281 283 279 277 276 278 277 277 277 277 276 276 274 269 266 267 270 270 271 270 270 270 270 270 269 269 268 268 267 267 266 266 264 264
284 286 284 282 281 282 279 280 279 273 277 277 277 276 275 275 277 279 281 280 279 278 278 277 276 277 275 274 273 274 275 275 275 275 269 267 271 271 270 270 269 269 269 269 268 268 268 267 266 266 265 264 262 261
285 286 285 283 282 278 277 274 277 277 275 272 270 272 273 272 278 277 279 280 279 278 278 277 277 276 274 273 273 273 272 274 276 276 276 274 272 271 270 269 269 268 268 267 267 267 266 266 264 263 262 261 259 258
284 284 282 280 278 275 277 277 275 273 273 271 271 268 269 270 271 273 275 278 278 278 278 277 276 275 276 276 275 274 275 273 273 273 272 271 270 269 268 268 268 267 266 266 266 266 265 264 263 261 260 258 257 256
280 277 275 276 276 277 277 276 278 278 276 271 269 269 272 268 271 272 274 277 278 278 277 276 276 275 275 275 274 272 271 271 270 270 269 268 268 268 268 267 266 265 265 265 265 264 263 261 260 259 258 257 256 255

GFSWCAN_925_thetae_111.txt.gz
Theta_e
296 296 296 296 295 295 295 295 294 293 292 293 292 292 294 297 297 297 295 296 295 292 294 298 299 298 296 294 294 295 294 295 295 297 299 300 303 305 308 307 309 305 307 304 305 303 303 297 300 301 300 299 297 295
296 296 295 295 295 295 295 294 293 293 293 293 293 292 293 297 296 296 295 295 295 291 293 296 296 297 298 296 294 295 297 299 297 295 297 297 301 302 305 309 306 305 302 303 302 300 299 299 298 298 297 296 299 295
296 295 294 294 295 295 294 293 293 293 292 292 293 292 294 296 296 295 295 295 294 288 291 294 298 299 297 296 298 296 295 298 296 293 292 294 300 301 305 306 304 303 302 300 298 299 297 297 294 295 296 292 291 295
295 294 294 294 295 295 294 293 293 293 293 293 292 291 293 295 296 295 295 295 295 291 292 297 296 298 298 299 298 299 298 298 296 294 295 292 297 300 303 305 301 300 301 300 298 297 295 294 293 293 292 290 288 288
295 294 295 295 294 294 293 293 293 293 293 294 293 291 292 294 295 295 295 295 296 294 294 294 295 298 299 300 299 299 299 296 294 295 293 295 297 299 301 301 301 299 300 301 296 297 296 293 293 291 290 289 288 286
295 294 293 293 293 293 293 292 292 293 293 294 293 292 290 291 294 293 287 294 294 296 291 293 294 296 299 299 299 298 297 294 294 295 294 293 295 298 300 300 300 298 296 297 297 293 290 291 291 289 288 287 285 285
295 294 293 292 292 292 292 292 292 292 293 293 294 292 291 292 292 293 291 295 295 296 291 292 294 296 299 297 295 296 298 295 295 294 295 295 297 299 298 300 299 297 295 294 293 294 293 289 289 287 286 285 284 283
294 295 294 293 293 293 292 292 292 292 292 294 293 291 290 294 294 295 296 296 297 295 292 291 297 300 298 297 296 293 294 293 294 294 294 296 297 297 297 299 298 297 297 296 293 291 289 286 286 285 284 283 282 282
295 295 295 294 294 292 291 291 291 292 292 293 292 290 290 290 292 295 296 296 296 294 290 290 293 300 295 296 294 294 293 291 293 291 295 296 297 296 296 297 296 296 295 293 291 290 288 287 285 284 283 282 281 280
295 295 294 294 294 292 290 290 291 292 293 291 291 290 284 291 296 295 294 291 293 294 295 293 291 294 296 291 291 296 291 293 297 297 295 299 297 294 291 291 290 289 290 291 289 288 286 285 284 283 281 280 279 277
295 295 294 294 293 292 290 291 292 293 291 292 288 292 292 295 294 292 294 294 292 294 295 293 292 296 295 294 294 292 291 293 298 299 297 293 296 290 289 288 287 286 286 285 285 286 286 284 283 282 280 279 277 276
294 294 293 294 293 291 290 291 293 292 291 291 292 293 294 293 294 294 294 295 295 295 292 292 293 294 296 294 293 294 296 292 296 297 299 291 288 287 287 287 285 284 283 283 283 283 283 282 281 280 278 277 276 275
293 293 293 293 292 291 290 292 292 291 292 292 293 293 295 294 295 293 291 292 293 290 289 291 295 294 294 295 297 297 292 291 296 294 294 288 288 287 286 284 282 281 281 281 280 280 279 279 278 277 275 275 275 275
293 292 293 292 292 291 290 291 291 292 292 289 288 294 294 294 294 289 290 289 290 288 290 290 294 298 289 291 288 290 290 296 294 291 296 288 287 286 284 283 281 277 276 276 276 277 276 276 276 276 276 275 275 275
292 291 292 292 291 290 290 292 292 292 290 288 289 288 293 290 291 295 295 293 293 286 291 292 292 292 288 293 297 298 300 295 292 292 285 282 285 283 282 280 276 275 273 273 275 275 275 276 276 276 276 276 275 275
292 291 292 292 291 291 291 292 291 290 288 290 291 291 292 295 296 298 296 296 292 286 292 292 293 289 290 291 299 298 298 293 289 283 284 283 282 277 276 276 275 275 276 275 276 276 276 276 276 276 276 276 276 275
292 291 291 291 291 291 291 290 290 287 287 290 289 289 293 292 292 298 296 295 291 290 293 292 292 292 292 297 298 293 294 286 286 286 281 280 279 275 275 275 276 276 276 276 277 277 277 277 277 277 277 277 277 277
291 291 291 291 291 290 289 290 288 288 288 289 292 288 287 293 296 295 294 293 291 291 292 295 293 295 287 291 288 289 288 285 282 281 276 273 276 276 277 276 278 278 277 277 277 277 277 277 278 277 278 279 278 278
292 291 291 289 289 289 287 289 290 290 289 290 287 285 286 290 291 291 292 292 291 291 292 291 291 289 290 286 288 281 281 281 282 277 272 276 278 277 279 280 279 279 278 278 278 278 278 278 278 279 279 279 279 277
291 291 290 289 290 291 290 288 290 290 288 286 289 291 289 290 291 291 292 292 294 293 295 292 291 284 287 282 282 282 280 280 281 280 276 274 277 279 279 280 280 280 279 279 279 279 279 280 280 280 279 277 277 276
291 290 290 290 290 291 290 289 289 291 290 290 290 291 290 288 292 292 293 292 295 295 291 292 290 280 286 286 286 284 282 283 281 280 279 277 278 279 280 280 280 280 280 279 279 280 279 279 279 277 277 276 276 275
291 290 290 290 290 289 291 291 291 290 291 292 290 292 290 292 292 293 292 293 294 292 287 285 284 284 285 284 284 284 283 282 282 281 281 280 278 278 278 280 280 280 281 280 280 280 280 278 277 277 275 274 274 274
290 289 289 289 291 289 291 290 290 292 291 292 292 293 292 292 289 291 292 291 288 285 285 286 288 288 286 286 285 284 283 282 280 279 280 280 280 281 281 280 281 280 280 279 280 280 278 276 275 275 274 274 273 272
290 290 286 289 289 289 289 289 291 293 291 292 292 293 292 290 290 290 288 286 283 283 283 286 285 283 284 284 281 283 284 283 281 280 281 280 279 279 281 280 280 279 278 277 277 277 276 275 275 274 272 271 271 271
286 286 284 282 287 289 286 288 288 286 285 287 289 287 289 286 290 289 286 283 277 276 279 284 284 283 281 277 280 282 283 284 280 278 280 281 278 276 276 276 276 276 276 276 276 275 275 273 272 271 270 270 270 269
284 280 287 284 282 287 286 284 282 282 282 288 283 283 282 283 285 287 285 279 274 274 274 281 279 280 280 282 279 281 282 282 282 278 278 279 279 278 274 273 274 274 274 274 274 273 272 271 270 270 269 269 268 267
285 281 285 286 288 289 283 281 286 283 281 283 286 281 283 284 282 281 277 282 282 283 285 285 284 283 280 279 280 280 281 281 282 278 277 277 278 278 278 277 274 274 273 272 271 271 271 270 269 268 268 267 267 266
286 286 285 281 284 286 282 279 279 283 281 284 283 284 284 284 283 274 276 281 282 283 284 284 284 283 281 280 280 279 278 278 277 276 275 274 275 275 275 275 274 272 271 270 269 269 268 268 268 267 267 266 265 263
285 286 287 286 285 283 283 283 280 279 280 281 280 278 276 275 274 275 278 280 281 281 280 278 276 279 278 277 277 278 277 277 275 271 268 265 269 270 271 271 270 270 270 269 269 269 268 267 266 266 265 264 262 261
283 283 284 284 285 286 281 278 276 272 276 276 276 275 273 273 276 277 279 279 280 278 278 277 276 277 274 274 273 274 274 275 276 276 269 266 271 270 270 270 270 269 269 269 268 268 267 266 265 264 263 262 261 260
284 283 280 281 281 280 280 277 277 277 273 272 269 272 272 270 276 276 277 278 278 278 277 276 275 275 275 274 274 274 273 275 275 276 276 275 272 270 270 269 269 269 268 267 267 267 266 265 264 262 261 260 259 258
283 284 282 281 280 279 279 279 278 278 276 272 269 267 270 271 272 272 275 277 277 277 276 276 275 274 275 276 276 276 276 275 275 275 274 272 270 270 269 268 268 267 267 266 266 265 264 263 262 261 259 258 257 256
278 279 279 279 279 280 279 280 280 278 274 271 268 267 269 271 273 271 274 275 277 278 277 276 276 275 275 275 275 274 273 273 272 271 270 270 269 268 268 267 266 266 266 266 265 263 262 261 260 259 258 257 256 255

GFSWCAN_925_thetae_114.txt.gz
Theta_e
297 297 296 296 296 296 296 295 294 294 294 295 296 298 298 297 297 297 295 296 296 294 294 297 298 296 295 293 292 293 293 294 294 295 299 299 301 303 303 307 308 303 305 304 306 305 305 298 300 301 300 297 295 293
297 296 295 295 296 296 295 294 294 293 293 294 295 297 297 296 296 297 295 295 296 293 294 296 296 297 296 294 293 294 295 298 296 295 296 297 299 299 304 308 305 305 302 303 301 300 298 297 297 296 295 298 295 294
296 296 295 295 296 295 294 293 293 294 293 293 295 297 296 296 295 296 295 294 295 291 293 295 297 298 296 298 298 296 295 297 295 292 291 293 298 299 304 305 304 303 301 300 299 298 297 295 294 294 292 291 293 294
295 295 295 296 295 294 293 293 293 293 293 293 295 296 295 295 295 295 295 295 295 291 296 297 296 297 298 296 297 298 297 296 294 292 294 292 297 298 302 303 301 300 300 300 298 296 295 294 292 291 290 288 287 286
295 294 295 296 294 293 293 293 293 293 292 292 294 296 295 295 295 295 295 296 296 294 295 295 295 297 298 298 298 299 298 294 293 295 292 294 295 298 300 299 300 299 300 301 299 297 295 294 292 291 289 287 286 285
294 295 295 295 293 293 293 293 293 294 292 292 293 295 295 294 294 293 289 294 296 295 293 295 293 295 297 298 298 297 296 293 293 294 294 293 294 297 298 299 299 297 296 297 297 293 291 291 289 288 286 285 284 283
294 295 295 294 293 293 293 293 294 294 293 292 290 291 294 294 293 293 291 294 296 296 291 293 296 296 298 296 295 295 296 292 293 293 294 295 296 297 298 299 298 296 294 293 293 292 291 289 288 286 285 284 283 281
293 293 293 293 292 292 293 293 293 294 293 291 292 293 293 294 295 295 296 296 296 294 291 292 297 299 298 297 297 291 294 292 292 293 293 295 296 298 296 299 298 296 295 295 292 291 288 286 285 284 283 282 282 281
293 293 293 292 292 292 292 293 293 293 291 290 293 293 292 292 293 295 296 295 295 293 291 289 296 299 296 295 293 293 292 291 292 290 294 295 294 297 296 299 298 297 295 292 289 288 287 286 284 284 283 282 281 280
294 293 293 292 292 292 292 292 293 293 291 290 290 289 286 293 295 295 294 291 290 291 292 291 290 298 295 292 290 293 290 292 295 297 294 298 296 293 291 289 289 289 290 289 288 287 286 285 284 282 281 280 279 276
294 294 294 292 291 291 291 292 292 292 290 291 289 291 293 295 293 291 289 290 291 292 292 292 292 297 294 294 294 291 290 292 297 298 297 293 296 293 288 288 286 287 287 286 287 287 287 285 283 281 280 278 277 276
294 294 293 291 290 291 292 293 291 291 291 291 292 293 294 293 292 293 294 294 294 294 292 292 292 293 298 293 292 294 294 292 296 297 299 291 287 288 287 287 286 284 284 283 284 283 283 282 281 279 278 277 276 275
294 294 293 292 290 291 292 292 292 292 292 292 292 291 291 290 292 294 292 293 293 289 288 290 294 293 294 295 294 297 293 290 295 293 292 289 287 287 286 285 283 282 282 281 281 280 280 279 279 278 276 275 275 275
293 294 293 291 291 292 292 291 292 292 292 288 287 291 290 293 294 288 289 288 288 287 289 289 293 297 289 293 282 288 289 297 297 291 295 284 286 285 284 283 280 276 277 277 276 277 276 276 275 276 276 275 275 275
293 293 293 292 291 292 291 292 292 292 291 290 288 292 293 290 292 291 289 293 293 285 289 291 291 291 287 291 295 296 300 294 291 291 285 280 284 284 282 281 278 275 273 273 275 274 274 275 275 275 275 275 275 274
293 293 293 292 291 291 292 292 291 290 288 289 291 289 291 294 294 297 296 296 291 286 292 292 291 288 289 289 292 294 297 291 288 282 281 280 281 279 278 277 275 275 275 275 275 275 275 276 276 276 276 276 276 276
292 292 292 291 291 291 291 291 289 287 287 289 288 287 291 292 291 296 296 296 290 295 290 291 291 291 291 290 293 292 295 285 284 286 282 278 281 277 275 275 275 275 275 275 275 276 276 276 277 277 277 277 277 277
292 292 291 290 291 290 289 290 287 287 287 288 291 287 286 291 295 295 294 293 294 295 292 294 292 291 286 290 287 282 289 285 284 282 275 273 275 276 277 275 276 276 275 276 277 277 277 277 278 278 278 278 278 278
291 291 291 290 290 289 286 289 288 287 286 287 289 287 289 289 291 291 292 293 291 290 291 289 289 288 286 283 284 279 283 283 283 276 272 275 277 277 277 277 277 277 276 277 277 277 278 278 278 278 279 278 279 278
291 290 290 289 290 290 290 288 289 289 287 285 288 290 286 285 287 287 289 292 293 292 293 290 287 283 284 281 281 281 278 278 280 278 275 272 276 277 278 278 278 278 278 278 278 279 279 279 280 280 279 278 277 276
290 290 289 290 289 290 289 288 288 290 289 289 289 290 286 286 287 287 291 292 294 295 292 289 282 279 284 284 285 282 281 282 280 280 278 275 276 278 279 279 279 279 279 279 279 279 279 279 279 278 277 277 276 274
290 290 290 289 289 289 289 289 290 289 289 290 290 290 286 284 289 292 292 293 294 293 285 284 284 285 284 283 283 284 283 282 281 280 280 279 276 276 278 279 279 279 279 279 279 279 280 279 278 277 276 274 274 273
289 289 288 289 285 283 289 289 289 291 289 290 291 290 287 288 288 291 290 292 288 283 284 285 287 288 285 284 284 283 283 282 279 279 279 279 279 279 279 280 280 280 280 280 280 280 279 277 276 275 274 274 273 272
289 289 283 285 285 287 290 288 291 293 292 292 290 289 288 289 289 288 287 285 281 281 283 286 285 283 284 284 280 282 282 282 279 279 279 279 277 278 280 280 280 280 280 279 278 277 276 275 274 274 273 271 270 270
284 283 281 281 285 286 284 283 286 289 289 287 286 286 288 287 285 283 285 281 277 275 276 283 284 282 280 276 279 282 282 282 279 278 279 280 278 276 276 276 276 277 277 277 276 276 275 274 273 271 270 270 269 268
282 281 282 281 281 287 286 284 281 284 283 287 284 284 282 283 286 286 284 280 275 273 271 277 278 279 279 281 278 281 282 282 281 278 278 280 280 279 275 273 274 274 275 275 275 274 273 271 271 270 269 268 267 267
284 280 284 285 287 288 285 284 285 281 282 283 289 284 281 281 279 280 280 282 282 282 281 283 284 283 280 279 279 280 280 281 281 279 278 278 278 279 279 277 274 275 274 274 272 271 271 270 269 268 267 267 266 265
284 281 282 280 286 285 279 279 280 281 280 282 282 283 282 282 282 274 274 279 280 281 282 282 283 283 282 280 279 279 278 278 277 276 276 275 275 276 276 276 275 274 272 270 270 269 269 268 268 267 266 265 263 262
283 283 283 283 282 281 281 282 281 278 279 280 280 279 277 275 272 274 277 278 279 280 279 278 276 279 278 277 277 278 277 277 276 272 269 266 270 271 272 272 271 270 270 269 269 268 267 267 266 265 264 263 262 260
285 286 286 285 287 287 282 280 275 270 274 275 274 274 272 272 275 275 277 278 279 279 278 278 276 277 274 274 272 273 274 276 277 277 271 268 271 271 270 270 270 269 269 269 268 267 266 265 265 263 262 261 260 259
283 282 282 282 283 279 277 276 276 275 270 270 268 272 273 270 275 275 276 277 277 278 277 275 275 276 275 274 273 273 274 275 275 276 275 274 272 270 270 269 269 268 268 267 267 267 266 265 264 262 261 259 258 257
280 281 279 279 278 278 278 277 275 275 272 269 269 266 268 270 273 272 274 276 276 276 275 276 274 274 275 276 276 277 277 276 275 275 274 272 270 269 269 268 268 267 267 267 266 265 264 263 262 260 259 258 257 256
275 275 276 276 276 278 278 280 280 276 270 269 268 266 267 273 274 269 272 274 275 276 275 275 275 275 275 276 276 275 274 274 273 272 271 270 269 268 268 267 266 266 266 266 264 263 262 261 260 259 258 257 256 255

GFSWCAN_925_thetae_117.txt.gz
Theta_e
297 296 295 296 296 295 294 294 294 295 296 296 297 298 298 298 299 300 295 297 298 297 297 297 298 297 296 295 296 295 297 298 297 299 300 301 304 303 306 306 307 303 304 304 305 307 306 298 301 303 299 296 294 294
296 297 296 297 295 295 294 295 296 297 298 298 298 297 297 298 298 299 295 297 298 296 297 295 295 296 295 293 296 295 297 299 298 298 299 299 302 302 304 308 303 304 302 302 301 300 297 298 297 296 298 296 294 293
296 296 296 295 295 294 295 295 296 296 297 297 297 297 296 296 296 298 296 297 297 297 297 297 297 296 297 297 297 299 297 297 297 295 298 299 301 301 305 304 304 302 301 300 300 298 297 295 295 292 292 293 294 291
295 296 296 295 294 294 294 294 295 296 297 296 296 296 295 295 296 297 296 295 297 296 299 297 296 296 296 298 298 298 297 295 295 295 298 299 301 300 304 302 301 300 301 300 298 296 295 294 293 291 290 289 288 287
295 295 296 295 294 294 294 293 293 295 296 295 295 295 295 295 295 296 296 296 296 298 299 297 295 296 296 299 298 298 296 296 296 298 299 299 298 300 301 300 300 299 300 301 300 297 296 294 292 291 289 288 287 286
295 295 294 294 293 293 293 293 293 295 295 295 295 295 295 294 295 295 294 296 296 298 297 298 293 297 297 298 297 296 295 295 296 298 297 296 295 299 301 300 298 297 297 298 298 294 293 291 289 288 287 286 284 283
296 295 294 293 293 293 293 292 293 294 295 294 294 294 294 293 292 294 294 295 296 296 296 298 300 297 297 296 295 296 295 295 296 296 297 297 298 299 300 299 298 296 295 294 293 293 292 290 289 286 285 284 282 281
294 294 294 293 293 293 294 292 292 292 293 294 293 294 295 294 295 296 295 295 295 293 294 297 299 300 298 298 299 293 296 295 295 296 295 298 298 299 299 298 296 295 294 294 293 292 291 287 286 285 283 283 283 282
294 293 293 293 293 294 294 293 291 292 293 293 294 294 294 295 296 296 295 295 295 294 295 294 299 300 297 296 296 295 294 297 294 297 297 298 297 299 299 298 296 296 295 291 288 288 287 287 285 284 284 283 283 281
293 292 292 293 293 293 294 291 291 293 292 290 290 289 291 294 295 294 294 292 292 293 293 295 292 300 297 295 296 296 294 297 299 299 296 300 298 293 291 293 294 294 291 290 289 288 287 286 285 284 283 281 280 279
292 292 292 292 293 293 293 292 290 291 291 291 290 291 294 294 293 292 292 293 293 294 293 293 295 299 295 299 298 293 296 296 299 300 299 298 298 294 290 289 289 289 289 289 289 289 288 287 285 282 280 279 278 276
292 292 292 292 292 293 293 292 290 291 291 292 293 294 293 292 292 293 294 294 294 295 293 294 295 297 298 294 297 295 298 296 299 297 300 299 294 290 289 289 288 287 286 285 286 285 285 284 282 281 279 277 276 275
292 291 290 291 292 292 292 291 292 293 292 293 292 292 292 292 291 290 293 294 294 292 292 294 295 297 297 297 297 299 297 297 297 298 299 296 289 289 288 287 285 284 283 283 282 281 281 280 279 278 276 275 275 274
293 291 291 292 292 292 292 292 292 291 292 289 289 291 289 292 292 291 292 292 290 290 292 294 294 297 293 296 291 295 294 298 298 297 298 293 288 287 286 284 282 280 279 279 278 278 277 276 275 275 276 275 275 274
293 291 291 292 292 292 292 292 291 291 290 290 290 293 293 292 293 293 289 293 293 288 292 294 294 294 292 293 294 297 299 297 296 297 294 287 286 285 284 282 280 278 276 275 275 274 274 274 275 274 275 274 274 274
292 291 292 292 292 291 291 291 291 290 288 290 290 292 291 293 296 296 295 295 292 290 291 294 293 292 293 293 295 294 297 296 296 291 287 283 284 282 281 280 278 276 276 275 275 275 275 275 275 275 275 275 275 275
292 292 291 291 291 291 291 291 289 288 288 290 290 288 292 292 292 294 296 295 288 295 294 294 293 293 292 294 295 294 295 294 289 288 285 282 283 281 278 276 275 275 275 275 274 275 275 275 276 276 276 277 277 277
292 291 290 291 291 291 290 289 288 288 288 288 290 288 288 290 294 295 294 293 295 295 294 296 293 294 292 294 294 291 290 287 284 284 281 278 278 277 277 276 275 275 275 275 275 275 276 276 276 277 278 278 278 278
291 291 290 290 289 289 287 288 288 288 287 289 288 288 289 291 291 291 292 292 291 291 293 293 293 295 294 289 291 286 288 287 285 280 276 274 277 277 277 276 276 275 275 275 276 277 277 277 278 278 278 278 278 277
291 290 290 290 290 289 289 288 288 289 289 288 289 290 288 289 288 285 290 294 295 294 294 294 294 291 291 289 286 287 284 282 281 281 279 276 276 276 276 276 276 276 276 276 277 277 277 278 279 279 279 278 276 276
290 290 289 290 290 289 288 288 288 289 289 290 289 290 288 287 288 289 290 291 292 294 295 290 288 285 284 285 284 282 282 282 283 284 282 278 276 277 277 277 277 277 277 277 278 278 278 279 278 278 277 276 275 274
289 289 289 289 288 288 290 288 290 289 290 290 291 290 287 285 285 288 290 291 293 292 290 289 287 287 286 285 284 283 282 282 281 279 279 278 278 278 278 277 278 277 278 278 278 278 279 279 278 276 276 274 274 273
289 289 289 288 283 282 287 289 288 291 287 290 290 289 287 286 288 290 289 292 290 283 284 286 287 286 284 283 283 282 282 281 280 279 278 278 278 278 278 279 279 278 278 278 279 279 278 277 276 275 274 273 272 271
289 287 282 282 284 283 287 289 291 292 290 291 290 289 290 290 289 289 289 288 284 281 284 285 285 284 283 283 282 281 281 281 278 278 278 278 278 277 279 279 279 279 280 279 278 277 276 275 274 273 272 271 270 269
285 282 280 278 284 282 285 286 284 289 287 287 288 288 288 286 285 286 289 286 282 280 280 283 284 284 284 281 279 280 281 280 279 278 278 278 276 276 275 277 277 277 278 277 276 275 274 273 273 271 270 269 268 267
281 278 281 279 283 284 283 286 285 282 287 291 287 285 284 285 287 288 287 285 282 280 279 280 284 284 282 281 280 280 280 280 280 278 277 279 279 278 276 275 275 275 276 276 276 274 273 272 270 270 268 267 267 266
282 280 284 284 286 287 283 282 284 282 284 288 289 286 284 287 285 284 282 281 282 281 281 281 283 283 281 278 279 280 280 280 280 278 278 278 278 279 279 277 275 276 275 275 274 273 271 270 269 268 267 266 265 264
283 283 283 284 287 286 286 283 283 282 283 284 284 286 285 284 285 280 278 278 279 279 280 281 282 282 281 280 279 279 278 278 277 277 277 276 276 277 277 276 276 274 274 272 270 270 269 268 268 267 266 264 263 262
286 282 281 286 280 284 280 282 283 280 280 283 285 283 281 278 274 274 277 277 278 279 278 277 276 278 277 277 276 277 276 277 276 275 275 273 271 271 273 273 272 271 270 269 268 268 267 267 266 265 263 262 261 260
281 282 280 277 281 284 281 280 277 275 275 276 275 275 275 274 275 275 276 278 278 279 279 278 276 276 274 274 272 273 275 276 278 278 274 272 272 272 271 270 270 269 269 269 268 267 266 265 264 263 262 260 259 258
283 282 282 283 285 281 280 276 273 273 272 273 270 276 276 272 274 274 275 276 277 277 277 274 274 275 275 274 274 274 274 275 276 276 276 275 273 271 270 270 269 269 268 268 267 266 265 264 263 261 260 259 258 257
281 282 280 280 279 276 278 280 279 276 273 274 274 270 271 274 276 272 272 274 275 275 275 275 275 274 275 276 276 277 277 276 275 273 273 272 270 270 269 269 268 267 267 267 266 265 264 263 261 260 259 258 257 256
278 279 278 278 277 277 278 280 277 275 272 273 273 270 272 274 276 271 271 272 274 275 275 274 274 274 274 275 276 275 275 274 272 272 271 270 269 269 268 267 267 267 266 266 264 263 262 261 260 259 258 257 256 255

GFSWCAN_925_thetae_120.txt.gz
Theta_e
297 296 295 294 294 295 296 296 298 298 298 299 299 298 299 299 299 300 296 299 302 301 299 300 300 299 299 300 300 300 301 301 302 305 304 305 306 307 308 307 307 306 307 308 308 310 310 299 302 306 300 298 298 297
295 296 296 294 294 294 294 296 297 297 297 298 298 299 299 299 300 299 298 298 300 302 300 297 296 296 298 298 299 300 302 301 301 303 303 304 306 307 307 309 305 307 305 306 304 303 299 298 299 299 298 297 297 296
296 295 294 294 295 297 295 295 294 296 297 298 298 299 297 298 298 299 298 299 300 303 301 299 299 298 298 298 300 301 301 300 301 302 304 305 306 306 308 307 305 303 302 303 302 299 298 296 296 297 297 296 295 294
295 295 294 295 295 297 298 297 297 297 298 297 296 296 297 298 298 298 298 297 300 302 303 299 297 297 297 299 300 301 300 300 300 302 303 305 305 304 305 305 305 303 303 302 300 298 297 296 295 294 294 292 292 291
295 294 295 295 295 296 297 297 297 296 296 295 296 296 297 297 297 297 297 297 298 303 301 299 298 297 299 300 300 300 300 301 301 302 303 304 303 304 303 303 303 301 302 304 305 298 299 296 294 292 292 291 290 289
294 294 294 294 295 294 296 296 295 295 295 295 295 296 297 297 298 298 301 298 299 299 303 301 298 299 300 300 300 300 300 300 301 301 302 301 301 304 304 303 301 299 299 300 299 297 296 294 292 290 290 289 288 287
294 294 295 294 293 294 296 295 295 294 294 294 294 294 294 294 295 298 301 298 297 299 304 301 302 299 299 300 299 300 300 301 301 301 301 301 303 303 302 301 300 297 298 297 296 294 293 292 291 289 288 286 285 284
294 294 294 294 293 294 295 295 294 294 294 294 295 295 295 296 296 296 295 295 296 299 301 302 302 301 299 300 301 299 300 300 300 300 301 301 302 302 301 300 299 298 297 297 296 296 295 291 289 288 287 286 286 285
293 293 294 293 293 293 294 295 294 294 294 294 294 295 295 296 298 296 294 295 295 300 301 302 301 302 300 300 301 300 299 301 299 301 300 301 302 302 302 300 299 298 297 296 293 293 291 291 289 288 287 287 286 284
294 293 293 293 292 292 293 293 293 293 292 291 291 296 297 296 294 294 297 299 298 298 299 300 299 301 300 301 301 301 300 301 302 301 301 301 301 298 299 299 299 298 295 294 293 292 292 290 289 288 287 285 284 282
293 293 294 294 292 292 293 292 291 291 291 293 296 296 295 293 296 297 298 299 298 299 299 298 300 300 299 302 301 299 301 301 302 303 302 301 302 299 296 298 298 296 294 294 294 293 292 291 289 286 284 282 281 280
293 293 293 293 292 291 292 292 291 293 293 294 296 294 294 296 297 297 297 296 298 298 297 300 301 300 300 300 301 300 301 301 302 300 302 302 302 296 294 294 295 294 293 292 292 292 290 288 287 284 283 281 280 278
292 292 293 293 292 291 291 292 293 292 293 294 296 297 297 295 297 297 297 297 298 297 298 300 300 301 300 301 300 299 301 302 300 302 302 303 297 295 294 293 291 290 290 289 288 288 286 285 283 282 280 277 276 274
291 292 292 292 292 292 292 292 291 292 293 295 296 295 296 296 297 296 297 298 295 298 300 299 298 301 299 300 300 301 300 300 301 302 302 301 295 293 292 290 288 287 285 285 284 283 281 279 277 276 276 275 275 274
292 292 292 292 292 292 291 291 291 292 293 294 295 296 296 295 296 295 295 296 295 298 300 300 300 300 299 299 299 300 300 300 300 302 303 297 293 291 289 288 286 284 282 282 281 279 277 276 276 275 275 275 275 274
292 292 292 292 291 291 291 291 291 290 292 294 294 296 296 298 298 297 298 297 295 297 298 300 299 300 300 299 300 300 300 301 303 301 295 292 290 289 287 285 283 282 281 280 279 278 277 276 277 277 275 275 274 274
292 292 292 291 291 291 291 290 291 291 292 294 295 293 296 296 296 298 298 297 294 300 303 300 300 299 298 300 300 299 301 302 298 293 290 291 289 287 285 282 280 280 280 279 278 278 277 277 277 277 277 276 276 277
292 291 291 291 291 291 289 290 291 292 293 293 296 294 294 295 297 296 296 296 299 300 300 300 298 299 300 299 300 301 297 291 289 289 289 288 287 284 283 282 280 280 279 278 278 278 277 277 279 280 280 279 279 279
292 291 290 290 289 290 291 291 291 292 293 292 292 293 293 295 294 294 295 296 296 297 300 300 301 301 301 299 301 297 294 292 291 287 285 283 284 282 282 280 279 279 279 278 279 280 279 279 281 281 280 280 281 280
290 290 290 290 290 291 290 290 290 293 293 292 292 293 293 294 293 294 296 297 296 300 301 301 302 300 301 298 296 295 294 291 289 289 287 284 282 281 281 281 281 280 279 279 280 280 280 280 280 280 280 280 280 279
290 289 289 290 290 290 290 290 291 291 291 292 291 293 294 293 295 296 297 296 300 300 301 299 298 294 290 289 289 290 289 289 292 292 290 286 283 283 281 281 280 280 281 281 281 281 280 282 281 280 279 279 277 276
289 289 289 289 290 290 291 291 291 291 291 291 293 293 294 296 296 296 295 297 298 299 297 297 295 291 291 290 289 288 287 286 284 283 283 283 284 283 283 282 281 282 282 282 282 282 281 281 279 279 278 275 275 273
289 289 290 289 290 291 291 291 292 292 293 292 293 294 294 295 294 293 296 296 295 289 290 291 291 290 289 286 286 286 285 286 286 285 283 285 284 283 283 282 282 282 282 281 281 281 281 278 276 276 274 274 274 273
289 287 288 289 290 291 291 291 292 293 293 293 293 294 293 293 293 294 295 295 291 288 290 289 290 289 287 287 288 286 284 284 283 283 283 283 283 283 282 282 282 282 282 280 280 279 277 276 274 274 273 273 271 271
290 288 289 288 289 290 291 291 291 293 293 292 293 293 293 292 294 294 294 293 290 289 287 288 289 290 291 289 286 284 282 283 284 283 282 283 282 281 281 281 280 279 279 279 278 277 275 274 273 273 272 271 270 268
289 287 289 289 289 291 291 292 291 292 293 293 293 291 291 293 292 294 291 289 288 287 286 288 289 289 288 286 286 285 283 282 283 282 280 281 281 282 281 281 280 277 276 278 277 276 274 273 272 270 268 267 266 267
289 289 287 286 289 290 291 290 289 291 293 293 294 292 292 293 293 290 287 284 285 284 283 283 285 287 288 284 281 280 280 280 281 281 278 278 278 279 281 281 281 277 275 275 275 275 273 271 270 269 266 264 263 263
288 288 289 288 289 289 290 291 292 292 293 290 291 292 293 293 292 286 284 281 281 280 280 279 280 282 282 280 278 277 276 277 277 276 276 276 276 276 277 277 276 275 274 273 272 271 270 269 268 267 266 263 261 260
288 288 288 287 287 288 289 291 292 289 286 289 293 293 290 284 281 282 280 279 278 281 282 281 278 277 277 276 276 277 277 278 280 281 281 279 277 272 271 272 272 272 270 270 269 268 268 267 265 264 262 261 260 259
288 287 289 287 287 290 291 288 289 283 281 283 282 282 282 280 278 275 277 279 281 283 282 280 278 279 279 279 277 275 275 277 278 281 281 280 277 271 270 270 269 269 268 268 266 265 266 265 264 263 261 259 259 258
287 288 289 289 290 287 284 281 279 280 281 282 279 284 285 281 278 274 275 274 276 278 279 278 277 278 278 278 279 278 277 275 276 277 277 276 273 271 270 269 269 268 267 267 266 265 264 263 261 260 259 258 258 257
287 289 288 288 287 282 281 284 284 284 281 282 283 279 279 281 284 278 271 273 276 278 277 278 278 277 277 276 276 277 277 276 274 273 273 272 270 270 269 269 268 267 267 267 266 265 263 262 260 259 258 257 256 256
283 284 283 284 283 283 282 284 283 282 280 281 280 278 280 282 283 275 270 270 272 275 275 273 272 273 274 275 275 275 275 273 272 272 272 271 270 269 269 268 268 267 267 266 264 263 262 261 259 258 257 257 256 255

GFSWCAN_925_thetae_123.txt.gz
Theta_e
294 296 296 296 297 296 299 300 300 300 302 303 303 303 303 303 302 302 300 304 305 306 304 303 303 304 303 304 303 303 302 302 302 305 306 306 308 308 310 309 309 310 310 310 310 310 311 300 303 307 303 301 300 299
297 296 295 295 296 296 297 299 300 300 300 300 300 300 300 300 301 302 301 301 301 302 302 300 300 300 301 302 303 303 303 302 302 305 304 305 307 309 307 309 307 308 307 309 307 306 300 299 302 301 300 299 299 297
296 295 295 294 296 296 296 298 298 299 299 299 300 300 300 300 300 301 300 301 299 300 301 301 301 300 301 302 302 303 303 303 304 307 306 306 307 306 308 308 308 305 304 305 304 300 299 299 300 299 298 297 296 296
295 295 295 295 295 296 297 298 299 299 298 298 299 299 299 300 300 300 301 301 301 303 303 301 300 301 301 301 302 302 303 303 304 305 306 308 306 307 309 308 308 306 304 303 302 300 299 298 298 297 296 295 294 294
295 295 297 296 294 296 297 297 298 298 297 297 298 297 299 300 301 300 301 301 302 302 303 303 301 301 301 301 301 301 302 303 304 304 306 306 306 306 305 305 305 303 304 305 309 301 301 297 296 295 294 293 292 291
295 295 296 296 296 296 297 296 296 296 296 297 297 298 299 299 300 301 304 302 300 300 304 302 301 302 301 301 301 302 302 302 302 303 304 304 305 306 307 306 303 301 301 302 301 299 297 295 294 293 292 292 291 290
295 294 294 296 296 296 296 296 296 296 296 296 297 298 299 300 301 303 303 301 301 301 306 301 302 301 301 301 301 302 301 302 302 302 302 303 304 305 304 305 302 300 300 299 298 296 295 294 293 293 291 290 289 288
294 293 296 296 295 294 294 294 294 295 295 295 296 297 298 298 298 298 296 298 301 301 302 303 302 302 301 301 302 301 302 302 302 302 302 303 303 304 303 301 300 299 298 298 297 298 295 294 292 291 289 289 288 287
294 294 295 295 294 294 294 295 295 295 296 297 298 298 299 299 300 297 297 300 301 302 304 303 303 303 301 302 302 301 301 303 301 303 302 302 304 304 303 302 300 299 299 298 297 296 293 293 292 291 290 289 288 287
293 293 294 295 294 294 294 293 293 292 292 295 297 299 300 298 295 298 301 303 303 302 302 304 303 302 302 302 302 302 302 302 303 303 302 303 304 302 301 301 299 299 298 298 297 295 294 293 291 291 290 289 287 285
293 293 293 294 294 294 293 293 292 292 294 298 299 299 297 296 300 301 304 303 302 302 301 301 302 302 302 303 303 302 303 303 304 304 303 303 303 302 301 299 299 298 297 297 296 295 294 293 292 290 288 286 285 283
294 293 293 293 292 291 291 291 291 296 296 298 298 297 298 300 301 302 300 300 301 301 301 303 302 302 303 302 303 302 302 303 305 303 304 304 304 301 300 299 298 297 297 296 295 295 294 292 290 288 286 284 283 282
293 292 291 292 292 293 294 293 294 294 296 298 299 298 299 299 302 302 300 301 301 300 302 303 303 302 302 303 303 301 302 304 302 303 303 306 302 299 299 298 297 296 295 295 294 293 291 290 287 285 284 281 278 277
293 292 292 292 292 293 292 292 292 295 297 300 302 298 300 300 299 300 301 302 299 302 304 303 303 303 301 302 303 301 302 302 303 304 304 304 300 298 296 295 294 291 290 290 289 287 285 283 282 280 279 278 276 276
292 292 292 292 292 291 291 291 293 296 297 298 298 298 298 298 298 297 297 299 301 303 303 303 303 302 301 301 302 301 301 302 303 304 305 300 296 296 295 293 290 288 287 287 285 282 280 279 279 278 278 278 277 276
292 292 292 291 291 291 291 293 294 295 296 296 296 299 299 300 299 299 298 299 301 303 303 302 302 303 302 302 302 303 302 303 305 302 296 294 294 293 291 289 287 286 286 285 282 280 279 279 279 279 278 278 276 276
293 293 291 291 290 291 291 294 294 295 296 296 297 297 299 299 299 299 301 299 300 303 305 301 303 302 301 302 302 302 305 303 297 295 294 294 291 290 289 287 285 285 285 283 282 281 280 280 279 279 279 278 278 277
292 292 291 291 292 293 293 293 294 295 296 296 298 297 297 296 298 298 298 300 302 302 302 301 300 301 303 302 303 303 300 294 292 292 291 291 290 288 287 285 284 284 283 282 281 281 281 280 281 281 282 280 280 281
291 291 290 289 291 293 294 293 295 295 295 295 297 296 297 296 296 295 297 299 301 301 302 301 303 302 303 303 302 298 296 296 293 290 288 288 287 287 286 284 283 283 282 282 282 282 282 282 283 283 283 282 283 282
290 290 290 290 292 292 292 293 294 295 296 295 295 296 297 297 296 297 298 298 300 301 302 302 303 302 302 300 299 298 295 294 293 292 289 287 286 285 284 284 285 283 282 282 283 283 282 283 283 283 283 282 282 281
291 290 291 292 293 292 293 293 293 294 294 295 294 296 297 297 298 299 300 299 300 301 302 302 299 297 295 294 295 295 294 294 296 296 293 289 287 287 285 286 284 284 284 284 284 283 283 284 283 283 282 281 280 279
291 290 292 291 293 293 293 292 293 293 293 294 295 296 297 297 298 297 297 300 300 299 299 300 299 296 295 294 293 293 292 290 289 290 290 288 289 287 286 285 285 285 285 285 285 284 283 284 282 282 281 279 278 277
291 291 291 291 293 293 293 292 294 294 294 294 295 295 296 296 295 295 297 298 296 293 294 296 295 294 292 290 290 290 290 291 291 289 288 289 288 287 286 285 285 285 285 284 284 283 283 281 280 280 278 278 277 275
289 290 291 292 293 293 293 293 293 293 294 294 294 295 294 294 294 296 297 297 294 293 293 293 293 293 291 291 292 289 288 289 288 288 288 287 286 286 285 285 285 285 284 283 283 282 280 280 278 278 277 277 276 275
291 290 292 292 292 293 293 293 293 294 294 294 294 294 294 294 295 296 297 295 292 290 290 291 292 293 294 292 290 287 286 287 288 287 286 287 286 285 284 283 283 283 283 282 281 280 279 278 278 277 276 275 273 272
291 289 292 292 292 294 293 293 293 294 294 294 294 294 294 294 295 297 295 291 290 289 289 290 291 292 291 290 290 288 286 286 286 286 285 285 285 285 284 283 281 280 281 282 280 279 278 277 276 274 271 269 269 270
291 292 291 290 291 292 293 293 293 294 294 295 295 294 294 295 296 294 289 287 288 286 285 286 287 289 290 288 285 284 284 284 285 284 282 282 282 283 283 283 283 280 280 280 279 278 277 275 273 272 270 268 267 267
291 291 291 290 291 291 292 293 294 294 295 294 294 295 295 295 295 290 287 284 284 284 283 282 282 286 286 284 282 281 279 279 278 278 278 278 278 277 277 277 277 277 277 277 276 275 274 273 271 270 269 266 264 263
291 290 291 289 290 291 291 293 294 293 291 293 295 295 294 289 286 286 284 283 283 284 285 284 282 282 281 281 281 281 281 281 282 283 283 282 279 276 275 274 274 272 271 270 270 270 270 269 268 267 265 264 262 262
290 290 291 290 290 292 293 291 292 288 287 288 288 288 288 286 283 280 282 283 284 285 284 284 283 283 283 282 281 280 280 280 281 284 285 283 279 275 274 273 272 271 270 269 267 265 266 266 265 264 263 263 263 262
289 289 290 291 291 291 287 285 285 285 286 287 285 288 290 286 282 279 280 279 280 281 283 283 282 282 283 282 282 281 279 276 277 278 279 276 275 274 273 273 272 270 269 268 268 267 266 266 265 264 262 261 260 261
289 290 290 291 291 286 285 287 288 288 287 286 288 285 285 286 288 281 275 276 279 281 281 282 282 281 281 279 278 279 278 275 274 274 275 274 273 272 271 271 270 269 268 267 266 266 265 265 264 263 261 260 259 258
288 288 288 289 289 288 287 287 287 287 285 286 285 284 285 286 287 278 274 273 275 278 279 277 277 276 276 275 274 274 273 273 272 272 271 270 270 270 270 269 268 267 267 266 264 263 263 262 262 261 260 258 258 257

GFSWCAN_925_thetae_126.txt.gz
Theta_e
293 293 293 293 294 294 294 297 298 300 301 303 304 303 300 300 300 301 302 303 306 307 308 308 307 307 308 307 307 305 304 304 305 305 303 305 309 310 309 310 310 311 311 312 312 311 312 302 303 307 305 303 301 300
293 293 294 294 294 296 297 297 301 302 303 304 304 304 305 303 301 301 303 302 304 308 304 305 305 306 306 305 305 304 305 303 304 305 306 307 310 312 308 313 309 311 309 312 307 306 300 300 303 302 301 301 299 297
294 294 293 295 295 294 298 300 301 301 301 304 307 308 308 306 302 302 304 304 304 303 303 303 304 302 302 302 303 304 303 304 305 307 310 311 308 308 311 310 309 307 306 307 305 301 300 301 300 300 299 299 297 296
294 295 295 296 294 296 299 300 300 300 301 302 302 305 306 304 302 304 304 303 303 304 304 303 301 301 302 302 304 303 305 304 307 309 308 309 310 308 312 310 310 307 305 304 303 300 298 299 299 298 297 297 296 295
296 296 295 294 294 299 299 300 300 300 300 301 302 302 303 303 303 303 303 303 302 305 304 303 301 301 301 302 303 304 305 306 306 306 308 308 307 307 307 307 307 305 306 306 309 302 301 298 297 296 295 294 293 292
296 295 294 294 296 297 298 298 299 300 300 300 301 302 302 302 302 302 302 302 301 301 303 304 302 302 302 302 303 304 305 306 305 305 308 307 306 307 308 308 304 304 304 303 302 300 296 295 295 294 293 293 292 291
296 295 294 295 297 297 297 297 298 299 299 300 300 301 302 302 302 303 303 302 301 301 304 303 304 302 301 302 303 303 303 304 304 304 304 305 305 305 307 307 303 301 301 300 298 296 295 294 294 293 292 291 290 289
295 295 295 295 296 296 296 297 298 298 299 300 300 301 300 300 301 301 301 301 302 302 302 304 303 302 301 303 302 302 303 303 304 304 303 305 304 305 305 303 301 300 299 298 297 298 296 295 294 292 291 289 289 288
296 296 296 296 296 296 296 297 298 299 299 299 300 300 300 300 301 300 302 303 303 304 305 305 303 302 302 303 303 302 303 306 302 304 304 304 305 305 305 302 300 299 299 298 298 297 296 294 292 291 291 290 289 287
296 295 294 294 293 294 295 296 296 297 297 298 300 301 302 298 297 300 302 304 304 303 303 305 302 303 303 304 304 304 304 304 304 304 302 305 306 303 302 301 300 300 299 298 297 296 295 293 292 292 291 290 288 287
295 294 294 293 293 293 293 293 294 296 297 300 302 302 298 298 302 303 306 305 304 303 304 303 303 304 303 305 305 303 306 304 304 304 304 304 305 303 301 301 300 299 299 298 297 296 295 293 292 292 290 288 287 285
294 293 292 292 293 293 292 294 294 297 299 300 299 299 300 302 306 302 302 302 302 301 303 304 304 304 304 304 304 303 303 304 307 304 305 304 305 302 301 300 299 298 298 297 296 296 294 293 292 290 288 287 285 283
292 292 293 293 292 293 294 296 297 298 299 299 300 299 301 303 303 306 301 302 302 303 304 304 304 303 303 304 305 303 303 305 303 304 303 306 303 301 300 299 298 297 296 295 295 294 293 292 290 288 285 282 281 279
292 292 293 292 291 292 292 293 295 298 300 303 302 299 303 301 301 302 304 303 302 304 304 305 305 303 303 302 303 303 303 303 304 304 305 304 302 300 297 295 294 293 292 291 290 287 284 283 282 282 281 280 278 276
292 292 292 291 291 292 293 295 297 298 299 300 299 299 299 298 298 299 300 303 305 305 305 305 305 303 303 301 303 301 302 302 303 305 303 301 299 296 295 293 291 289 288 287 285 283 281 280 280 279 278 278 277 276
293 292 291 291 291 291 295 296 297 298 299 297 298 301 300 300 300 300 301 303 305 305 306 305 304 304 303 303 303 303 303 303 305 300 298 297 296 294 292 291 290 289 288 286 284 281 280 280 279 279 279 278 276 276
293 293 291 291 293 294 295 296 296 296 297 298 299 298 300 299 299 299 301 302 303 305 305 303 304 303 302 303 302 304 305 300 298 295 295 295 294 292 290 289 287 287 286 284 282 281 280 281 280 279 279 277 277 277
293 291 290 290 294 295 295 296 297 297 297 299 299 298 296 297 298 298 300 303 305 304 304 301 302 302 304 302 304 303 296 294 294 294 293 292 291 289 288 287 286 286 285 284 282 281 282 280 281 281 280 279 280 280
291 291 290 291 293 294 295 295 297 296 297 298 298 298 298 296 296 297 299 301 303 302 305 304 303 304 304 302 301 298 296 295 293 291 291 289 288 288 287 286 286 285 284 283 282 283 282 282 283 283 283 281 283 282
291 291 292 293 294 294 294 295 296 296 297 296 297 298 298 298 297 299 301 302 302 304 304 303 302 301 300 299 298 297 295 293 291 290 289 288 287 286 286 286 286 285 284 283 284 284 283 284 284 284 284 283 284 282
292 292 292 294 294 294 295 295 295 295 296 296 296 298 298 298 300 301 301 301 303 303 301 300 297 297 296 296 297 295 295 295 296 295 291 288 287 287 286 287 285 285 285 285 285 285 284 285 284 284 283 282 281 279
292 292 293 293 294 294 294 294 294 294 295 296 297 297 298 298 299 299 299 301 301 298 299 300 298 296 296 295 295 295 293 293 293 292 291 288 289 288 288 286 286 286 286 286 286 285 285 285 284 283 282 280 279 277
292 292 292 293 295 294 293 294 295 294 295 295 296 296 297 297 296 296 298 299 296 295 295 296 295 294 293 292 292 292 292 293 292 291 290 290 289 288 287 286 287 287 286 285 285 284 285 282 282 281 279 279 277 275
290 292 293 293 294 293 294 294 294 294 295 295 295 295 295 295 295 297 298 297 294 294 293 294 294 294 293 293 292 291 291 291 290 290 289 288 287 287 286 286 286 286 286 285 285 283 282 281 280 279 279 279 278 277
292 291 293 293 294 294 293 294 295 294 294 295 295 295 295 295 297 297 298 295 292 291 291 292 293 294 293 291 290 288 288 290 289 288 288 287 286 286 285 285 285 285 284 284 283 282 280 279 280 278 278 277 275 274
292 291 293 293 294 294 293 293 294 295 295 295 295 295 294 295 296 298 295 292 290 290 290 290 292 292 292 291 290 288 287 288 288 288 287 286 286 286 285 284 283 282 283 282 281 280 279 279 278 275 273 272 272 272
292 292 292 292 293 293 294 294 294 295 295 296 296 294 294 296 298 294 289 287 288 286 286 287 288 290 289 287 286 285 284 285 285 284 282 282 283 284 284 283 282 281 281 281 280 280 279 277 274 273 272 270 269 269
292 293 292 292 292 293 293 293 294 294 296 295 295 295 296 296 295 289 287 285 285 285 284 284 285 286 286 284 283 282 282 281 281 280 279 279 278 279 280 280 280 279 279 279 278 277 276 274 273 271 269 268 266 265
292 292 292 290 291 292 293 294 294 294 293 294 295 296 293 290 287 287 285 284 284 286 285 285 283 283 283 282 283 282 281 282 282 282 282 280 279 277 276 276 275 275 275 274 274 273 272 272 271 269 266 265 264 264
291 291 292 291 291 292 293 291 293 289 290 290 291 290 290 287 284 283 284 284 285 286 286 286 284 284 283 283 283 283 282 282 283 285 285 282 279 276 275 273 272 271 270 269 269 268 268 267 266 265 264 264 264 263
290 290 291 291 292 292 290 287 287 287 288 289 288 290 292 287 283 281 281 280 282 283 284 284 284 285 284 283 282 281 280 278 279 281 282 278 276 275 274 273 272 270 269 268 268 268 267 267 266 265 264 263 262 263
289 290 291 291 292 288 287 288 289 289 291 289 290 288 287 287 288 282 276 277 281 282 283 284 284 284 281 280 281 282 279 277 277 277 276 275 274 274 273 271 270 270 269 269 268 267 267 266 265 264 263 262 261 260
290 290 289 290 290 289 289 288 290 289 288 288 288 288 287 287 286 279 275 275 277 278 279 278 278 278 278 277 277 276 276 276 276 275 274 273 272 271 271 270 269 268 268 267 266 265 265 264 263 262 261 260 259 259